<?xml version="1.0" encoding="UTF-8" standalone="no" ?>
<gpx xmlns="http://www.topografix.com/GPX/1/1" xmlns:xsi="http://www.w3.org/2001/XMLSchema-instance" xsi:schemaLocation="http://www.topografix.com/GPX/1/1 http://www.topografix.com/GPX/1/1/gpx.xsd" version="1.1" creator="VisuGPX - https://www.visugpx.com">
  <metadata>
    <name>Les Chemins du Soleil Sud (5/6)</name>
    <desc><![CDATA[Les Chemins du Soleil Sud ou la traversée des préAlpes du Sud (Les Mujouls - Bézaudun)]]></desc>
  </metadata>
  <trk>
    <name><![CDATA[gtpas5 Mujouls Bezaudin]]></name>
    <trkseg>
      <trkpt lat="43.8841" lon="6.86182">
        <ele>773</ele>
        <time>2009-07-09T08:13:33Z</time>
      </trkpt>
      <trkpt lat="43.88423" lon="6.86175">
        <ele>774</ele>
        <time>2009-07-09T08:14:04Z</time>
      </trkpt>
      <trkpt lat="43.88438" lon="6.86172">
        <ele>775</ele>
        <time>2009-07-09T08:14:12Z</time>
      </trkpt>
      <trkpt lat="43.88447" lon="6.86172">
        <ele>775</ele>
        <time>2009-07-09T08:14:18Z</time>
      </trkpt>
      <trkpt lat="43.88477" lon="6.86187">
        <ele>773</ele>
        <time>2009-07-09T08:14:30Z</time>
      </trkpt>
      <trkpt lat="43.88492" lon="6.8621">
        <ele>770</ele>
        <time>2009-07-09T08:14:38Z</time>
      </trkpt>
      <trkpt lat="43.88497" lon="6.86197">
        <ele>768</ele>
        <time>2009-07-09T08:14:44Z</time>
      </trkpt>
      <trkpt lat="43.88478" lon="6.86157">
        <ele>764</ele>
        <time>2009-07-09T08:14:51Z</time>
      </trkpt>
      <trkpt lat="43.88462" lon="6.86128">
        <ele>761</ele>
        <time>2009-07-09T08:14:55Z</time>
      </trkpt>
      <trkpt lat="43.88443" lon="6.86117">
        <ele>760</ele>
        <time>2009-07-09T08:15:00Z</time>
      </trkpt>
      <trkpt lat="43.88438" lon="6.86115">
        <ele>759</ele>
        <time>2009-07-09T08:15:02Z</time>
      </trkpt>
      <trkpt lat="43.88442" lon="6.8611">
        <ele>758</ele>
        <time>2009-07-09T08:15:06Z</time>
      </trkpt>
      <trkpt lat="43.88452" lon="6.86107">
        <ele>756</ele>
        <time>2009-07-09T08:15:09Z</time>
      </trkpt>
      <trkpt lat="43.88462" lon="6.86098">
        <ele>754</ele>
        <time>2009-07-09T08:15:12Z</time>
      </trkpt>
      <trkpt lat="43.88477" lon="6.86078">
        <ele>752</ele>
        <time>2009-07-09T08:15:22Z</time>
      </trkpt>
      <trkpt lat="43.88502" lon="6.86065">
        <ele>750</ele>
        <time>2009-07-09T08:15:41Z</time>
      </trkpt>
      <trkpt lat="43.88507" lon="6.86055">
        <ele>749</ele>
        <time>2009-07-09T08:15:43Z</time>
      </trkpt>
      <trkpt lat="43.88513" lon="6.86025">
        <ele>748</ele>
        <time>2009-07-09T08:15:48Z</time>
      </trkpt>
      <trkpt lat="43.8852" lon="6.85967">
        <ele>746</ele>
        <time>2009-07-09T08:15:55Z</time>
      </trkpt>
      <trkpt lat="43.88523" lon="6.85937">
        <ele>744</ele>
        <time>2009-07-09T08:15:58Z</time>
      </trkpt>
      <trkpt lat="43.8853" lon="6.859">
        <ele>742</ele>
        <time>2009-07-09T08:16:02Z</time>
      </trkpt>
      <trkpt lat="43.88537" lon="6.85873">
        <ele>740</ele>
        <time>2009-07-09T08:16:05Z</time>
      </trkpt>
      <trkpt lat="43.88537" lon="6.85845">
        <ele>738</ele>
        <time>2009-07-09T08:16:09Z</time>
      </trkpt>
      <trkpt lat="43.88533" lon="6.85823">
        <ele>737</ele>
        <time>2009-07-09T08:16:13Z</time>
      </trkpt>
      <trkpt lat="43.8853" lon="6.85778">
        <ele>734</ele>
        <time>2009-07-09T08:16:25Z</time>
      </trkpt>
      <trkpt lat="43.8853" lon="6.85747">
        <ele>733</ele>
        <time>2009-07-09T08:16:33Z</time>
      </trkpt>
      <trkpt lat="43.8853" lon="6.85742">
        <ele>732</ele>
        <time>2009-07-09T08:16:50Z</time>
      </trkpt>
      <trkpt lat="43.8853" lon="6.8574">
        <ele>731</ele>
        <time>2009-07-09T08:17:54Z</time>
      </trkpt>
      <trkpt lat="43.8853" lon="6.85692">
        <ele>729</ele>
        <time>2009-07-09T08:18:05Z</time>
      </trkpt>
      <trkpt lat="43.88527" lon="6.85622">
        <ele>726</ele>
        <time>2009-07-09T08:18:13Z</time>
      </trkpt>
      <trkpt lat="43.88528" lon="6.85555">
        <ele>723</ele>
        <time>2009-07-09T08:18:19Z</time>
      </trkpt>
      <trkpt lat="43.88528" lon="6.8549">
        <ele>719</ele>
        <time>2009-07-09T08:18:24Z</time>
      </trkpt>
      <trkpt lat="43.88533" lon="6.8545">
        <ele>717</ele>
        <time>2009-07-09T08:18:27Z</time>
      </trkpt>
      <trkpt lat="43.8854" lon="6.85425">
        <ele>716</ele>
        <time>2009-07-09T08:18:29Z</time>
      </trkpt>
      <trkpt lat="43.88548" lon="6.85368">
        <ele>713</ele>
        <time>2009-07-09T08:18:33Z</time>
      </trkpt>
      <trkpt lat="43.88552" lon="6.85355">
        <ele>712</ele>
        <time>2009-07-09T08:18:34Z</time>
      </trkpt>
      <trkpt lat="43.88555" lon="6.8527">
        <ele>707</ele>
        <time>2009-07-09T08:18:40Z</time>
      </trkpt>
      <trkpt lat="43.88555" lon="6.85243">
        <ele>705</ele>
        <time>2009-07-09T08:18:42Z</time>
      </trkpt>
      <trkpt lat="43.88562" lon="6.85188">
        <ele>702</ele>
        <time>2009-07-09T08:18:46Z</time>
      </trkpt>
      <trkpt lat="43.88565" lon="6.85145">
        <ele>700</ele>
        <time>2009-07-09T08:18:50Z</time>
      </trkpt>
      <trkpt lat="43.88568" lon="6.85147">
        <ele>699</ele>
        <time>2009-07-09T08:18:55Z</time>
      </trkpt>
      <trkpt lat="43.88568" lon="6.85152">
        <ele>698</ele>
        <time>2009-07-09T08:18:56Z</time>
      </trkpt>
      <trkpt lat="43.88567" lon="6.85192">
        <ele>696</ele>
        <time>2009-07-09T08:19:01Z</time>
      </trkpt>
      <trkpt lat="43.88572" lon="6.85235">
        <ele>694</ele>
        <time>2009-07-09T08:19:05Z</time>
      </trkpt>
      <trkpt lat="43.88582" lon="6.85265">
        <ele>692</ele>
        <time>2009-07-09T08:19:08Z</time>
      </trkpt>
      <trkpt lat="43.88593" lon="6.85298">
        <ele>690</ele>
        <time>2009-07-09T08:19:11Z</time>
      </trkpt>
      <trkpt lat="43.88605" lon="6.85363">
        <ele>688</ele>
        <time>2009-07-09T08:19:16Z</time>
      </trkpt>
      <trkpt lat="43.88612" lon="6.85413">
        <ele>685</ele>
        <time>2009-07-09T08:19:20Z</time>
      </trkpt>
      <trkpt lat="43.88622" lon="6.85485">
        <ele>681</ele>
        <time>2009-07-09T08:19:25Z</time>
      </trkpt>
      <trkpt lat="43.88635" lon="6.85552">
        <ele>677</ele>
        <time>2009-07-09T08:19:30Z</time>
      </trkpt>
      <trkpt lat="43.88647" lon="6.85605">
        <ele>674</ele>
        <time>2009-07-09T08:19:34Z</time>
      </trkpt>
      <trkpt lat="43.88655" lon="6.85635">
        <ele>673</ele>
        <time>2009-07-09T08:19:36Z</time>
      </trkpt>
      <trkpt lat="43.8867" lon="6.85695">
        <ele>670</ele>
        <time>2009-07-09T08:19:40Z</time>
      </trkpt>
      <trkpt lat="43.88678" lon="6.85753">
        <ele>666</ele>
        <time>2009-07-09T08:19:44Z</time>
      </trkpt>
      <trkpt lat="43.88677" lon="6.85802">
        <ele>664</ele>
        <time>2009-07-09T08:19:47Z</time>
      </trkpt>
      <trkpt lat="43.8868" lon="6.85848">
        <ele>662</ele>
        <time>2009-07-09T08:19:50Z</time>
      </trkpt>
      <trkpt lat="43.88678" lon="6.8594">
        <ele>657</ele>
        <time>2009-07-09T08:19:56Z</time>
      </trkpt>
      <trkpt lat="43.88677" lon="6.85987">
        <ele>654</ele>
        <time>2009-07-09T08:19:59Z</time>
      </trkpt>
      <trkpt lat="43.88678" lon="6.86002">
        <ele>654</ele>
        <time>2009-07-09T08:20:00Z</time>
      </trkpt>
      <trkpt lat="43.88667" lon="6.86053">
        <ele>650</ele>
        <time>2009-07-09T08:20:04Z</time>
      </trkpt>
      <trkpt lat="43.88658" lon="6.86128">
        <ele>647</ele>
        <time>2009-07-09T08:20:10Z</time>
      </trkpt>
      <trkpt lat="43.88667" lon="6.86167">
        <ele>645</ele>
        <time>2009-07-09T08:20:13Z</time>
      </trkpt>
      <trkpt lat="43.88685" lon="6.86243">
        <ele>641</ele>
        <time>2009-07-09T08:20:19Z</time>
      </trkpt>
      <trkpt lat="43.88693" lon="6.86267">
        <ele>640</ele>
        <time>2009-07-09T08:20:21Z</time>
      </trkpt>
      <trkpt lat="43.88708" lon="6.86298">
        <ele>639</ele>
        <time>2009-07-09T08:20:24Z</time>
      </trkpt>
      <trkpt lat="43.88718" lon="6.8634">
        <ele>637</ele>
        <time>2009-07-09T08:20:28Z</time>
      </trkpt>
      <trkpt lat="43.88747" lon="6.86352">
        <ele>634</ele>
        <time>2009-07-09T08:20:35Z</time>
      </trkpt>
      <trkpt lat="43.88792" lon="6.86318">
        <ele>633</ele>
        <time>2009-07-09T08:20:47Z</time>
      </trkpt>
      <trkpt lat="43.8881" lon="6.8632">
        <ele>633</ele>
        <time>2009-07-09T08:20:56Z</time>
      </trkpt>
      <trkpt lat="43.88823" lon="6.86337">
        <ele>633</ele>
        <time>2009-07-09T08:21:09Z</time>
      </trkpt>
      <trkpt lat="43.88823" lon="6.8634">
        <ele>632</ele>
        <time>2009-07-09T08:26:01Z</time>
      </trkpt>
      <trkpt lat="43.88837" lon="6.86358">
        <ele>633</ele>
        <time>2009-07-09T08:26:13Z</time>
      </trkpt>
      <trkpt lat="43.88847" lon="6.86372">
        <ele>636</ele>
        <time>2009-07-09T08:26:22Z</time>
      </trkpt>
      <trkpt lat="43.88853" lon="6.86423">
        <ele>630</ele>
        <time>2009-07-09T08:30:00Z</time>
      </trkpt>
      <trkpt lat="43.88882" lon="6.86455">
        <ele>632</ele>
        <time>2009-07-09T08:30:15Z</time>
      </trkpt>
      <trkpt lat="43.88907" lon="6.86478">
        <ele>630</ele>
        <time>2009-07-09T08:30:28Z</time>
      </trkpt>
      <trkpt lat="43.88917" lon="6.86478">
        <ele>628</ele>
        <time>2009-07-09T08:30:39Z</time>
      </trkpt>
      <trkpt lat="43.88923" lon="6.8648">
        <ele>627</ele>
        <time>2009-07-09T08:30:46Z</time>
      </trkpt>
      <trkpt lat="43.88933" lon="6.86482">
        <ele>627</ele>
        <time>2009-07-09T08:30:51Z</time>
      </trkpt>
      <trkpt lat="43.8895" lon="6.865">
        <ele>630</ele>
        <time>2009-07-09T08:31:04Z</time>
      </trkpt>
      <trkpt lat="43.88955" lon="6.8652">
        <ele>634</ele>
        <time>2009-07-09T08:31:14Z</time>
      </trkpt>
      <trkpt lat="43.88957" lon="6.86522">
        <ele>634</ele>
        <time>2009-07-09T08:31:15Z</time>
      </trkpt>
      <trkpt lat="43.8896" lon="6.86527">
        <ele>635</ele>
        <time>2009-07-09T08:31:19Z</time>
      </trkpt>
      <trkpt lat="43.88962" lon="6.86532">
        <ele>637</ele>
        <time>2009-07-09T08:31:23Z</time>
      </trkpt>
      <trkpt lat="43.88965" lon="6.86543">
        <ele>638</ele>
        <time>2009-07-09T08:31:30Z</time>
      </trkpt>
      <trkpt lat="43.88972" lon="6.86562">
        <ele>642</ele>
        <time>2009-07-09T08:31:41Z</time>
      </trkpt>
      <trkpt lat="43.88973" lon="6.86565">
        <ele>642</ele>
        <time>2009-07-09T08:31:43Z</time>
      </trkpt>
      <trkpt lat="43.8898" lon="6.86577">
        <ele>645</ele>
        <time>2009-07-09T08:31:53Z</time>
      </trkpt>
      <trkpt lat="43.88982" lon="6.8658">
        <ele>646</ele>
        <time>2009-07-09T08:31:57Z</time>
      </trkpt>
      <trkpt lat="43.88992" lon="6.86593">
        <ele>650</ele>
        <time>2009-07-09T08:32:08Z</time>
      </trkpt>
      <trkpt lat="43.88995" lon="6.86605">
        <ele>653</ele>
        <time>2009-07-09T08:32:24Z</time>
      </trkpt>
      <trkpt lat="43.89005" lon="6.8662">
        <ele>656</ele>
        <time>2009-07-09T08:32:43Z</time>
      </trkpt>
      <trkpt lat="43.89003" lon="6.86637">
        <ele>659</ele>
        <time>2009-07-09T08:33:04Z</time>
      </trkpt>
      <trkpt lat="43.89003" lon="6.86648">
        <ele>661</ele>
        <time>2009-07-09T08:33:27Z</time>
      </trkpt>
      <trkpt lat="43.89007" lon="6.86683">
        <ele>664</ele>
        <time>2009-07-09T08:33:41Z</time>
      </trkpt>
      <trkpt lat="43.89018" lon="6.8671">
        <ele>667</ele>
        <time>2009-07-09T08:33:59Z</time>
      </trkpt>
      <trkpt lat="43.8902" lon="6.86735">
        <ele>671</ele>
        <time>2009-07-09T08:34:12Z</time>
      </trkpt>
      <trkpt lat="43.8902" lon="6.86742">
        <ele>671</ele>
        <time>2009-07-09T08:34:16Z</time>
      </trkpt>
      <trkpt lat="43.8902" lon="6.86755">
        <ele>673</ele>
        <time>2009-07-09T08:34:29Z</time>
      </trkpt>
      <trkpt lat="43.89025" lon="6.86772">
        <ele>676</ele>
        <time>2009-07-09T08:34:45Z</time>
      </trkpt>
      <trkpt lat="43.89027" lon="6.86785">
        <ele>678</ele>
        <time>2009-07-09T08:34:57Z</time>
      </trkpt>
      <trkpt lat="43.89027" lon="6.86803">
        <ele>681</ele>
        <time>2009-07-09T08:35:15Z</time>
      </trkpt>
      <trkpt lat="43.89023" lon="6.86825">
        <ele>684</ele>
        <time>2009-07-09T08:35:32Z</time>
      </trkpt>
      <trkpt lat="43.89023" lon="6.86845">
        <ele>687</ele>
        <time>2009-07-09T08:35:51Z</time>
      </trkpt>
      <trkpt lat="43.89025" lon="6.86862">
        <ele>688</ele>
        <time>2009-07-09T08:36:12Z</time>
      </trkpt>
      <trkpt lat="43.89025" lon="6.86867">
        <ele>688</ele>
        <time>2009-07-09T08:37:15Z</time>
      </trkpt>
      <trkpt lat="43.89025" lon="6.86887">
        <ele>692</ele>
        <time>2009-07-09T08:38:38Z</time>
      </trkpt>
      <trkpt lat="43.89023" lon="6.86912">
        <ele>694</ele>
        <time>2009-07-09T08:38:51Z</time>
      </trkpt>
      <trkpt lat="43.89027" lon="6.86937">
        <ele>697</ele>
        <time>2009-07-09T08:39:06Z</time>
      </trkpt>
      <trkpt lat="43.89028" lon="6.8694">
        <ele>698</ele>
        <time>2009-07-09T08:39:09Z</time>
      </trkpt>
      <trkpt lat="43.8903" lon="6.86943">
        <ele>699</ele>
        <time>2009-07-09T08:39:12Z</time>
      </trkpt>
      <trkpt lat="43.8903" lon="6.86967">
        <ele>701</ele>
        <time>2009-07-09T08:39:27Z</time>
      </trkpt>
      <trkpt lat="43.89023" lon="6.8698">
        <ele>702</ele>
        <time>2009-07-09T08:39:40Z</time>
      </trkpt>
      <trkpt lat="43.8902" lon="6.87008">
        <ele>706</ele>
        <time>2009-07-09T08:39:55Z</time>
      </trkpt>
      <trkpt lat="43.89017" lon="6.87028">
        <ele>709</ele>
        <time>2009-07-09T08:40:10Z</time>
      </trkpt>
      <trkpt lat="43.89012" lon="6.87057">
        <ele>712</ele>
        <time>2009-07-09T08:40:30Z</time>
      </trkpt>
      <trkpt lat="43.89007" lon="6.87075">
        <ele>714</ele>
        <time>2009-07-09T08:40:42Z</time>
      </trkpt>
      <trkpt lat="43.89002" lon="6.871">
        <ele>717</ele>
        <time>2009-07-09T08:40:55Z</time>
      </trkpt>
      <trkpt lat="43.89008" lon="6.87128">
        <ele>720</ele>
        <time>2009-07-09T08:41:15Z</time>
      </trkpt>
      <trkpt lat="43.89008" lon="6.8713">
        <ele>720</ele>
        <time>2009-07-09T08:41:16Z</time>
      </trkpt>
      <trkpt lat="43.89015" lon="6.87177">
        <ele>722</ele>
        <time>2009-07-09T08:41:44Z</time>
      </trkpt>
      <trkpt lat="43.89017" lon="6.87202">
        <ele>725</ele>
        <time>2009-07-09T08:41:58Z</time>
      </trkpt>
      <trkpt lat="43.89025" lon="6.87223">
        <ele>726</ele>
        <time>2009-07-09T08:42:11Z</time>
      </trkpt>
      <trkpt lat="43.89038" lon="6.87245">
        <ele>727</ele>
        <time>2009-07-09T08:42:26Z</time>
      </trkpt>
      <trkpt lat="43.89048" lon="6.87258">
        <ele>728</ele>
        <time>2009-07-09T08:42:36Z</time>
      </trkpt>
      <trkpt lat="43.89057" lon="6.87278">
        <ele>731</ele>
        <time>2009-07-09T08:42:47Z</time>
      </trkpt>
      <trkpt lat="43.89058" lon="6.87303">
        <ele>732</ele>
        <time>2009-07-09T08:42:59Z</time>
      </trkpt>
      <trkpt lat="43.8906" lon="6.87305">
        <ele>733</ele>
        <time>2009-07-09T08:43:00Z</time>
      </trkpt>
      <trkpt lat="43.89073" lon="6.87312">
        <ele>735</ele>
        <time>2009-07-09T08:43:13Z</time>
      </trkpt>
      <trkpt lat="43.89083" lon="6.87312">
        <ele>735</ele>
        <time>2009-07-09T08:43:21Z</time>
      </trkpt>
      <trkpt lat="43.89113" lon="6.87337">
        <ele>733</ele>
        <time>2009-07-09T08:43:32Z</time>
      </trkpt>
      <trkpt lat="43.89115" lon="6.87348">
        <ele>734</ele>
        <time>2009-07-09T08:43:36Z</time>
      </trkpt>
      <trkpt lat="43.89117" lon="6.87363">
        <ele>736</ele>
        <time>2009-07-09T08:43:45Z</time>
      </trkpt>
      <trkpt lat="43.89113" lon="6.8738">
        <ele>738</ele>
        <time>2009-07-09T08:43:54Z</time>
      </trkpt>
      <trkpt lat="43.89102" lon="6.8741">
        <ele>742</ele>
        <time>2009-07-09T08:44:12Z</time>
      </trkpt>
      <trkpt lat="43.89097" lon="6.87417">
        <ele>743</ele>
        <time>2009-07-09T08:44:16Z</time>
      </trkpt>
      <trkpt lat="43.8909" lon="6.87432">
        <ele>746</ele>
        <time>2009-07-09T08:44:29Z</time>
      </trkpt>
      <trkpt lat="43.8909" lon="6.87443">
        <ele>748</ele>
        <time>2009-07-09T08:44:41Z</time>
      </trkpt>
      <trkpt lat="43.89083" lon="6.87487">
        <ele>751</ele>
        <time>2009-07-09T08:45:01Z</time>
      </trkpt>
      <trkpt lat="43.8908" lon="6.87518">
        <ele>753</ele>
        <time>2009-07-09T08:45:22Z</time>
      </trkpt>
      <trkpt lat="43.89073" lon="6.87542">
        <ele>753</ele>
        <time>2009-07-09T08:45:36Z</time>
      </trkpt>
      <trkpt lat="43.89058" lon="6.87572">
        <ele>752</ele>
        <time>2009-07-09T08:45:47Z</time>
      </trkpt>
      <trkpt lat="43.8906" lon="6.87608">
        <ele>750</ele>
        <time>2009-07-09T08:45:57Z</time>
      </trkpt>
      <trkpt lat="43.89067" lon="6.87637">
        <ele>750</ele>
        <time>2009-07-09T08:46:08Z</time>
      </trkpt>
      <trkpt lat="43.8907" lon="6.87665">
        <ele>751</ele>
        <time>2009-07-09T08:46:23Z</time>
      </trkpt>
      <trkpt lat="43.89077" lon="6.87688">
        <ele>752</ele>
        <time>2009-07-09T08:46:38Z</time>
      </trkpt>
      <trkpt lat="43.89087" lon="6.87708">
        <ele>753</ele>
        <time>2009-07-09T08:46:53Z</time>
      </trkpt>
      <trkpt lat="43.89088" lon="6.8771">
        <ele>754</ele>
        <time>2009-07-09T08:46:55Z</time>
      </trkpt>
      <trkpt lat="43.89093" lon="6.8772">
        <ele>755</ele>
        <time>2009-07-09T08:47:04Z</time>
      </trkpt>
      <trkpt lat="43.89098" lon="6.8774">
        <ele>757</ele>
        <time>2009-07-09T08:47:16Z</time>
      </trkpt>
      <trkpt lat="43.89097" lon="6.8775">
        <ele>758</ele>
        <time>2009-07-09T08:47:21Z</time>
      </trkpt>
      <trkpt lat="43.89097" lon="6.87765">
        <ele>760</ele>
        <time>2009-07-09T08:47:29Z</time>
      </trkpt>
      <trkpt lat="43.89092" lon="6.87788">
        <ele>762</ele>
        <time>2009-07-09T08:47:44Z</time>
      </trkpt>
      <trkpt lat="43.8909" lon="6.87805">
        <ele>762</ele>
        <time>2009-07-09T08:47:56Z</time>
      </trkpt>
      <trkpt lat="43.89093" lon="6.87837">
        <ele>762</ele>
        <time>2009-07-09T08:48:08Z</time>
      </trkpt>
      <trkpt lat="43.89107" lon="6.87872">
        <ele>760</ele>
        <time>2009-07-09T08:48:21Z</time>
      </trkpt>
      <trkpt lat="43.89115" lon="6.87895">
        <ele>757</ele>
        <time>2009-07-09T08:48:27Z</time>
      </trkpt>
      <trkpt lat="43.89115" lon="6.87905">
        <ele>756</ele>
        <time>2009-07-09T08:48:29Z</time>
      </trkpt>
      <trkpt lat="43.89117" lon="6.8791">
        <ele>755</ele>
        <time>2009-07-09T08:48:30Z</time>
      </trkpt>
      <trkpt lat="43.89117" lon="6.87923">
        <ele>754</ele>
        <time>2009-07-09T08:48:32Z</time>
      </trkpt>
      <trkpt lat="43.89115" lon="6.8796">
        <ele>752</ele>
        <time>2009-07-09T08:48:36Z</time>
      </trkpt>
      <trkpt lat="43.89117" lon="6.88018">
        <ele>753</ele>
        <time>2009-07-09T08:48:46Z</time>
      </trkpt>
      <trkpt lat="43.89125" lon="6.88065">
        <ele>754</ele>
        <time>2009-07-09T08:49:00Z</time>
      </trkpt>
      <trkpt lat="43.89125" lon="6.8809">
        <ele>753</ele>
        <time>2009-07-09T08:49:08Z</time>
      </trkpt>
      <trkpt lat="43.89127" lon="6.88098">
        <ele>754</ele>
        <time>2009-07-09T08:49:12Z</time>
      </trkpt>
      <trkpt lat="43.8913" lon="6.88128">
        <ele>757</ele>
        <time>2009-07-09T08:49:30Z</time>
      </trkpt>
      <trkpt lat="43.89133" lon="6.88153">
        <ele>758</ele>
        <time>2009-07-09T08:49:45Z</time>
      </trkpt>
      <trkpt lat="43.89133" lon="6.88157">
        <ele>759</ele>
        <time>2009-07-09T08:49:47Z</time>
      </trkpt>
      <trkpt lat="43.8912" lon="6.8818">
        <ele>760</ele>
        <time>2009-07-09T08:50:02Z</time>
      </trkpt>
      <trkpt lat="43.89108" lon="6.88202">
        <ele>762</ele>
        <time>2009-07-09T08:50:19Z</time>
      </trkpt>
      <trkpt lat="43.89107" lon="6.88212">
        <ele>763</ele>
        <time>2009-07-09T08:50:27Z</time>
      </trkpt>
      <trkpt lat="43.89105" lon="6.8822">
        <ele>763</ele>
        <time>2009-07-09T08:50:30Z</time>
      </trkpt>
      <trkpt lat="43.89105" lon="6.88227">
        <ele>764</ele>
        <time>2009-07-09T08:50:34Z</time>
      </trkpt>
      <trkpt lat="43.89107" lon="6.88247">
        <ele>766</ele>
        <time>2009-07-09T08:50:45Z</time>
      </trkpt>
      <trkpt lat="43.89107" lon="6.8826">
        <ele>766</ele>
        <time>2009-07-09T08:50:53Z</time>
      </trkpt>
      <trkpt lat="43.89105" lon="6.88265">
        <ele>766</ele>
        <time>2009-07-09T08:50:56Z</time>
      </trkpt>
      <trkpt lat="43.89102" lon="6.88272">
        <ele>767</ele>
        <time>2009-07-09T08:51:03Z</time>
      </trkpt>
      <trkpt lat="43.891" lon="6.88285">
        <ele>767</ele>
        <time>2009-07-09T08:51:10Z</time>
      </trkpt>
      <trkpt lat="43.89103" lon="6.88308">
        <ele>768</ele>
        <time>2009-07-09T08:51:23Z</time>
      </trkpt>
      <trkpt lat="43.89105" lon="6.88322">
        <ele>769</ele>
        <time>2009-07-09T08:51:31Z</time>
      </trkpt>
      <trkpt lat="43.89105" lon="6.8833">
        <ele>770</ele>
        <time>2009-07-09T08:51:36Z</time>
      </trkpt>
      <trkpt lat="43.89105" lon="6.88342">
        <ele>770</ele>
        <time>2009-07-09T08:51:53Z</time>
      </trkpt>
      <trkpt lat="43.89115" lon="6.88362">
        <ele>770</ele>
        <time>2009-07-09T08:53:11Z</time>
      </trkpt>
      <trkpt lat="43.89132" lon="6.88395">
        <ele>771</ele>
        <time>2009-07-09T08:53:25Z</time>
      </trkpt>
      <trkpt lat="43.89142" lon="6.88452">
        <ele>771</ele>
        <time>2009-07-09T08:53:40Z</time>
      </trkpt>
      <trkpt lat="43.89155" lon="6.8852">
        <ele>771</ele>
        <time>2009-07-09T08:53:55Z</time>
      </trkpt>
      <trkpt lat="43.89167" lon="6.88583">
        <ele>771</ele>
        <time>2009-07-09T08:54:08Z</time>
      </trkpt>
      <trkpt lat="43.89175" lon="6.88617">
        <ele>771</ele>
        <time>2009-07-09T08:54:16Z</time>
      </trkpt>
      <trkpt lat="43.89207" lon="6.88653">
        <ele>771</ele>
        <time>2009-07-09T08:54:28Z</time>
      </trkpt>
      <trkpt lat="43.89222" lon="6.88672">
        <ele>772</ele>
        <time>2009-07-09T08:54:36Z</time>
      </trkpt>
      <trkpt lat="43.89205" lon="6.88727">
        <ele>771</ele>
        <time>2009-07-09T08:54:49Z</time>
      </trkpt>
      <trkpt lat="43.89213" lon="6.88775">
        <ele>771</ele>
        <time>2009-07-09T08:55:00Z</time>
      </trkpt>
      <trkpt lat="43.8924" lon="6.88808">
        <ele>772</ele>
        <time>2009-07-09T08:55:12Z</time>
      </trkpt>
      <trkpt lat="43.89263" lon="6.88848">
        <ele>772</ele>
        <time>2009-07-09T08:55:25Z</time>
      </trkpt>
      <trkpt lat="43.89283" lon="6.88888">
        <ele>772</ele>
        <time>2009-07-09T08:55:37Z</time>
      </trkpt>
      <trkpt lat="43.89298" lon="6.88943">
        <ele>772</ele>
        <time>2009-07-09T08:55:50Z</time>
      </trkpt>
      <trkpt lat="43.8931" lon="6.88973">
        <ele>773</ele>
        <time>2009-07-09T08:55:58Z</time>
      </trkpt>
      <trkpt lat="43.89333" lon="6.89022">
        <ele>773</ele>
        <time>2009-07-09T08:56:12Z</time>
      </trkpt>
      <trkpt lat="43.89347" lon="6.89073">
        <ele>772</ele>
        <time>2009-07-09T08:56:24Z</time>
      </trkpt>
      <trkpt lat="43.89353" lon="6.89125">
        <ele>773</ele>
        <time>2009-07-09T08:56:35Z</time>
      </trkpt>
      <trkpt lat="43.89372" lon="6.89178">
        <ele>773</ele>
        <time>2009-07-09T08:56:48Z</time>
      </trkpt>
      <trkpt lat="43.89378" lon="6.89195">
        <ele>772</ele>
        <time>2009-07-09T08:56:52Z</time>
      </trkpt>
      <trkpt lat="43.89415" lon="6.89263">
        <ele>769</ele>
        <time>2009-07-09T08:57:07Z</time>
      </trkpt>
      <trkpt lat="43.89437" lon="6.89317">
        <ele>765</ele>
        <time>2009-07-09T08:57:14Z</time>
      </trkpt>
      <trkpt lat="43.89458" lon="6.89362">
        <ele>762</ele>
        <time>2009-07-09T08:57:20Z</time>
      </trkpt>
      <trkpt lat="43.89472" lon="6.89398">
        <ele>759</ele>
        <time>2009-07-09T08:57:24Z</time>
      </trkpt>
      <trkpt lat="43.89478" lon="6.89415">
        <ele>758</ele>
        <time>2009-07-09T08:57:26Z</time>
      </trkpt>
      <trkpt lat="43.8949" lon="6.89448">
        <ele>755</ele>
        <time>2009-07-09T08:57:30Z</time>
      </trkpt>
      <trkpt lat="43.89492" lon="6.89458">
        <ele>754</ele>
        <time>2009-07-09T08:57:31Z</time>
      </trkpt>
      <trkpt lat="43.89513" lon="6.895">
        <ele>750</ele>
        <time>2009-07-09T08:57:36Z</time>
      </trkpt>
      <trkpt lat="43.89528" lon="6.89537">
        <ele>747</ele>
        <time>2009-07-09T08:57:41Z</time>
      </trkpt>
      <trkpt lat="43.89542" lon="6.89597">
        <ele>743</ele>
        <time>2009-07-09T08:57:48Z</time>
      </trkpt>
      <trkpt lat="43.89545" lon="6.89618">
        <ele>742</ele>
        <time>2009-07-09T08:57:50Z</time>
      </trkpt>
      <trkpt lat="43.89547" lon="6.89627">
        <ele>741</ele>
        <time>2009-07-09T08:57:51Z</time>
      </trkpt>
      <trkpt lat="43.89562" lon="6.89682">
        <ele>737</ele>
        <time>2009-07-09T08:57:57Z</time>
      </trkpt>
      <trkpt lat="43.89565" lon="6.89697">
        <ele>736</ele>
        <time>2009-07-09T08:57:59Z</time>
      </trkpt>
      <trkpt lat="43.8957" lon="6.89738">
        <ele>732</ele>
        <time>2009-07-09T08:58:09Z</time>
      </trkpt>
      <trkpt lat="43.89572" lon="6.89747">
        <ele>731</ele>
        <time>2009-07-09T08:58:23Z</time>
      </trkpt>
      <trkpt lat="43.8957" lon="6.89747">
        <ele>732</ele>
        <time>2009-07-09T08:58:59Z</time>
      </trkpt>
      <trkpt lat="43.89562" lon="6.89753">
        <ele>736</ele>
        <time>2009-07-09T08:59:11Z</time>
      </trkpt>
      <trkpt lat="43.89555" lon="6.89757">
        <ele>738</ele>
        <time>2009-07-09T08:59:25Z</time>
      </trkpt>
      <trkpt lat="43.89543" lon="6.89763">
        <ele>742</ele>
        <time>2009-07-09T08:59:40Z</time>
      </trkpt>
      <trkpt lat="43.89537" lon="6.89772">
        <ele>745</ele>
        <time>2009-07-09T09:00:02Z</time>
      </trkpt>
      <trkpt lat="43.89532" lon="6.89772">
        <ele>748</ele>
        <time>2009-07-09T09:00:17Z</time>
      </trkpt>
      <trkpt lat="43.89528" lon="6.8977">
        <ele>750</ele>
        <time>2009-07-09T09:00:32Z</time>
      </trkpt>
      <trkpt lat="43.8952" lon="6.8978">
        <ele>753</ele>
        <time>2009-07-09T09:00:54Z</time>
      </trkpt>
      <trkpt lat="43.89515" lon="6.89792">
        <ele>756</ele>
        <time>2009-07-09T09:01:12Z</time>
      </trkpt>
      <trkpt lat="43.89508" lon="6.89803">
        <ele>759</ele>
        <time>2009-07-09T09:01:30Z</time>
      </trkpt>
      <trkpt lat="43.89502" lon="6.8982">
        <ele>762</ele>
        <time>2009-07-09T09:01:53Z</time>
      </trkpt>
      <trkpt lat="43.89497" lon="6.89795">
        <ele>764</ele>
        <time>2009-07-09T09:02:21Z</time>
      </trkpt>
      <trkpt lat="43.8949" lon="6.89807">
        <ele>768</ele>
        <time>2009-07-09T09:02:37Z</time>
      </trkpt>
      <trkpt lat="43.89482" lon="6.89812">
        <ele>771</ele>
        <time>2009-07-09T09:02:54Z</time>
      </trkpt>
      <trkpt lat="43.89475" lon="6.89827">
        <ele>774</ele>
        <time>2009-07-09T09:03:12Z</time>
      </trkpt>
      <trkpt lat="43.89473" lon="6.8984">
        <ele>777</ele>
        <time>2009-07-09T09:03:31Z</time>
      </trkpt>
      <trkpt lat="43.89472" lon="6.89847">
        <ele>780</ele>
        <time>2009-07-09T09:03:47Z</time>
      </trkpt>
      <trkpt lat="43.89465" lon="6.89832">
        <ele>784</ele>
        <time>2009-07-09T09:04:07Z</time>
      </trkpt>
      <trkpt lat="43.89462" lon="6.89822">
        <ele>787</ele>
        <time>2009-07-09T09:04:24Z</time>
      </trkpt>
      <trkpt lat="43.89455" lon="6.89838">
        <ele>788</ele>
        <time>2009-07-09T09:04:38Z</time>
      </trkpt>
      <trkpt lat="43.89452" lon="6.89855">
        <ele>792</ele>
        <time>2009-07-09T09:04:57Z</time>
      </trkpt>
      <trkpt lat="43.8945" lon="6.89865">
        <ele>794</ele>
        <time>2009-07-09T09:05:10Z</time>
      </trkpt>
      <trkpt lat="43.89443" lon="6.8987">
        <ele>796</ele>
        <time>2009-07-09T09:05:28Z</time>
      </trkpt>
      <trkpt lat="43.89438" lon="6.8988">
        <ele>799</ele>
        <time>2009-07-09T09:09:44Z</time>
      </trkpt>
      <trkpt lat="43.89433" lon="6.89867">
        <ele>801</ele>
        <time>2009-07-09T09:10:01Z</time>
      </trkpt>
      <trkpt lat="43.89432" lon="6.89862">
        <ele>803</ele>
        <time>2009-07-09T09:10:22Z</time>
      </trkpt>
      <trkpt lat="43.89427" lon="6.89878">
        <ele>806</ele>
        <time>2009-07-09T09:10:44Z</time>
      </trkpt>
      <trkpt lat="43.89423" lon="6.89887">
        <ele>809</ele>
        <time>2009-07-09T09:11:03Z</time>
      </trkpt>
      <trkpt lat="43.89417" lon="6.89902">
        <ele>812</ele>
        <time>2009-07-09T09:11:23Z</time>
      </trkpt>
      <trkpt lat="43.89418" lon="6.89902">
        <ele>815</ele>
        <time>2009-07-09T09:11:58Z</time>
      </trkpt>
      <trkpt lat="43.89415" lon="6.89897">
        <ele>818</ele>
        <time>2009-07-09T09:12:19Z</time>
      </trkpt>
      <trkpt lat="43.89417" lon="6.89903">
        <ele>820</ele>
        <time>2009-07-09T09:12:46Z</time>
      </trkpt>
      <trkpt lat="43.89408" lon="6.899">
        <ele>823</ele>
        <time>2009-07-09T09:13:04Z</time>
      </trkpt>
      <trkpt lat="43.894" lon="6.89908">
        <ele>826</ele>
        <time>2009-07-09T09:13:27Z</time>
      </trkpt>
      <trkpt lat="43.89395" lon="6.89922">
        <ele>829</ele>
        <time>2009-07-09T09:13:54Z</time>
      </trkpt>
      <trkpt lat="43.89393" lon="6.89937">
        <ele>832</ele>
        <time>2009-07-09T09:14:13Z</time>
      </trkpt>
      <trkpt lat="43.89388" lon="6.8996">
        <ele>834</ele>
        <time>2009-07-09T09:14:37Z</time>
      </trkpt>
      <trkpt lat="43.89388" lon="6.89963">
        <ele>836</ele>
        <time>2009-07-09T09:15:06Z</time>
      </trkpt>
      <trkpt lat="43.89387" lon="6.89987">
        <ele>836</ele>
        <time>2009-07-09T09:15:22Z</time>
      </trkpt>
      <trkpt lat="43.89387" lon="6.89995">
        <ele>836</ele>
        <time>2009-07-09T09:15:27Z</time>
      </trkpt>
      <trkpt lat="43.89385" lon="6.90013">
        <ele>836</ele>
        <time>2009-07-09T09:15:44Z</time>
      </trkpt>
      <trkpt lat="43.89383" lon="6.90027">
        <ele>838</ele>
        <time>2009-07-09T09:16:02Z</time>
      </trkpt>
      <trkpt lat="43.89383" lon="6.90037">
        <ele>840</ele>
        <time>2009-07-09T09:16:19Z</time>
      </trkpt>
      <trkpt lat="43.89382" lon="6.90057">
        <ele>843</ele>
        <time>2009-07-09T09:16:43Z</time>
      </trkpt>
      <trkpt lat="43.8938" lon="6.90072">
        <ele>847</ele>
        <time>2009-07-09T09:17:09Z</time>
      </trkpt>
      <trkpt lat="43.89378" lon="6.90093">
        <ele>849</ele>
        <time>2009-07-09T09:17:31Z</time>
      </trkpt>
      <trkpt lat="43.89377" lon="6.90108">
        <ele>852</ele>
        <time>2009-07-09T09:17:54Z</time>
      </trkpt>
      <trkpt lat="43.89373" lon="6.90122">
        <ele>855</ele>
        <time>2009-07-09T09:18:16Z</time>
      </trkpt>
      <trkpt lat="43.89372" lon="6.90143">
        <ele>859</ele>
        <time>2009-07-09T09:18:40Z</time>
      </trkpt>
      <trkpt lat="43.89368" lon="6.90162">
        <ele>861</ele>
        <time>2009-07-09T09:18:57Z</time>
      </trkpt>
      <trkpt lat="43.89367" lon="6.90178">
        <ele>862</ele>
        <time>2009-07-09T09:19:15Z</time>
      </trkpt>
      <trkpt lat="43.89367" lon="6.90193">
        <ele>864</ele>
        <time>2009-07-09T09:19:34Z</time>
      </trkpt>
      <trkpt lat="43.89363" lon="6.90217">
        <ele>867</ele>
        <time>2009-07-09T09:19:56Z</time>
      </trkpt>
      <trkpt lat="43.89363" lon="6.9023">
        <ele>869</ele>
        <time>2009-07-09T09:20:11Z</time>
      </trkpt>
      <trkpt lat="43.89362" lon="6.90253">
        <ele>871</ele>
        <time>2009-07-09T09:20:31Z</time>
      </trkpt>
      <trkpt lat="43.89358" lon="6.90258">
        <ele>872</ele>
        <time>2009-07-09T09:20:49Z</time>
      </trkpt>
      <trkpt lat="43.89355" lon="6.9027">
        <ele>875</ele>
        <time>2009-07-09T09:21:07Z</time>
      </trkpt>
      <trkpt lat="43.89353" lon="6.90275">
        <ele>877</ele>
        <time>2009-07-09T09:21:24Z</time>
      </trkpt>
      <trkpt lat="43.89343" lon="6.90282">
        <ele>880</ele>
        <time>2009-07-09T09:21:54Z</time>
      </trkpt>
      <trkpt lat="43.89333" lon="6.90288">
        <ele>883</ele>
        <time>2009-07-09T09:22:15Z</time>
      </trkpt>
      <trkpt lat="43.89327" lon="6.9029">
        <ele>886</ele>
        <time>2009-07-09T09:22:38Z</time>
      </trkpt>
      <trkpt lat="43.89317" lon="6.90303">
        <ele>889</ele>
        <time>2009-07-09T09:23:01Z</time>
      </trkpt>
      <trkpt lat="43.89315" lon="6.90303">
        <ele>891</ele>
        <time>2009-07-09T09:23:17Z</time>
      </trkpt>
      <trkpt lat="43.89313" lon="6.90303">
        <ele>894</ele>
        <time>2009-07-09T09:23:37Z</time>
      </trkpt>
      <trkpt lat="43.89307" lon="6.9031">
        <ele>895</ele>
        <time>2009-07-09T09:23:51Z</time>
      </trkpt>
      <trkpt lat="43.89298" lon="6.90317">
        <ele>895</ele>
        <time>2009-07-09T09:26:44Z</time>
      </trkpt>
      <trkpt lat="43.89297" lon="6.90313">
        <ele>895</ele>
        <time>2009-07-09T09:27:15Z</time>
      </trkpt>
      <trkpt lat="43.89293" lon="6.90303">
        <ele>895</ele>
        <time>2009-07-09T09:27:20Z</time>
      </trkpt>
      <trkpt lat="43.89287" lon="6.90302">
        <ele>893</ele>
        <time>2009-07-09T09:27:33Z</time>
      </trkpt>
      <trkpt lat="43.89285" lon="6.90305">
        <ele>892</ele>
        <time>2009-07-09T09:28:01Z</time>
      </trkpt>
      <trkpt lat="43.89282" lon="6.90307">
        <ele>891</ele>
        <time>2009-07-09T09:28:05Z</time>
      </trkpt>
      <trkpt lat="43.89277" lon="6.90312">
        <ele>890</ele>
        <time>2009-07-09T09:28:25Z</time>
      </trkpt>
      <trkpt lat="43.8928" lon="6.90307">
        <ele>892</ele>
        <time>2009-07-09T09:28:37Z</time>
      </trkpt>
      <trkpt lat="43.89288" lon="6.90297">
        <ele>895</ele>
        <time>2009-07-09T09:28:51Z</time>
      </trkpt>
      <trkpt lat="43.89282" lon="6.9026">
        <ele>895</ele>
        <time>2009-07-09T09:29:05Z</time>
      </trkpt>
      <trkpt lat="43.89275" lon="6.90245">
        <ele>895</ele>
        <time>2009-07-09T09:29:11Z</time>
      </trkpt>
      <trkpt lat="43.8925" lon="6.9021">
        <ele>894</ele>
        <time>2009-07-09T09:29:25Z</time>
      </trkpt>
      <trkpt lat="43.8924" lon="6.9019">
        <ele>891</ele>
        <time>2009-07-09T09:29:30Z</time>
      </trkpt>
      <trkpt lat="43.8923" lon="6.90178">
        <ele>889</ele>
        <time>2009-07-09T09:29:33Z</time>
      </trkpt>
      <trkpt lat="43.89183" lon="6.90133">
        <ele>886</ele>
        <time>2009-07-09T09:29:42Z</time>
      </trkpt>
      <trkpt lat="43.8918" lon="6.9013">
        <ele>885</ele>
        <time>2009-07-09T09:29:43Z</time>
      </trkpt>
      <trkpt lat="43.89177" lon="6.90122">
        <ele>884</ele>
        <time>2009-07-09T09:29:45Z</time>
      </trkpt>
      <trkpt lat="43.8918" lon="6.90097">
        <ele>882</ele>
        <time>2009-07-09T09:29:50Z</time>
      </trkpt>
      <trkpt lat="43.89183" lon="6.90088">
        <ele>881</ele>
        <time>2009-07-09T09:29:52Z</time>
      </trkpt>
      <trkpt lat="43.89182" lon="6.9006">
        <ele>878</ele>
        <time>2009-07-09T09:29:56Z</time>
      </trkpt>
      <trkpt lat="43.89163" lon="6.90027">
        <ele>875</ele>
        <time>2009-07-09T09:30:01Z</time>
      </trkpt>
      <trkpt lat="43.89148" lon="6.90007">
        <ele>873</ele>
        <time>2009-07-09T09:30:06Z</time>
      </trkpt>
      <trkpt lat="43.89147" lon="6.8999">
        <ele>871</ele>
        <time>2009-07-09T09:30:09Z</time>
      </trkpt>
      <trkpt lat="43.89125" lon="6.89962">
        <ele>866</ele>
        <time>2009-07-09T09:30:16Z</time>
      </trkpt>
      <trkpt lat="43.8912" lon="6.8996">
        <ele>866</ele>
        <time>2009-07-09T09:30:17Z</time>
      </trkpt>
      <trkpt lat="43.89105" lon="6.89958">
        <ele>864</ele>
        <time>2009-07-09T09:30:20Z</time>
      </trkpt>
      <trkpt lat="43.89087" lon="6.89945">
        <ele>863</ele>
        <time>2009-07-09T09:30:25Z</time>
      </trkpt>
      <trkpt lat="43.89082" lon="6.89937">
        <ele>862</ele>
        <time>2009-07-09T09:30:27Z</time>
      </trkpt>
      <trkpt lat="43.89072" lon="6.8993">
        <ele>861</ele>
        <time>2009-07-09T09:30:29Z</time>
      </trkpt>
      <trkpt lat="43.89048" lon="6.89932">
        <ele>861</ele>
        <time>2009-07-09T09:30:34Z</time>
      </trkpt>
      <trkpt lat="43.89033" lon="6.89937">
        <ele>860</ele>
        <time>2009-07-09T09:30:37Z</time>
      </trkpt>
      <trkpt lat="43.89015" lon="6.89953">
        <ele>859</ele>
        <time>2009-07-09T09:30:42Z</time>
      </trkpt>
      <trkpt lat="43.88993" lon="6.89943">
        <ele>855</ele>
        <time>2009-07-09T09:30:50Z</time>
      </trkpt>
      <trkpt lat="43.88977" lon="6.8993">
        <ele>852</ele>
        <time>2009-07-09T09:30:57Z</time>
      </trkpt>
      <trkpt lat="43.88968" lon="6.89922">
        <ele>850</ele>
        <time>2009-07-09T09:31:01Z</time>
      </trkpt>
      <trkpt lat="43.88955" lon="6.899">
        <ele>847</ele>
        <time>2009-07-09T09:31:08Z</time>
      </trkpt>
      <trkpt lat="43.88943" lon="6.89877">
        <ele>845</ele>
        <time>2009-07-09T09:31:13Z</time>
      </trkpt>
      <trkpt lat="43.88937" lon="6.8985">
        <ele>841</ele>
        <time>2009-07-09T09:31:19Z</time>
      </trkpt>
      <trkpt lat="43.88937" lon="6.89833">
        <ele>839</ele>
        <time>2009-07-09T09:31:22Z</time>
      </trkpt>
      <trkpt lat="43.88938" lon="6.89817">
        <ele>837</ele>
        <time>2009-07-09T09:31:25Z</time>
      </trkpt>
      <trkpt lat="43.88927" lon="6.89802">
        <ele>837</ele>
        <time>2009-07-09T09:31:30Z</time>
      </trkpt>
      <trkpt lat="43.88902" lon="6.89787">
        <ele>834</ele>
        <time>2009-07-09T09:31:37Z</time>
      </trkpt>
      <trkpt lat="43.88895" lon="6.89775">
        <ele>832</ele>
        <time>2009-07-09T09:31:41Z</time>
      </trkpt>
      <trkpt lat="43.88892" lon="6.89772">
        <ele>831</ele>
        <time>2009-07-09T09:31:47Z</time>
      </trkpt>
      <trkpt lat="43.88885" lon="6.89773">
        <ele>830</ele>
        <time>2009-07-09T09:31:51Z</time>
      </trkpt>
      <trkpt lat="43.88865" lon="6.89778">
        <ele>825</ele>
        <time>2009-07-09T09:31:56Z</time>
      </trkpt>
      <trkpt lat="43.8885" lon="6.89775">
        <ele>823</ele>
        <time>2009-07-09T09:32:00Z</time>
      </trkpt>
      <trkpt lat="43.88833" lon="6.8977">
        <ele>820</ele>
        <time>2009-07-09T09:32:05Z</time>
      </trkpt>
      <trkpt lat="43.8882" lon="6.89767">
        <ele>818</ele>
        <time>2009-07-09T09:32:08Z</time>
      </trkpt>
      <trkpt lat="43.88798" lon="6.89762">
        <ele>815</ele>
        <time>2009-07-09T09:32:12Z</time>
      </trkpt>
      <trkpt lat="43.88787" lon="6.8975">
        <ele>813</ele>
        <time>2009-07-09T09:32:15Z</time>
      </trkpt>
      <trkpt lat="43.88768" lon="6.89728">
        <ele>809</ele>
        <time>2009-07-09T09:32:24Z</time>
      </trkpt>
      <trkpt lat="43.88767" lon="6.89732">
        <ele>809</ele>
        <time>2009-07-09T09:32:25Z</time>
      </trkpt>
      <trkpt lat="43.88762" lon="6.8976">
        <ele>805</ele>
        <time>2009-07-09T09:32:30Z</time>
      </trkpt>
      <trkpt lat="43.8877" lon="6.89785">
        <ele>801</ele>
        <time>2009-07-09T09:32:34Z</time>
      </trkpt>
      <trkpt lat="43.88772" lon="6.89812">
        <ele>799</ele>
        <time>2009-07-09T09:32:39Z</time>
      </trkpt>
      <trkpt lat="43.8875" lon="6.89813">
        <ele>796</ele>
        <time>2009-07-09T09:32:47Z</time>
      </trkpt>
      <trkpt lat="43.88747" lon="6.89813">
        <ele>795</ele>
        <time>2009-07-09T09:32:48Z</time>
      </trkpt>
      <trkpt lat="43.88728" lon="6.89818">
        <ele>793</ele>
        <time>2009-07-09T09:32:52Z</time>
      </trkpt>
      <trkpt lat="43.88717" lon="6.8982">
        <ele>790</ele>
        <time>2009-07-09T09:32:55Z</time>
      </trkpt>
      <trkpt lat="43.8869" lon="6.89828">
        <ele>787</ele>
        <time>2009-07-09T09:33:01Z</time>
      </trkpt>
      <trkpt lat="43.8868" lon="6.89832">
        <ele>785</ele>
        <time>2009-07-09T09:33:03Z</time>
      </trkpt>
      <trkpt lat="43.88657" lon="6.89845">
        <ele>781</ele>
        <time>2009-07-09T09:33:08Z</time>
      </trkpt>
      <trkpt lat="43.88637" lon="6.89857">
        <ele>778</ele>
        <time>2009-07-09T09:33:15Z</time>
      </trkpt>
      <trkpt lat="43.88635" lon="6.89858">
        <ele>778</ele>
        <time>2009-07-09T09:33:16Z</time>
      </trkpt>
      <trkpt lat="43.8863" lon="6.89857">
        <ele>777</ele>
        <time>2009-07-09T09:33:29Z</time>
      </trkpt>
      <trkpt lat="43.88628" lon="6.89858">
        <ele>777</ele>
        <time>2009-07-09T09:33:44Z</time>
      </trkpt>
      <trkpt lat="43.88622" lon="6.8987">
        <ele>775</ele>
        <time>2009-07-09T09:33:48Z</time>
      </trkpt>
      <trkpt lat="43.88615" lon="6.899">
        <ele>774</ele>
        <time>2009-07-09T09:33:53Z</time>
      </trkpt>
      <trkpt lat="43.88618" lon="6.89913">
        <ele>773</ele>
        <time>2009-07-09T09:33:55Z</time>
      </trkpt>
      <trkpt lat="43.88622" lon="6.89933">
        <ele>770</ele>
        <time>2009-07-09T09:33:58Z</time>
      </trkpt>
      <trkpt lat="43.88617" lon="6.89955">
        <ele>767</ele>
        <time>2009-07-09T09:34:02Z</time>
      </trkpt>
      <trkpt lat="43.8861" lon="6.89973">
        <ele>764</ele>
        <time>2009-07-09T09:34:05Z</time>
      </trkpt>
      <trkpt lat="43.88603" lon="6.89998">
        <ele>759</ele>
        <time>2009-07-09T09:34:10Z</time>
      </trkpt>
      <trkpt lat="43.88602" lon="6.90003">
        <ele>758</ele>
        <time>2009-07-09T09:34:11Z</time>
      </trkpt>
      <trkpt lat="43.88597" lon="6.90015">
        <ele>756</ele>
        <time>2009-07-09T09:34:13Z</time>
      </trkpt>
      <trkpt lat="43.88575" lon="6.90035">
        <ele>751</ele>
        <time>2009-07-09T09:34:19Z</time>
      </trkpt>
      <trkpt lat="43.88563" lon="6.90052">
        <ele>748</ele>
        <time>2009-07-09T09:34:23Z</time>
      </trkpt>
      <trkpt lat="43.8856" lon="6.90058">
        <ele>748</ele>
        <time>2009-07-09T09:34:24Z</time>
      </trkpt>
      <trkpt lat="43.8854" lon="6.9008">
        <ele>744</ele>
        <time>2009-07-09T09:34:28Z</time>
      </trkpt>
      <trkpt lat="43.88517" lon="6.90102">
        <ele>740</ele>
        <time>2009-07-09T09:34:32Z</time>
      </trkpt>
      <trkpt lat="43.88503" lon="6.9011">
        <ele>738</ele>
        <time>2009-07-09T09:34:34Z</time>
      </trkpt>
      <trkpt lat="43.8849" lon="6.90115">
        <ele>737</ele>
        <time>2009-07-09T09:34:36Z</time>
      </trkpt>
      <trkpt lat="43.88465" lon="6.90137">
        <ele>733</ele>
        <time>2009-07-09T09:34:42Z</time>
      </trkpt>
      <trkpt lat="43.88463" lon="6.90135">
        <ele>733</ele>
        <time>2009-07-09T09:34:43Z</time>
      </trkpt>
      <trkpt lat="43.88457" lon="6.90133">
        <ele>732</ele>
        <time>2009-07-09T09:34:47Z</time>
      </trkpt>
      <trkpt lat="43.88455" lon="6.9014">
        <ele>732</ele>
        <time>2009-07-09T09:35:02Z</time>
      </trkpt>
      <trkpt lat="43.88455" lon="6.90142">
        <ele>731</ele>
        <time>2009-07-09T09:36:44Z</time>
      </trkpt>
      <trkpt lat="43.88465" lon="6.90197">
        <ele>729</ele>
        <time>2009-07-09T09:36:57Z</time>
      </trkpt>
      <trkpt lat="43.88463" lon="6.90247">
        <ele>727</ele>
        <time>2009-07-09T09:37:03Z</time>
      </trkpt>
      <trkpt lat="43.88452" lon="6.90325">
        <ele>727</ele>
        <time>2009-07-09T09:37:16Z</time>
      </trkpt>
      <trkpt lat="43.88437" lon="6.90397">
        <ele>726</ele>
        <time>2009-07-09T09:37:27Z</time>
      </trkpt>
      <trkpt lat="43.88447" lon="6.90445">
        <ele>727</ele>
        <time>2009-07-09T09:37:34Z</time>
      </trkpt>
      <trkpt lat="43.88453" lon="6.9053">
        <ele>727</ele>
        <time>2009-07-09T09:37:47Z</time>
      </trkpt>
      <trkpt lat="43.88447" lon="6.90597">
        <ele>728</ele>
        <time>2009-07-09T09:37:58Z</time>
      </trkpt>
      <trkpt lat="43.88438" lon="6.90648">
        <ele>730</ele>
        <time>2009-07-09T09:38:09Z</time>
      </trkpt>
      <trkpt lat="43.88423" lon="6.90702">
        <ele>732</ele>
        <time>2009-07-09T09:38:22Z</time>
      </trkpt>
      <trkpt lat="43.88405" lon="6.90747">
        <ele>735</ele>
        <time>2009-07-09T09:38:33Z</time>
      </trkpt>
      <trkpt lat="43.88382" lon="6.9077">
        <ele>737</ele>
        <time>2009-07-09T09:38:44Z</time>
      </trkpt>
      <trkpt lat="43.88373" lon="6.90797">
        <ele>737</ele>
        <time>2009-07-09T09:38:53Z</time>
      </trkpt>
      <trkpt lat="43.88372" lon="6.90825">
        <ele>737</ele>
        <time>2009-07-09T09:39:06Z</time>
      </trkpt>
      <trkpt lat="43.88375" lon="6.9084">
        <ele>737</ele>
        <time>2009-07-09T09:39:20Z</time>
      </trkpt>
      <trkpt lat="43.88378" lon="6.90828">
        <ele>737</ele>
        <time>2009-07-09T09:39:24Z</time>
      </trkpt>
      <trkpt lat="43.88375" lon="6.90798">
        <ele>737</ele>
        <time>2009-07-09T09:39:38Z</time>
      </trkpt>
      <trkpt lat="43.88375" lon="6.90797">
        <ele>737</ele>
        <time>2009-07-09T09:40:14Z</time>
      </trkpt>
      <trkpt lat="43.88373" lon="6.90807">
        <ele>738</ele>
        <time>2009-07-09T09:46:18Z</time>
      </trkpt>
      <trkpt lat="43.88372" lon="6.9086">
        <ele>737</ele>
        <time>2009-07-09T09:46:33Z</time>
      </trkpt>
      <trkpt lat="43.88375" lon="6.90902">
        <ele>735</ele>
        <time>2009-07-09T09:46:39Z</time>
      </trkpt>
      <trkpt lat="43.88377" lon="6.9094">
        <ele>733</ele>
        <time>2009-07-09T09:46:43Z</time>
      </trkpt>
      <trkpt lat="43.88377" lon="6.90948">
        <ele>733</ele>
        <time>2009-07-09T09:46:44Z</time>
      </trkpt>
      <trkpt lat="43.88358" lon="6.90997">
        <ele>729</ele>
        <time>2009-07-09T09:46:52Z</time>
      </trkpt>
      <trkpt lat="43.88355" lon="6.91013">
        <ele>726</ele>
        <time>2009-07-09T09:46:54Z</time>
      </trkpt>
      <trkpt lat="43.88357" lon="6.91048">
        <ele>722</ele>
        <time>2009-07-09T09:46:58Z</time>
      </trkpt>
      <trkpt lat="43.88358" lon="6.91068">
        <ele>720</ele>
        <time>2009-07-09T09:47:00Z</time>
      </trkpt>
      <trkpt lat="43.8836" lon="6.91115">
        <ele>715</ele>
        <time>2009-07-09T09:47:04Z</time>
      </trkpt>
      <trkpt lat="43.88367" lon="6.91228">
        <ele>713</ele>
        <time>2009-07-09T09:47:13Z</time>
      </trkpt>
      <trkpt lat="43.8838" lon="6.91282">
        <ele>710</ele>
        <time>2009-07-09T09:47:18Z</time>
      </trkpt>
      <trkpt lat="43.88392" lon="6.91328">
        <ele>707</ele>
        <time>2009-07-09T09:47:22Z</time>
      </trkpt>
      <trkpt lat="43.88402" lon="6.91387">
        <ele>703</ele>
        <time>2009-07-09T09:47:27Z</time>
      </trkpt>
      <trkpt lat="43.88403" lon="6.91412">
        <ele>702</ele>
        <time>2009-07-09T09:47:30Z</time>
      </trkpt>
      <trkpt lat="43.88412" lon="6.91437">
        <ele>700</ele>
        <time>2009-07-09T09:47:34Z</time>
      </trkpt>
      <trkpt lat="43.88413" lon="6.91445">
        <ele>699</ele>
        <time>2009-07-09T09:47:36Z</time>
      </trkpt>
      <trkpt lat="43.8842" lon="6.91467">
        <ele>698</ele>
        <time>2009-07-09T09:47:40Z</time>
      </trkpt>
      <trkpt lat="43.8843" lon="6.915">
        <ele>695</ele>
        <time>2009-07-09T09:47:46Z</time>
      </trkpt>
      <trkpt lat="43.88438" lon="6.91528">
        <ele>693</ele>
        <time>2009-07-09T09:47:51Z</time>
      </trkpt>
      <trkpt lat="43.88442" lon="6.9156">
        <ele>691</ele>
        <time>2009-07-09T09:47:55Z</time>
      </trkpt>
      <trkpt lat="43.88445" lon="6.91602">
        <ele>688</ele>
        <time>2009-07-09T09:48:02Z</time>
      </trkpt>
      <trkpt lat="43.88445" lon="6.91608">
        <ele>687</ele>
        <time>2009-07-09T09:48:03Z</time>
      </trkpt>
      <trkpt lat="43.8845" lon="6.91632">
        <ele>687</ele>
        <time>2009-07-09T09:48:07Z</time>
      </trkpt>
      <trkpt lat="43.8845" lon="6.9167">
        <ele>684</ele>
        <time>2009-07-09T09:48:18Z</time>
      </trkpt>
      <trkpt lat="43.88455" lon="6.91713">
        <ele>681</ele>
        <time>2009-07-09T09:48:29Z</time>
      </trkpt>
      <trkpt lat="43.88435" lon="6.91755">
        <ele>677</ele>
        <time>2009-07-09T09:48:40Z</time>
      </trkpt>
      <trkpt lat="43.88428" lon="6.91775">
        <ele>676</ele>
        <time>2009-07-09T09:48:55Z</time>
      </trkpt>
      <trkpt lat="43.88428" lon="6.91783">
        <ele>675</ele>
        <time>2009-07-09T09:49:00Z</time>
      </trkpt>
      <trkpt lat="43.88427" lon="6.91793">
        <ele>675</ele>
        <time>2009-07-09T09:49:19Z</time>
      </trkpt>
      <trkpt lat="43.88425" lon="6.91798">
        <ele>674</ele>
        <time>2009-07-09T09:49:27Z</time>
      </trkpt>
      <trkpt lat="43.88428" lon="6.91837">
        <ele>672</ele>
        <time>2009-07-09T09:49:34Z</time>
      </trkpt>
      <trkpt lat="43.88428" lon="6.91852">
        <ele>671</ele>
        <time>2009-07-09T09:49:36Z</time>
      </trkpt>
      <trkpt lat="43.88422" lon="6.919">
        <ele>668</ele>
        <time>2009-07-09T09:49:42Z</time>
      </trkpt>
      <trkpt lat="43.88423" lon="6.9193">
        <ele>666</ele>
        <time>2009-07-09T09:49:46Z</time>
      </trkpt>
      <trkpt lat="43.88423" lon="6.91942">
        <ele>665</ele>
        <time>2009-07-09T09:49:48Z</time>
      </trkpt>
      <trkpt lat="43.88393" lon="6.91973">
        <ele>663</ele>
        <time>2009-07-09T09:49:54Z</time>
      </trkpt>
      <trkpt lat="43.88377" lon="6.91985">
        <ele>662</ele>
        <time>2009-07-09T09:49:58Z</time>
      </trkpt>
      <trkpt lat="43.88358" lon="6.92028">
        <ele>659</ele>
        <time>2009-07-09T09:50:07Z</time>
      </trkpt>
      <trkpt lat="43.88355" lon="6.92057">
        <ele>658</ele>
        <time>2009-07-09T09:50:17Z</time>
      </trkpt>
      <trkpt lat="43.88353" lon="6.92057">
        <ele>658</ele>
        <time>2009-07-09T09:51:52Z</time>
      </trkpt>
      <trkpt lat="43.8832" lon="6.92068">
        <ele>657</ele>
        <time>2009-07-09T09:52:05Z</time>
      </trkpt>
      <trkpt lat="43.88283" lon="6.92082">
        <ele>656</ele>
        <time>2009-07-09T09:52:16Z</time>
      </trkpt>
      <trkpt lat="43.88238" lon="6.92092">
        <ele>656</ele>
        <time>2009-07-09T09:52:30Z</time>
      </trkpt>
      <trkpt lat="43.88213" lon="6.92113">
        <ele>656</ele>
        <time>2009-07-09T09:52:40Z</time>
      </trkpt>
      <trkpt lat="43.882" lon="6.92143">
        <ele>656</ele>
        <time>2009-07-09T09:52:46Z</time>
      </trkpt>
      <trkpt lat="43.8817" lon="6.92192">
        <ele>658</ele>
        <time>2009-07-09T09:52:59Z</time>
      </trkpt>
      <trkpt lat="43.88162" lon="6.92233">
        <ele>659</ele>
        <time>2009-07-09T09:53:10Z</time>
      </trkpt>
      <trkpt lat="43.88152" lon="6.92277">
        <ele>657</ele>
        <time>2009-07-09T09:53:19Z</time>
      </trkpt>
      <trkpt lat="43.88143" lon="6.92305">
        <ele>654</ele>
        <time>2009-07-09T09:53:23Z</time>
      </trkpt>
      <trkpt lat="43.88145" lon="6.92343">
        <ele>652</ele>
        <time>2009-07-09T09:53:28Z</time>
      </trkpt>
      <trkpt lat="43.88142" lon="6.9236">
        <ele>651</ele>
        <time>2009-07-09T09:53:30Z</time>
      </trkpt>
      <trkpt lat="43.88145" lon="6.92387">
        <ele>650</ele>
        <time>2009-07-09T09:53:34Z</time>
      </trkpt>
      <trkpt lat="43.88152" lon="6.92397">
        <ele>650</ele>
        <time>2009-07-09T09:53:36Z</time>
      </trkpt>
      <trkpt lat="43.88147" lon="6.92435">
        <ele>648</ele>
        <time>2009-07-09T09:53:44Z</time>
      </trkpt>
      <trkpt lat="43.88125" lon="6.92457">
        <ele>646</ele>
        <time>2009-07-09T09:53:49Z</time>
      </trkpt>
      <trkpt lat="43.88097" lon="6.92513">
        <ele>644</ele>
        <time>2009-07-09T09:53:58Z</time>
      </trkpt>
      <trkpt lat="43.88098" lon="6.92562">
        <ele>645</ele>
        <time>2009-07-09T09:54:07Z</time>
      </trkpt>
      <trkpt lat="43.88095" lon="6.92578">
        <ele>645</ele>
        <time>2009-07-09T09:54:10Z</time>
      </trkpt>
      <trkpt lat="43.88093" lon="6.92605">
        <ele>643</ele>
        <time>2009-07-09T09:54:14Z</time>
      </trkpt>
      <trkpt lat="43.88095" lon="6.9266">
        <ele>645</ele>
        <time>2009-07-09T09:54:24Z</time>
      </trkpt>
      <trkpt lat="43.88095" lon="6.92677">
        <ele>644</ele>
        <time>2009-07-09T09:54:27Z</time>
      </trkpt>
      <trkpt lat="43.881" lon="6.92712">
        <ele>643</ele>
        <time>2009-07-09T09:54:32Z</time>
      </trkpt>
      <trkpt lat="43.8812" lon="6.92768">
        <ele>638</ele>
        <time>2009-07-09T09:54:41Z</time>
      </trkpt>
      <trkpt lat="43.88127" lon="6.92785">
        <ele>638</ele>
        <time>2009-07-09T09:54:43Z</time>
      </trkpt>
      <trkpt lat="43.88123" lon="6.92815">
        <ele>638</ele>
        <time>2009-07-09T09:54:48Z</time>
      </trkpt>
      <trkpt lat="43.88092" lon="6.92852">
        <ele>642</ele>
        <time>2009-07-09T09:54:58Z</time>
      </trkpt>
      <trkpt lat="43.88082" lon="6.92895">
        <ele>641</ele>
        <time>2009-07-09T09:55:08Z</time>
      </trkpt>
      <trkpt lat="43.88075" lon="6.92943">
        <ele>639</ele>
        <time>2009-07-09T09:55:15Z</time>
      </trkpt>
      <trkpt lat="43.88067" lon="6.92975">
        <ele>638</ele>
        <time>2009-07-09T09:55:20Z</time>
      </trkpt>
      <trkpt lat="43.88057" lon="6.93033">
        <ele>639</ele>
        <time>2009-07-09T09:55:31Z</time>
      </trkpt>
      <trkpt lat="43.8805" lon="6.93072">
        <ele>639</ele>
        <time>2009-07-09T09:55:37Z</time>
      </trkpt>
      <trkpt lat="43.88053" lon="6.93128">
        <ele>639</ele>
        <time>2009-07-09T09:55:49Z</time>
      </trkpt>
      <trkpt lat="43.88048" lon="6.9318">
        <ele>639</ele>
        <time>2009-07-09T09:56:00Z</time>
      </trkpt>
      <trkpt lat="43.88062" lon="6.93208">
        <ele>637</ele>
        <time>2009-07-09T09:56:09Z</time>
      </trkpt>
      <trkpt lat="43.88067" lon="6.93213">
        <ele>636</ele>
        <time>2009-07-09T09:56:10Z</time>
      </trkpt>
      <trkpt lat="43.8808" lon="6.93223">
        <ele>633</ele>
        <time>2009-07-09T09:56:13Z</time>
      </trkpt>
      <trkpt lat="43.88103" lon="6.93235">
        <ele>630</ele>
        <time>2009-07-09T09:56:17Z</time>
      </trkpt>
      <trkpt lat="43.88118" lon="6.93265">
        <ele>625</ele>
        <time>2009-07-09T09:56:22Z</time>
      </trkpt>
      <trkpt lat="43.88125" lon="6.9328">
        <ele>624</ele>
        <time>2009-07-09T09:56:24Z</time>
      </trkpt>
      <trkpt lat="43.88137" lon="6.93303">
        <ele>620</ele>
        <time>2009-07-09T09:56:28Z</time>
      </trkpt>
      <trkpt lat="43.88137" lon="6.9333">
        <ele>616</ele>
        <time>2009-07-09T09:56:31Z</time>
      </trkpt>
      <trkpt lat="43.88135" lon="6.93375">
        <ele>613</ele>
        <time>2009-07-09T09:56:36Z</time>
      </trkpt>
      <trkpt lat="43.8814" lon="6.93405">
        <ele>611</ele>
        <time>2009-07-09T09:56:44Z</time>
      </trkpt>
      <trkpt lat="43.8814" lon="6.9343">
        <ele>609</ele>
        <time>2009-07-09T09:56:49Z</time>
      </trkpt>
      <trkpt lat="43.88158" lon="6.9343">
        <ele>607</ele>
        <time>2009-07-09T09:56:56Z</time>
      </trkpt>
      <trkpt lat="43.88165" lon="6.93433">
        <ele>606</ele>
        <time>2009-07-09T09:57:01Z</time>
      </trkpt>
      <trkpt lat="43.88167" lon="6.9344">
        <ele>603</ele>
        <time>2009-07-09T09:57:05Z</time>
      </trkpt>
      <trkpt lat="43.88185" lon="6.93457">
        <ele>600</ele>
        <time>2009-07-09T09:57:11Z</time>
      </trkpt>
      <trkpt lat="43.88217" lon="6.93455">
        <ele>597</ele>
        <time>2009-07-09T09:57:21Z</time>
      </trkpt>
      <trkpt lat="43.88218" lon="6.93457">
        <ele>597</ele>
        <time>2009-07-09T09:57:22Z</time>
      </trkpt>
      <trkpt lat="43.8822" lon="6.9348">
        <ele>595</ele>
        <time>2009-07-09T09:57:27Z</time>
      </trkpt>
      <trkpt lat="43.8822" lon="6.93505">
        <ele>593</ele>
        <time>2009-07-09T09:57:32Z</time>
      </trkpt>
      <trkpt lat="43.8822" lon="6.93508">
        <ele>593</ele>
        <time>2009-07-09T09:57:33Z</time>
      </trkpt>
      <trkpt lat="43.88193" lon="6.93563">
        <ele>594</ele>
        <time>2009-07-09T09:57:46Z</time>
      </trkpt>
      <trkpt lat="43.88188" lon="6.9357">
        <ele>595</ele>
        <time>2009-07-09T09:58:13Z</time>
      </trkpt>
      <trkpt lat="43.88193" lon="6.9357">
        <ele>594</ele>
        <time>2009-07-09T09:58:45Z</time>
      </trkpt>
      <trkpt lat="43.88203" lon="6.93573">
        <ele>591</ele>
        <time>2009-07-09T09:58:49Z</time>
      </trkpt>
      <trkpt lat="43.88228" lon="6.93573">
        <ele>590</ele>
        <time>2009-07-09T09:58:55Z</time>
      </trkpt>
      <trkpt lat="43.88228" lon="6.93595">
        <ele>589</ele>
        <time>2009-07-09T09:59:05Z</time>
      </trkpt>
      <trkpt lat="43.88213" lon="6.93642">
        <ele>589</ele>
        <time>2009-07-09T09:59:21Z</time>
      </trkpt>
      <trkpt lat="43.88208" lon="6.93662">
        <ele>590</ele>
        <time>2009-07-09T09:59:52Z</time>
      </trkpt>
      <trkpt lat="43.88205" lon="6.93665">
        <ele>591</ele>
        <time>2009-07-09T10:02:49Z</time>
      </trkpt>
      <trkpt lat="43.88198" lon="6.93673">
        <ele>592</ele>
        <time>2009-07-09T10:03:11Z</time>
      </trkpt>
      <trkpt lat="43.88183" lon="6.93697">
        <ele>592</ele>
        <time>2009-07-09T10:03:50Z</time>
      </trkpt>
      <trkpt lat="43.88193" lon="6.93688">
        <ele>592</ele>
        <time>2009-07-09T10:04:14Z</time>
      </trkpt>
      <trkpt lat="43.88193" lon="6.9369">
        <ele>593</ele>
        <time>2009-07-09T10:04:41Z</time>
      </trkpt>
      <trkpt lat="43.8819" lon="6.93707">
        <ele>594</ele>
        <time>2009-07-09T10:05:01Z</time>
      </trkpt>
      <trkpt lat="43.8819" lon="6.93727">
        <ele>596</ele>
        <time>2009-07-09T10:05:27Z</time>
      </trkpt>
      <trkpt lat="43.88182" lon="6.93732">
        <ele>598</ele>
        <time>2009-07-09T10:05:40Z</time>
      </trkpt>
      <trkpt lat="43.88168" lon="6.93743">
        <ele>599</ele>
        <time>2009-07-09T10:06:00Z</time>
      </trkpt>
      <trkpt lat="43.8816" lon="6.93743">
        <ele>600</ele>
        <time>2009-07-09T10:06:14Z</time>
      </trkpt>
      <trkpt lat="43.88143" lon="6.93743">
        <ele>603</ele>
        <time>2009-07-09T10:06:37Z</time>
      </trkpt>
      <trkpt lat="43.88127" lon="6.93747">
        <ele>605</ele>
        <time>2009-07-09T10:07:00Z</time>
      </trkpt>
      <trkpt lat="43.88122" lon="6.93753">
        <ele>606</ele>
        <time>2009-07-09T10:07:07Z</time>
      </trkpt>
      <trkpt lat="43.88108" lon="6.93763">
        <ele>608</ele>
        <time>2009-07-09T10:07:22Z</time>
      </trkpt>
      <trkpt lat="43.88098" lon="6.93767">
        <ele>610</ele>
        <time>2009-07-09T10:07:34Z</time>
      </trkpt>
      <trkpt lat="43.88097" lon="6.93782">
        <ele>613</ele>
        <time>2009-07-09T10:07:49Z</time>
      </trkpt>
      <trkpt lat="43.88092" lon="6.93797">
        <ele>616</ele>
        <time>2009-07-09T10:08:03Z</time>
      </trkpt>
      <trkpt lat="43.88085" lon="6.93802">
        <ele>619</ele>
        <time>2009-07-09T10:08:21Z</time>
      </trkpt>
      <trkpt lat="43.88067" lon="6.9383">
        <ele>623</ele>
        <time>2009-07-09T10:08:39Z</time>
      </trkpt>
      <trkpt lat="43.88062" lon="6.9384">
        <ele>625</ele>
        <time>2009-07-09T10:08:58Z</time>
      </trkpt>
      <trkpt lat="43.88067" lon="6.9385">
        <ele>629</ele>
        <time>2009-07-09T10:09:17Z</time>
      </trkpt>
      <trkpt lat="43.8807" lon="6.9385">
        <ele>631</ele>
        <time>2009-07-09T10:09:31Z</time>
      </trkpt>
      <trkpt lat="43.88068" lon="6.93862">
        <ele>634</ele>
        <time>2009-07-09T10:09:47Z</time>
      </trkpt>
      <trkpt lat="43.88065" lon="6.93868">
        <ele>637</ele>
        <time>2009-07-09T10:10:03Z</time>
      </trkpt>
      <trkpt lat="43.8806" lon="6.93893">
        <ele>639</ele>
        <time>2009-07-09T10:10:23Z</time>
      </trkpt>
      <trkpt lat="43.8805" lon="6.9391">
        <ele>642</ele>
        <time>2009-07-09T10:10:39Z</time>
      </trkpt>
      <trkpt lat="43.88048" lon="6.93927">
        <ele>644</ele>
        <time>2009-07-09T10:10:51Z</time>
      </trkpt>
      <trkpt lat="43.88047" lon="6.93933">
        <ele>645</ele>
        <time>2009-07-09T10:10:54Z</time>
      </trkpt>
      <trkpt lat="43.88045" lon="6.93943">
        <ele>648</ele>
        <time>2009-07-09T10:10:58Z</time>
      </trkpt>
      <trkpt lat="43.8804" lon="6.93957">
        <ele>650</ele>
        <time>2009-07-09T10:11:03Z</time>
      </trkpt>
      <trkpt lat="43.88037" lon="6.93967">
        <ele>651</ele>
        <time>2009-07-09T10:11:06Z</time>
      </trkpt>
      <trkpt lat="43.88037" lon="6.93973">
        <ele>652</ele>
        <time>2009-07-09T10:11:18Z</time>
      </trkpt>
      <trkpt lat="43.88035" lon="6.93987">
        <ele>655</ele>
        <time>2009-07-09T10:11:38Z</time>
      </trkpt>
      <trkpt lat="43.88037" lon="6.94005">
        <ele>658</ele>
        <time>2009-07-09T10:11:56Z</time>
      </trkpt>
      <trkpt lat="43.88038" lon="6.93997">
        <ele>659</ele>
        <time>2009-07-09T10:12:12Z</time>
      </trkpt>
      <trkpt lat="43.8804" lon="6.93995">
        <ele>658</ele>
        <time>2009-07-09T10:12:40Z</time>
      </trkpt>
      <trkpt lat="43.8804" lon="6.93988">
        <ele>657</ele>
        <time>2009-07-09T10:16:37Z</time>
      </trkpt>
      <trkpt lat="43.88068" lon="6.93952">
        <ele>655</ele>
        <time>2009-07-09T10:16:49Z</time>
      </trkpt>
      <trkpt lat="43.88072" lon="6.93947">
        <ele>655</ele>
        <time>2009-07-09T10:16:50Z</time>
      </trkpt>
      <trkpt lat="43.88083" lon="6.93928">
        <ele>654</ele>
        <time>2009-07-09T10:16:54Z</time>
      </trkpt>
      <trkpt lat="43.88088" lon="6.93913">
        <ele>654</ele>
        <time>2009-07-09T10:16:56Z</time>
      </trkpt>
      <trkpt lat="43.88108" lon="6.93893">
        <ele>653</ele>
        <time>2009-07-09T10:17:01Z</time>
      </trkpt>
      <trkpt lat="43.88135" lon="6.93875">
        <ele>651</ele>
        <time>2009-07-09T10:17:06Z</time>
      </trkpt>
      <trkpt lat="43.88162" lon="6.93848">
        <ele>650</ele>
        <time>2009-07-09T10:17:11Z</time>
      </trkpt>
      <trkpt lat="43.88183" lon="6.93807">
        <ele>649</ele>
        <time>2009-07-09T10:17:17Z</time>
      </trkpt>
      <trkpt lat="43.88197" lon="6.93747">
        <ele>647</ele>
        <time>2009-07-09T10:17:26Z</time>
      </trkpt>
      <trkpt lat="43.88205" lon="6.93745">
        <ele>646</ele>
        <time>2009-07-09T10:17:37Z</time>
      </trkpt>
      <trkpt lat="43.88242" lon="6.93748">
        <ele>644</ele>
        <time>2009-07-09T10:17:46Z</time>
      </trkpt>
      <trkpt lat="43.88253" lon="6.93735">
        <ele>643</ele>
        <time>2009-07-09T10:17:50Z</time>
      </trkpt>
      <trkpt lat="43.88258" lon="6.93732">
        <ele>643</ele>
        <time>2009-07-09T10:18:03Z</time>
      </trkpt>
      <trkpt lat="43.8826" lon="6.93732">
        <ele>643</ele>
        <time>2009-07-09T10:18:09Z</time>
      </trkpt>
      <trkpt lat="43.88285" lon="6.93755">
        <ele>641</ele>
        <time>2009-07-09T10:18:20Z</time>
      </trkpt>
      <trkpt lat="43.88295" lon="6.93773">
        <ele>640</ele>
        <time>2009-07-09T10:18:24Z</time>
      </trkpt>
      <trkpt lat="43.88333" lon="6.93778">
        <ele>638</ele>
        <time>2009-07-09T10:18:31Z</time>
      </trkpt>
      <trkpt lat="43.88372" lon="6.93767">
        <ele>637</ele>
        <time>2009-07-09T10:18:37Z</time>
      </trkpt>
      <trkpt lat="43.88412" lon="6.93753">
        <ele>634</ele>
        <time>2009-07-09T10:18:43Z</time>
      </trkpt>
      <trkpt lat="43.88453" lon="6.93707">
        <ele>632</ele>
        <time>2009-07-09T10:18:55Z</time>
      </trkpt>
      <trkpt lat="43.88458" lon="6.9371">
        <ele>632</ele>
        <time>2009-07-09T10:18:56Z</time>
      </trkpt>
      <trkpt lat="43.88467" lon="6.93712">
        <ele>632</ele>
        <time>2009-07-09T10:18:58Z</time>
      </trkpt>
      <trkpt lat="43.88497" lon="6.93755">
        <ele>630</ele>
        <time>2009-07-09T10:19:06Z</time>
      </trkpt>
      <trkpt lat="43.88523" lon="6.93798">
        <ele>629</ele>
        <time>2009-07-09T10:19:14Z</time>
      </trkpt>
      <trkpt lat="43.88543" lon="6.9381">
        <ele>628</ele>
        <time>2009-07-09T10:19:18Z</time>
      </trkpt>
      <trkpt lat="43.88567" lon="6.9383">
        <ele>627</ele>
        <time>2009-07-09T10:19:22Z</time>
      </trkpt>
      <trkpt lat="43.88573" lon="6.93842">
        <ele>626</ele>
        <time>2009-07-09T10:19:24Z</time>
      </trkpt>
      <trkpt lat="43.88598" lon="6.93862">
        <ele>625</ele>
        <time>2009-07-09T10:19:29Z</time>
      </trkpt>
      <trkpt lat="43.88633" lon="6.93888">
        <ele>624</ele>
        <time>2009-07-09T10:19:36Z</time>
      </trkpt>
      <trkpt lat="43.88648" lon="6.9401">
        <ele>620</ele>
        <time>2009-07-09T10:19:50Z</time>
      </trkpt>
      <trkpt lat="43.8865" lon="6.94078">
        <ele>619</ele>
        <time>2009-07-09T10:19:58Z</time>
      </trkpt>
      <trkpt lat="43.88658" lon="6.94108">
        <ele>621</ele>
        <time>2009-07-09T10:20:08Z</time>
      </trkpt>
      <trkpt lat="43.88668" lon="6.94138">
        <ele>623</ele>
        <time>2009-07-09T10:20:21Z</time>
      </trkpt>
      <trkpt lat="43.88678" lon="6.9417">
        <ele>625</ele>
        <time>2009-07-09T10:20:38Z</time>
      </trkpt>
      <trkpt lat="43.88677" lon="6.94195">
        <ele>628</ele>
        <time>2009-07-09T10:21:06Z</time>
      </trkpt>
      <trkpt lat="43.88675" lon="6.94233">
        <ele>631</ele>
        <time>2009-07-09T10:21:22Z</time>
      </trkpt>
      <trkpt lat="43.88675" lon="6.9426">
        <ele>633</ele>
        <time>2009-07-09T10:21:34Z</time>
      </trkpt>
      <trkpt lat="43.88677" lon="6.94287">
        <ele>636</ele>
        <time>2009-07-09T10:21:48Z</time>
      </trkpt>
      <trkpt lat="43.88677" lon="6.94288">
        <ele>636</ele>
        <time>2009-07-09T10:21:49Z</time>
      </trkpt>
      <trkpt lat="43.88673" lon="6.943">
        <ele>637</ele>
        <time>2009-07-09T10:21:54Z</time>
      </trkpt>
      <trkpt lat="43.8867" lon="6.94335">
        <ele>638</ele>
        <time>2009-07-09T10:22:10Z</time>
      </trkpt>
      <trkpt lat="43.8867" lon="6.94377">
        <ele>639</ele>
        <time>2009-07-09T10:22:25Z</time>
      </trkpt>
      <trkpt lat="43.88667" lon="6.94435">
        <ele>640</ele>
        <time>2009-07-09T10:22:38Z</time>
      </trkpt>
      <trkpt lat="43.88677" lon="6.94498">
        <ele>640</ele>
        <time>2009-07-09T10:22:51Z</time>
      </trkpt>
      <trkpt lat="43.88682" lon="6.94578">
        <ele>641</ele>
        <time>2009-07-09T10:23:06Z</time>
      </trkpt>
      <trkpt lat="43.88683" lon="6.9464">
        <ele>642</ele>
        <time>2009-07-09T10:23:19Z</time>
      </trkpt>
      <trkpt lat="43.88685" lon="6.94683">
        <ele>645</ele>
        <time>2009-07-09T10:23:31Z</time>
      </trkpt>
      <trkpt lat="43.88682" lon="6.94747">
        <ele>645</ele>
        <time>2009-07-09T10:23:43Z</time>
      </trkpt>
      <trkpt lat="43.88688" lon="6.94797">
        <ele>647</ele>
        <time>2009-07-09T10:23:56Z</time>
      </trkpt>
      <trkpt lat="43.88695" lon="6.94858">
        <ele>647</ele>
        <time>2009-07-09T10:24:08Z</time>
      </trkpt>
      <trkpt lat="43.88693" lon="6.94905">
        <ele>650</ele>
        <time>2009-07-09T10:24:19Z</time>
      </trkpt>
      <trkpt lat="43.88695" lon="6.94952">
        <ele>653</ele>
        <time>2009-07-09T10:24:34Z</time>
      </trkpt>
      <trkpt lat="43.88693" lon="6.94957">
        <ele>654</ele>
        <time>2009-07-09T10:24:36Z</time>
      </trkpt>
      <trkpt lat="43.88693" lon="6.94962">
        <ele>654</ele>
        <time>2009-07-09T10:24:38Z</time>
      </trkpt>
      <trkpt lat="43.8869" lon="6.94975">
        <ele>655</ele>
        <time>2009-07-09T10:24:42Z</time>
      </trkpt>
      <trkpt lat="43.8868" lon="6.95018">
        <ele>658</ele>
        <time>2009-07-09T10:24:55Z</time>
      </trkpt>
      <trkpt lat="43.88678" lon="6.95063">
        <ele>660</ele>
        <time>2009-07-09T10:25:04Z</time>
      </trkpt>
      <trkpt lat="43.88678" lon="6.95073">
        <ele>662</ele>
        <time>2009-07-09T10:25:08Z</time>
      </trkpt>
      <trkpt lat="43.8867" lon="6.95093">
        <ele>664</ele>
        <time>2009-07-09T10:25:19Z</time>
      </trkpt>
      <trkpt lat="43.88652" lon="6.95115">
        <ele>667</ele>
        <time>2009-07-09T10:25:31Z</time>
      </trkpt>
      <trkpt lat="43.8864" lon="6.95143">
        <ele>669</ele>
        <time>2009-07-09T10:25:43Z</time>
      </trkpt>
      <trkpt lat="43.88628" lon="6.95177">
        <ele>671</ele>
        <time>2009-07-09T10:25:55Z</time>
      </trkpt>
      <trkpt lat="43.88612" lon="6.95213">
        <ele>673</ele>
        <time>2009-07-09T10:26:08Z</time>
      </trkpt>
      <trkpt lat="43.88603" lon="6.9525">
        <ele>675</ele>
        <time>2009-07-09T10:26:20Z</time>
      </trkpt>
      <trkpt lat="43.88602" lon="6.95258">
        <ele>676</ele>
        <time>2009-07-09T10:26:24Z</time>
      </trkpt>
      <trkpt lat="43.886" lon="6.95267">
        <ele>677</ele>
        <time>2009-07-09T10:26:28Z</time>
      </trkpt>
      <trkpt lat="43.88595" lon="6.95308">
        <ele>680</ele>
        <time>2009-07-09T10:26:43Z</time>
      </trkpt>
      <trkpt lat="43.88592" lon="6.95343">
        <ele>681</ele>
        <time>2009-07-09T10:26:54Z</time>
      </trkpt>
      <trkpt lat="43.88585" lon="6.95398">
        <ele>683</ele>
        <time>2009-07-09T10:27:08Z</time>
      </trkpt>
      <trkpt lat="43.88595" lon="6.95457">
        <ele>685</ele>
        <time>2009-07-09T10:27:22Z</time>
      </trkpt>
      <trkpt lat="43.88597" lon="6.95465">
        <ele>685</ele>
        <time>2009-07-09T10:27:25Z</time>
      </trkpt>
      <trkpt lat="43.88593" lon="6.95508">
        <ele>687</ele>
        <time>2009-07-09T10:27:37Z</time>
      </trkpt>
      <trkpt lat="43.88597" lon="6.95557">
        <ele>688</ele>
        <time>2009-07-09T10:27:49Z</time>
      </trkpt>
      <trkpt lat="43.88603" lon="6.95615">
        <ele>689</ele>
        <time>2009-07-09T10:28:02Z</time>
      </trkpt>
      <trkpt lat="43.88605" lon="6.95633">
        <ele>690</ele>
        <time>2009-07-09T10:28:06Z</time>
      </trkpt>
      <trkpt lat="43.8861" lon="6.9568">
        <ele>690</ele>
        <time>2009-07-09T10:28:15Z</time>
      </trkpt>
      <trkpt lat="43.88605" lon="6.95747">
        <ele>692</ele>
        <time>2009-07-09T10:28:28Z</time>
      </trkpt>
      <trkpt lat="43.88607" lon="6.95798">
        <ele>694</ele>
        <time>2009-07-09T10:28:37Z</time>
      </trkpt>
      <trkpt lat="43.88607" lon="6.95852">
        <ele>697</ele>
        <time>2009-07-09T10:28:49Z</time>
      </trkpt>
      <trkpt lat="43.886" lon="6.95908">
        <ele>699</ele>
        <time>2009-07-09T10:29:03Z</time>
      </trkpt>
      <trkpt lat="43.88593" lon="6.9594">
        <ele>701</ele>
        <time>2009-07-09T10:29:11Z</time>
      </trkpt>
      <trkpt lat="43.886" lon="6.95992">
        <ele>704</ele>
        <time>2009-07-09T10:29:24Z</time>
      </trkpt>
      <trkpt lat="43.88607" lon="6.96032">
        <ele>707</ele>
        <time>2009-07-09T10:29:36Z</time>
      </trkpt>
      <trkpt lat="43.88607" lon="6.96042">
        <ele>708</ele>
        <time>2009-07-09T10:29:40Z</time>
      </trkpt>
      <trkpt lat="43.88607" lon="6.96057">
        <ele>709</ele>
        <time>2009-07-09T10:29:45Z</time>
      </trkpt>
      <trkpt lat="43.88598" lon="6.96098">
        <ele>710</ele>
        <time>2009-07-09T10:29:57Z</time>
      </trkpt>
      <trkpt lat="43.88597" lon="6.96128">
        <ele>711</ele>
        <time>2009-07-09T10:30:05Z</time>
      </trkpt>
      <trkpt lat="43.88593" lon="6.96155">
        <ele>712</ele>
        <time>2009-07-09T10:30:13Z</time>
      </trkpt>
      <trkpt lat="43.88583" lon="6.96202">
        <ele>716</ele>
        <time>2009-07-09T10:30:26Z</time>
      </trkpt>
      <trkpt lat="43.8858" lon="6.96245">
        <ele>719</ele>
        <time>2009-07-09T10:30:38Z</time>
      </trkpt>
      <trkpt lat="43.88573" lon="6.96283">
        <ele>721</ele>
        <time>2009-07-09T10:30:50Z</time>
      </trkpt>
      <trkpt lat="43.88572" lon="6.9632">
        <ele>724</ele>
        <time>2009-07-09T10:31:00Z</time>
      </trkpt>
      <trkpt lat="43.88577" lon="6.96362">
        <ele>725</ele>
        <time>2009-07-09T10:31:11Z</time>
      </trkpt>
      <trkpt lat="43.88588" lon="6.96405">
        <ele>728</ele>
        <time>2009-07-09T10:31:24Z</time>
      </trkpt>
      <trkpt lat="43.88595" lon="6.96448">
        <ele>728</ele>
        <time>2009-07-09T10:31:35Z</time>
      </trkpt>
      <trkpt lat="43.88597" lon="6.96505">
        <ele>730</ele>
        <time>2009-07-09T10:31:47Z</time>
      </trkpt>
      <trkpt lat="43.88585" lon="6.96532">
        <ele>733</ele>
        <time>2009-07-09T10:31:57Z</time>
      </trkpt>
      <trkpt lat="43.88583" lon="6.96533">
        <ele>733</ele>
        <time>2009-07-09T10:31:58Z</time>
      </trkpt>
      <trkpt lat="43.8858" lon="6.96555">
        <ele>734</ele>
        <time>2009-07-09T10:32:05Z</time>
      </trkpt>
      <trkpt lat="43.88583" lon="6.96603">
        <ele>737</ele>
        <time>2009-07-09T10:32:17Z</time>
      </trkpt>
      <trkpt lat="43.88603" lon="6.96642">
        <ele>741</ele>
        <time>2009-07-09T10:32:31Z</time>
      </trkpt>
      <trkpt lat="43.88608" lon="6.96677">
        <ele>744</ele>
        <time>2009-07-09T10:32:43Z</time>
      </trkpt>
      <trkpt lat="43.88608" lon="6.96692">
        <ele>746</ele>
        <time>2009-07-09T10:32:50Z</time>
      </trkpt>
      <trkpt lat="43.88607" lon="6.96703">
        <ele>747</ele>
        <time>2009-07-09T10:32:55Z</time>
      </trkpt>
      <trkpt lat="43.88602" lon="6.96748">
        <ele>750</ele>
        <time>2009-07-09T10:33:10Z</time>
      </trkpt>
      <trkpt lat="43.88603" lon="6.9678">
        <ele>753</ele>
        <time>2009-07-09T10:33:22Z</time>
      </trkpt>
      <trkpt lat="43.886" lon="6.96815">
        <ele>757</ele>
        <time>2009-07-09T10:33:34Z</time>
      </trkpt>
      <trkpt lat="43.88585" lon="6.96833">
        <ele>759</ele>
        <time>2009-07-09T10:33:46Z</time>
      </trkpt>
      <trkpt lat="43.8857" lon="6.9684">
        <ele>761</ele>
        <time>2009-07-09T10:33:54Z</time>
      </trkpt>
      <trkpt lat="43.88568" lon="6.96883">
        <ele>763</ele>
        <time>2009-07-09T10:34:08Z</time>
      </trkpt>
      <trkpt lat="43.88578" lon="6.96923">
        <ele>765</ele>
        <time>2009-07-09T10:34:19Z</time>
      </trkpt>
      <trkpt lat="43.88585" lon="6.96972">
        <ele>767</ele>
        <time>2009-07-09T10:34:33Z</time>
      </trkpt>
      <trkpt lat="43.88585" lon="6.9702">
        <ele>768</ele>
        <time>2009-07-09T10:34:46Z</time>
      </trkpt>
      <trkpt lat="43.88587" lon="6.97048">
        <ele>767</ele>
        <time>2009-07-09T10:34:52Z</time>
      </trkpt>
      <trkpt lat="43.88605" lon="6.97088">
        <ele>767</ele>
        <time>2009-07-09T10:34:58Z</time>
      </trkpt>
      <trkpt lat="43.88628" lon="6.97183">
        <ele>769</ele>
        <time>2009-07-09T10:35:15Z</time>
      </trkpt>
      <trkpt lat="43.88628" lon="6.9719">
        <ele>769</ele>
        <time>2009-07-09T10:35:16Z</time>
      </trkpt>
      <trkpt lat="43.8863" lon="6.97202">
        <ele>768</ele>
        <time>2009-07-09T10:35:18Z</time>
      </trkpt>
      <trkpt lat="43.88643" lon="6.97235">
        <ele>766</ele>
        <time>2009-07-09T10:35:23Z</time>
      </trkpt>
      <trkpt lat="43.8866" lon="6.97302">
        <ele>769</ele>
        <time>2009-07-09T10:35:33Z</time>
      </trkpt>
      <trkpt lat="43.88668" lon="6.97372">
        <ele>773</ele>
        <time>2009-07-09T10:35:47Z</time>
      </trkpt>
      <trkpt lat="43.88673" lon="6.97422">
        <ele>775</ele>
        <time>2009-07-09T10:36:00Z</time>
      </trkpt>
      <trkpt lat="43.88672" lon="6.9747">
        <ele>779</ele>
        <time>2009-07-09T10:36:11Z</time>
      </trkpt>
      <trkpt lat="43.88673" lon="6.97497">
        <ele>782</ele>
        <time>2009-07-09T10:36:21Z</time>
      </trkpt>
      <trkpt lat="43.88668" lon="6.97518">
        <ele>784</ele>
        <time>2009-07-09T10:36:28Z</time>
      </trkpt>
      <trkpt lat="43.88663" lon="6.97532">
        <ele>784</ele>
        <time>2009-07-09T10:36:32Z</time>
      </trkpt>
      <trkpt lat="43.88653" lon="6.97563">
        <ele>788</ele>
        <time>2009-07-09T10:36:45Z</time>
      </trkpt>
      <trkpt lat="43.88638" lon="6.97585">
        <ele>790</ele>
        <time>2009-07-09T10:36:58Z</time>
      </trkpt>
      <trkpt lat="43.88623" lon="6.97618">
        <ele>794</ele>
        <time>2009-07-09T10:37:10Z</time>
      </trkpt>
      <trkpt lat="43.88625" lon="6.97628">
        <ele>795</ele>
        <time>2009-07-09T10:37:15Z</time>
      </trkpt>
      <trkpt lat="43.8862" lon="6.97653">
        <ele>796</ele>
        <time>2009-07-09T10:37:22Z</time>
      </trkpt>
      <trkpt lat="43.8863" lon="6.97688">
        <ele>800</ele>
        <time>2009-07-09T10:37:35Z</time>
      </trkpt>
      <trkpt lat="43.8864" lon="6.97725">
        <ele>803</ele>
        <time>2009-07-09T10:37:48Z</time>
      </trkpt>
      <trkpt lat="43.8863" lon="6.97757">
        <ele>805</ele>
        <time>2009-07-09T10:38:00Z</time>
      </trkpt>
      <trkpt lat="43.88628" lon="6.97768">
        <ele>806</ele>
        <time>2009-07-09T10:38:05Z</time>
      </trkpt>
      <trkpt lat="43.88628" lon="6.97785">
        <ele>808</ele>
        <time>2009-07-09T10:38:11Z</time>
      </trkpt>
      <trkpt lat="43.8862" lon="6.97817">
        <ele>810</ele>
        <time>2009-07-09T10:38:20Z</time>
      </trkpt>
      <trkpt lat="43.8862" lon="6.97825">
        <ele>811</ele>
        <time>2009-07-09T10:38:23Z</time>
      </trkpt>
      <trkpt lat="43.88628" lon="6.97863">
        <ele>814</ele>
        <time>2009-07-09T10:38:38Z</time>
      </trkpt>
      <trkpt lat="43.88628" lon="6.9787">
        <ele>815</ele>
        <time>2009-07-09T10:38:41Z</time>
      </trkpt>
      <trkpt lat="43.88632" lon="6.97885">
        <ele>816</ele>
        <time>2009-07-09T10:38:47Z</time>
      </trkpt>
      <trkpt lat="43.8863" lon="6.97922">
        <ele>820</ele>
        <time>2009-07-09T10:39:01Z</time>
      </trkpt>
      <trkpt lat="43.8863" lon="6.97927">
        <ele>820</ele>
        <time>2009-07-09T10:39:02Z</time>
      </trkpt>
      <trkpt lat="43.8863" lon="6.97967">
        <ele>823</ele>
        <time>2009-07-09T10:39:14Z</time>
      </trkpt>
      <trkpt lat="43.88628" lon="6.98002">
        <ele>826</ele>
        <time>2009-07-09T10:39:26Z</time>
      </trkpt>
      <trkpt lat="43.88632" lon="6.98032">
        <ele>829</ele>
        <time>2009-07-09T10:39:37Z</time>
      </trkpt>
      <trkpt lat="43.8863" lon="6.9807">
        <ele>832</ele>
        <time>2009-07-09T10:39:49Z</time>
      </trkpt>
      <trkpt lat="43.88633" lon="6.98108">
        <ele>835</ele>
        <time>2009-07-09T10:40:02Z</time>
      </trkpt>
      <trkpt lat="43.8865" lon="6.98138">
        <ele>837</ele>
        <time>2009-07-09T10:40:15Z</time>
      </trkpt>
      <trkpt lat="43.88667" lon="6.98182">
        <ele>838</ele>
        <time>2009-07-09T10:40:28Z</time>
      </trkpt>
      <trkpt lat="43.88672" lon="6.98207">
        <ele>840</ele>
        <time>2009-07-09T10:40:36Z</time>
      </trkpt>
      <trkpt lat="43.88678" lon="6.9823">
        <ele>842</ele>
        <time>2009-07-09T10:40:44Z</time>
      </trkpt>
      <trkpt lat="43.88702" lon="6.98275">
        <ele>844</ele>
        <time>2009-07-09T10:41:00Z</time>
      </trkpt>
      <trkpt lat="43.88713" lon="6.98307">
        <ele>847</ele>
        <time>2009-07-09T10:41:13Z</time>
      </trkpt>
      <trkpt lat="43.8872" lon="6.98342">
        <ele>849</ele>
        <time>2009-07-09T10:41:26Z</time>
      </trkpt>
      <trkpt lat="43.88723" lon="6.98352">
        <ele>849</ele>
        <time>2009-07-09T10:41:30Z</time>
      </trkpt>
      <trkpt lat="43.88728" lon="6.98397">
        <ele>852</ele>
        <time>2009-07-09T10:41:47Z</time>
      </trkpt>
      <trkpt lat="43.8873" lon="6.98423">
        <ele>853</ele>
        <time>2009-07-09T10:42:02Z</time>
      </trkpt>
      <trkpt lat="43.88732" lon="6.98435">
        <ele>852</ele>
        <time>2009-07-09T10:42:16Z</time>
      </trkpt>
      <trkpt lat="43.8874" lon="6.98435">
        <ele>852</ele>
        <time>2009-07-09T10:42:31Z</time>
      </trkpt>
      <trkpt lat="43.8874" lon="6.98438">
        <ele>852</ele>
        <time>2009-07-09T10:43:03Z</time>
      </trkpt>
      <trkpt lat="43.8874" lon="6.98442">
        <ele>851</ele>
        <time>2009-07-09T10:43:36Z</time>
      </trkpt>
      <trkpt lat="43.88742" lon="6.9844">
        <ele>850</ele>
        <time>2009-07-09T10:49:30Z</time>
      </trkpt>
      <trkpt lat="43.88735" lon="6.9844">
        <ele>852</ele>
        <time>2009-07-09T10:51:35Z</time>
      </trkpt>
      <trkpt lat="43.88742" lon="6.98438">
        <ele>852</ele>
        <time>2009-07-09T10:52:18Z</time>
      </trkpt>
      <trkpt lat="43.88728" lon="6.98453">
        <ele>854</ele>
        <time>2009-07-09T10:57:43Z</time>
      </trkpt>
      <trkpt lat="43.88742" lon="6.98448">
        <ele>855</ele>
        <time>2009-07-09T10:58:10Z</time>
      </trkpt>
      <trkpt lat="43.88733" lon="6.98448">
        <ele>855</ele>
        <time>2009-07-09T10:58:47Z</time>
      </trkpt>
      <trkpt lat="43.88742" lon="6.98443">
        <ele>855</ele>
        <time>2009-07-09T11:00:19Z</time>
      </trkpt>
      <trkpt lat="43.88742" lon="6.98447">
        <ele>856</ele>
        <time>2009-07-09T11:01:51Z</time>
      </trkpt>
      <trkpt lat="43.88733" lon="6.98445">
        <ele>856</ele>
        <time>2009-07-09T11:03:11Z</time>
      </trkpt>
      <trkpt lat="43.88745" lon="6.98445">
        <ele>856</ele>
        <time>2009-07-09T11:04:31Z</time>
      </trkpt>
      <trkpt lat="43.88735" lon="6.9844">
        <ele>856</ele>
        <time>2009-07-09T11:05:39Z</time>
      </trkpt>
      <trkpt lat="43.88733" lon="6.9844">
        <ele>856</ele>
        <time>2009-07-09T11:06:22Z</time>
      </trkpt>
      <trkpt lat="43.88737" lon="6.98447">
        <ele>856</ele>
        <time>2009-07-09T11:07:00Z</time>
      </trkpt>
      <trkpt lat="43.88737" lon="6.98447">
        <ele>857</ele>
        <time>2009-07-09T11:07:44Z</time>
      </trkpt>
      <trkpt lat="43.88762" lon="6.98473">
        <ele>853</ele>
        <time>2009-07-09T11:07:54Z</time>
      </trkpt>
      <trkpt lat="43.8878" lon="6.98497">
        <ele>850</ele>
        <time>2009-07-09T11:07:58Z</time>
      </trkpt>
      <trkpt lat="43.88785" lon="6.9851">
        <ele>849</ele>
        <time>2009-07-09T11:08:00Z</time>
      </trkpt>
      <trkpt lat="43.88793" lon="6.98518">
        <ele>848</ele>
        <time>2009-07-09T11:08:02Z</time>
      </trkpt>
      <trkpt lat="43.88807" lon="6.9856">
        <ele>845</ele>
        <time>2009-07-09T11:08:10Z</time>
      </trkpt>
      <trkpt lat="43.88828" lon="6.98588">
        <ele>841</ele>
        <time>2009-07-09T11:08:15Z</time>
      </trkpt>
      <trkpt lat="43.88832" lon="6.98597">
        <ele>841</ele>
        <time>2009-07-09T11:08:16Z</time>
      </trkpt>
      <trkpt lat="43.88837" lon="6.9861">
        <ele>841</ele>
        <time>2009-07-09T11:08:18Z</time>
      </trkpt>
      <trkpt lat="43.8884" lon="6.98645">
        <ele>841</ele>
        <time>2009-07-09T11:08:24Z</time>
      </trkpt>
      <trkpt lat="43.88858" lon="6.98685">
        <ele>839</ele>
        <time>2009-07-09T11:08:31Z</time>
      </trkpt>
      <trkpt lat="43.8886" lon="6.98717">
        <ele>837</ele>
        <time>2009-07-09T11:08:36Z</time>
      </trkpt>
      <trkpt lat="43.88868" lon="6.9873">
        <ele>836</ele>
        <time>2009-07-09T11:08:39Z</time>
      </trkpt>
      <trkpt lat="43.88897" lon="6.98752">
        <ele>835</ele>
        <time>2009-07-09T11:08:45Z</time>
      </trkpt>
      <trkpt lat="43.88912" lon="6.98787">
        <ele>836</ele>
        <time>2009-07-09T11:08:53Z</time>
      </trkpt>
      <trkpt lat="43.88917" lon="6.98793">
        <ele>835</ele>
        <time>2009-07-09T11:08:55Z</time>
      </trkpt>
      <trkpt lat="43.88925" lon="6.98797">
        <ele>835</ele>
        <time>2009-07-09T11:08:57Z</time>
      </trkpt>
      <trkpt lat="43.88932" lon="6.98815">
        <ele>833</ele>
        <time>2009-07-09T11:09:02Z</time>
      </trkpt>
      <trkpt lat="43.8893" lon="6.98855">
        <ele>831</ele>
        <time>2009-07-09T11:09:09Z</time>
      </trkpt>
      <trkpt lat="43.88938" lon="6.98877">
        <ele>830</ele>
        <time>2009-07-09T11:09:12Z</time>
      </trkpt>
      <trkpt lat="43.8895" lon="6.98897">
        <ele>827</ele>
        <time>2009-07-09T11:09:16Z</time>
      </trkpt>
      <trkpt lat="43.88962" lon="6.9892">
        <ele>825</ele>
        <time>2009-07-09T11:09:22Z</time>
      </trkpt>
      <trkpt lat="43.88977" lon="6.9895">
        <ele>821</ele>
        <time>2009-07-09T11:09:27Z</time>
      </trkpt>
      <trkpt lat="43.88998" lon="6.98972">
        <ele>818</ele>
        <time>2009-07-09T11:09:32Z</time>
      </trkpt>
      <trkpt lat="43.89017" lon="6.9898">
        <ele>814</ele>
        <time>2009-07-09T11:09:37Z</time>
      </trkpt>
      <trkpt lat="43.89012" lon="6.98987">
        <ele>813</ele>
        <time>2009-07-09T11:09:43Z</time>
      </trkpt>
      <trkpt lat="43.88997" lon="6.98985">
        <ele>811</ele>
        <time>2009-07-09T11:09:47Z</time>
      </trkpt>
      <trkpt lat="43.88982" lon="6.98978">
        <ele>810</ele>
        <time>2009-07-09T11:09:56Z</time>
      </trkpt>
      <trkpt lat="43.88982" lon="6.98978">
        <ele>810</ele>
        <time>2009-07-09T11:10:15Z</time>
      </trkpt>
      <trkpt lat="43.88987" lon="6.98988">
        <ele>809</ele>
        <time>2009-07-09T11:10:19Z</time>
      </trkpt>
      <trkpt lat="43.89" lon="6.98998">
        <ele>807</ele>
        <time>2009-07-09T11:10:23Z</time>
      </trkpt>
      <trkpt lat="43.89007" lon="6.99">
        <ele>806</ele>
        <time>2009-07-09T11:10:25Z</time>
      </trkpt>
      <trkpt lat="43.89002" lon="6.99007">
        <ele>805</ele>
        <time>2009-07-09T11:10:30Z</time>
      </trkpt>
      <trkpt lat="43.8897" lon="6.98997">
        <ele>800</ele>
        <time>2009-07-09T11:10:37Z</time>
      </trkpt>
      <trkpt lat="43.88962" lon="6.98995">
        <ele>800</ele>
        <time>2009-07-09T11:10:39Z</time>
      </trkpt>
      <trkpt lat="43.88958" lon="6.98993">
        <ele>799</ele>
        <time>2009-07-09T11:10:40Z</time>
      </trkpt>
      <trkpt lat="43.88963" lon="6.99012">
        <ele>799</ele>
        <time>2009-07-09T11:10:47Z</time>
      </trkpt>
      <trkpt lat="43.88972" lon="6.99018">
        <ele>798</ele>
        <time>2009-07-09T11:10:49Z</time>
      </trkpt>
      <trkpt lat="43.8899" lon="6.99033">
        <ele>795</ele>
        <time>2009-07-09T11:10:54Z</time>
      </trkpt>
      <trkpt lat="43.88987" lon="6.99043">
        <ele>794</ele>
        <time>2009-07-09T11:10:59Z</time>
      </trkpt>
      <trkpt lat="43.88957" lon="6.99035">
        <ele>790</ele>
        <time>2009-07-09T11:11:06Z</time>
      </trkpt>
      <trkpt lat="43.88955" lon="6.9905">
        <ele>789</ele>
        <time>2009-07-09T11:11:11Z</time>
      </trkpt>
      <trkpt lat="43.88963" lon="6.99058">
        <ele>787</ele>
        <time>2009-07-09T11:11:13Z</time>
      </trkpt>
      <trkpt lat="43.8897" lon="6.99067">
        <ele>787</ele>
        <time>2009-07-09T11:11:15Z</time>
      </trkpt>
      <trkpt lat="43.88997" lon="6.99082">
        <ele>782</ele>
        <time>2009-07-09T11:11:21Z</time>
      </trkpt>
      <trkpt lat="43.89002" lon="6.99082">
        <ele>782</ele>
        <time>2009-07-09T11:11:22Z</time>
      </trkpt>
      <trkpt lat="43.89023" lon="6.99068">
        <ele>779</ele>
        <time>2009-07-09T11:11:29Z</time>
      </trkpt>
      <trkpt lat="43.89028" lon="6.99098">
        <ele>777</ele>
        <time>2009-07-09T11:11:33Z</time>
      </trkpt>
      <trkpt lat="43.89028" lon="6.99115">
        <ele>777</ele>
        <time>2009-07-09T11:11:35Z</time>
      </trkpt>
      <trkpt lat="43.89033" lon="6.9917">
        <ele>774</ele>
        <time>2009-07-09T11:11:41Z</time>
      </trkpt>
      <trkpt lat="43.89042" lon="6.99205">
        <ele>772</ele>
        <time>2009-07-09T11:11:45Z</time>
      </trkpt>
      <trkpt lat="43.89055" lon="6.99252">
        <ele>769</ele>
        <time>2009-07-09T11:11:53Z</time>
      </trkpt>
      <trkpt lat="43.89037" lon="6.99287">
        <ele>766</ele>
        <time>2009-07-09T11:11:58Z</time>
      </trkpt>
      <trkpt lat="43.89027" lon="6.9932">
        <ele>765</ele>
        <time>2009-07-09T11:12:02Z</time>
      </trkpt>
      <trkpt lat="43.89022" lon="6.99363">
        <ele>765</ele>
        <time>2009-07-09T11:12:07Z</time>
      </trkpt>
      <trkpt lat="43.89025" lon="6.99393">
        <ele>765</ele>
        <time>2009-07-09T11:12:11Z</time>
      </trkpt>
      <trkpt lat="43.8906" lon="6.9946">
        <ele>764</ele>
        <time>2009-07-09T11:12:20Z</time>
      </trkpt>
      <trkpt lat="43.89083" lon="6.9948">
        <ele>765</ele>
        <time>2009-07-09T11:12:26Z</time>
      </trkpt>
      <trkpt lat="43.89115" lon="6.99477">
        <ele>768</ele>
        <time>2009-07-09T11:12:40Z</time>
      </trkpt>
      <trkpt lat="43.89133" lon="6.99482">
        <ele>768</ele>
        <time>2009-07-09T11:12:46Z</time>
      </trkpt>
      <trkpt lat="43.89132" lon="6.99517">
        <ele>768</ele>
        <time>2009-07-09T11:12:54Z</time>
      </trkpt>
      <trkpt lat="43.8913" lon="6.99553">
        <ele>765</ele>
        <time>2009-07-09T11:13:01Z</time>
      </trkpt>
      <trkpt lat="43.8914" lon="6.99582">
        <ele>763</ele>
        <time>2009-07-09T11:13:05Z</time>
      </trkpt>
      <trkpt lat="43.8915" lon="6.99618">
        <ele>760</ele>
        <time>2009-07-09T11:13:10Z</time>
      </trkpt>
      <trkpt lat="43.89155" lon="6.99642">
        <ele>757</ele>
        <time>2009-07-09T11:13:13Z</time>
      </trkpt>
      <trkpt lat="43.8916" lon="6.99658">
        <ele>756</ele>
        <time>2009-07-09T11:13:15Z</time>
      </trkpt>
      <trkpt lat="43.89168" lon="6.9968">
        <ele>754</ele>
        <time>2009-07-09T11:13:18Z</time>
      </trkpt>
      <trkpt lat="43.89175" lon="6.99702">
        <ele>753</ele>
        <time>2009-07-09T11:13:21Z</time>
      </trkpt>
      <trkpt lat="43.89195" lon="6.99717">
        <ele>752</ele>
        <time>2009-07-09T11:13:26Z</time>
      </trkpt>
      <trkpt lat="43.89237" lon="6.9972">
        <ele>749</ele>
        <time>2009-07-09T11:13:36Z</time>
      </trkpt>
      <trkpt lat="43.8924" lon="6.99748">
        <ele>749</ele>
        <time>2009-07-09T11:13:44Z</time>
      </trkpt>
      <trkpt lat="43.89233" lon="6.99773">
        <ele>751</ele>
        <time>2009-07-09T11:13:53Z</time>
      </trkpt>
      <trkpt lat="43.89228" lon="6.99805">
        <ele>755</ele>
        <time>2009-07-09T11:14:08Z</time>
      </trkpt>
      <trkpt lat="43.89232" lon="6.99832">
        <ele>756</ele>
        <time>2009-07-09T11:14:19Z</time>
      </trkpt>
      <trkpt lat="43.89232" lon="6.9984">
        <ele>756</ele>
        <time>2009-07-09T11:14:36Z</time>
      </trkpt>
      <trkpt lat="43.89232" lon="6.9984">
        <ele>755</ele>
        <time>2009-07-09T11:16:02Z</time>
      </trkpt>
      <trkpt lat="43.89238" lon="6.99867">
        <ele>753</ele>
        <time>2009-07-09T11:16:09Z</time>
      </trkpt>
      <trkpt lat="43.89242" lon="6.99878">
        <ele>751</ele>
        <time>2009-07-09T11:16:11Z</time>
      </trkpt>
      <trkpt lat="43.8924" lon="6.99892">
        <ele>750</ele>
        <time>2009-07-09T11:16:13Z</time>
      </trkpt>
      <trkpt lat="43.89233" lon="6.99902">
        <ele>750</ele>
        <time>2009-07-09T11:16:15Z</time>
      </trkpt>
      <trkpt lat="43.89222" lon="6.99912">
        <ele>749</ele>
        <time>2009-07-09T11:16:18Z</time>
      </trkpt>
      <trkpt lat="43.89213" lon="6.99927">
        <ele>748</ele>
        <time>2009-07-09T11:16:21Z</time>
      </trkpt>
      <trkpt lat="43.8921" lon="6.99942">
        <ele>746</ele>
        <time>2009-07-09T11:16:23Z</time>
      </trkpt>
      <trkpt lat="43.8921" lon="6.99958">
        <ele>744</ele>
        <time>2009-07-09T11:16:25Z</time>
      </trkpt>
      <trkpt lat="43.89195" lon="6.99982">
        <ele>742</ele>
        <time>2009-07-09T11:16:29Z</time>
      </trkpt>
      <trkpt lat="43.89173" lon="7.00002">
        <ele>739</ele>
        <time>2009-07-09T11:16:33Z</time>
      </trkpt>
      <trkpt lat="43.89163" lon="7.0001">
        <ele>738</ele>
        <time>2009-07-09T11:16:35Z</time>
      </trkpt>
      <trkpt lat="43.89147" lon="7.00033">
        <ele>735</ele>
        <time>2009-07-09T11:16:39Z</time>
      </trkpt>
      <trkpt lat="43.89142" lon="7.00053">
        <ele>733</ele>
        <time>2009-07-09T11:16:41Z</time>
      </trkpt>
      <trkpt lat="43.89137" lon="7.00072">
        <ele>731</ele>
        <time>2009-07-09T11:16:43Z</time>
      </trkpt>
      <trkpt lat="43.8914" lon="7.00095">
        <ele>731</ele>
        <time>2009-07-09T11:16:47Z</time>
      </trkpt>
      <trkpt lat="43.8916" lon="7.00123">
        <ele>731</ele>
        <time>2009-07-09T11:16:55Z</time>
      </trkpt>
      <trkpt lat="43.89163" lon="7.00153">
        <ele>731</ele>
        <time>2009-07-09T11:17:00Z</time>
      </trkpt>
      <trkpt lat="43.8916" lon="7.00182">
        <ele>730</ele>
        <time>2009-07-09T11:17:04Z</time>
      </trkpt>
      <trkpt lat="43.89163" lon="7.00237">
        <ele>726</ele>
        <time>2009-07-09T11:17:11Z</time>
      </trkpt>
      <trkpt lat="43.89163" lon="7.00247">
        <ele>725</ele>
        <time>2009-07-09T11:17:12Z</time>
      </trkpt>
      <trkpt lat="43.8917" lon="7.00295">
        <ele>722</ele>
        <time>2009-07-09T11:17:18Z</time>
      </trkpt>
      <trkpt lat="43.89175" lon="7.0033">
        <ele>718</ele>
        <time>2009-07-09T11:17:22Z</time>
      </trkpt>
      <trkpt lat="43.89178" lon="7.00368">
        <ele>715</ele>
        <time>2009-07-09T11:17:27Z</time>
      </trkpt>
      <trkpt lat="43.89178" lon="7.00382">
        <ele>713</ele>
        <time>2009-07-09T11:17:29Z</time>
      </trkpt>
      <trkpt lat="43.89183" lon="7.004">
        <ele>712</ele>
        <time>2009-07-09T11:17:32Z</time>
      </trkpt>
      <trkpt lat="43.89188" lon="7.00408">
        <ele>712</ele>
        <time>2009-07-09T11:17:34Z</time>
      </trkpt>
      <trkpt lat="43.89195" lon="7.00418">
        <ele>710</ele>
        <time>2009-07-09T11:17:36Z</time>
      </trkpt>
      <trkpt lat="43.89192" lon="7.00448">
        <ele>708</ele>
        <time>2009-07-09T11:17:44Z</time>
      </trkpt>
      <trkpt lat="43.8918" lon="7.00485">
        <ele>706</ele>
        <time>2009-07-09T11:17:53Z</time>
      </trkpt>
      <trkpt lat="43.89175" lon="7.00517">
        <ele>704</ele>
        <time>2009-07-09T11:17:58Z</time>
      </trkpt>
      <trkpt lat="43.89182" lon="7.00552">
        <ele>702</ele>
        <time>2009-07-09T11:18:03Z</time>
      </trkpt>
      <trkpt lat="43.8917" lon="7.00577">
        <ele>701</ele>
        <time>2009-07-09T11:18:07Z</time>
      </trkpt>
      <trkpt lat="43.89162" lon="7.0059">
        <ele>700</ele>
        <time>2009-07-09T11:18:09Z</time>
      </trkpt>
      <trkpt lat="43.89143" lon="7.00648">
        <ele>696</ele>
        <time>2009-07-09T11:18:15Z</time>
      </trkpt>
      <trkpt lat="43.89125" lon="7.00685">
        <ele>692</ele>
        <time>2009-07-09T11:18:19Z</time>
      </trkpt>
      <trkpt lat="43.8912" lon="7.00733">
        <ele>687</ele>
        <time>2009-07-09T11:18:24Z</time>
      </trkpt>
      <trkpt lat="43.89118" lon="7.00757">
        <ele>686</ele>
        <time>2009-07-09T11:18:27Z</time>
      </trkpt>
      <trkpt lat="43.89122" lon="7.00777">
        <ele>685</ele>
        <time>2009-07-09T11:18:36Z</time>
      </trkpt>
      <trkpt lat="43.8912" lon="7.0078">
        <ele>685</ele>
        <time>2009-07-09T11:18:59Z</time>
      </trkpt>
      <trkpt lat="43.89118" lon="7.00778">
        <ele>684</ele>
        <time>2009-07-09T11:19:28Z</time>
      </trkpt>
      <trkpt lat="43.89115" lon="7.00768">
        <ele>684</ele>
        <time>2009-07-09T11:19:33Z</time>
      </trkpt>
      <trkpt lat="43.89105" lon="7.00742">
        <ele>682</ele>
        <time>2009-07-09T11:19:39Z</time>
      </trkpt>
      <trkpt lat="43.89097" lon="7.0073">
        <ele>680</ele>
        <time>2009-07-09T11:19:41Z</time>
      </trkpt>
      <trkpt lat="43.8908" lon="7.00695">
        <ele>677</ele>
        <time>2009-07-09T11:19:45Z</time>
      </trkpt>
      <trkpt lat="43.89077" lon="7.00685">
        <ele>676</ele>
        <time>2009-07-09T11:19:46Z</time>
      </trkpt>
      <trkpt lat="43.89067" lon="7.00625">
        <ele>672</ele>
        <time>2009-07-09T11:19:53Z</time>
      </trkpt>
      <trkpt lat="43.89053" lon="7.00625">
        <ele>668</ele>
        <time>2009-07-09T11:19:57Z</time>
      </trkpt>
      <trkpt lat="43.8905" lon="7.0063">
        <ele>668</ele>
        <time>2009-07-09T11:19:58Z</time>
      </trkpt>
      <trkpt lat="43.89038" lon="7.00652">
        <ele>665</ele>
        <time>2009-07-09T11:20:01Z</time>
      </trkpt>
      <trkpt lat="43.89025" lon="7.00712">
        <ele>661</ele>
        <time>2009-07-09T11:20:06Z</time>
      </trkpt>
      <trkpt lat="43.89017" lon="7.00748">
        <ele>657</ele>
        <time>2009-07-09T11:20:09Z</time>
      </trkpt>
      <trkpt lat="43.89012" lon="7.00775">
        <ele>655</ele>
        <time>2009-07-09T11:20:11Z</time>
      </trkpt>
      <trkpt lat="43.89025" lon="7.00832">
        <ele>650</ele>
        <time>2009-07-09T11:20:17Z</time>
      </trkpt>
      <trkpt lat="43.89047" lon="7.00858">
        <ele>647</ele>
        <time>2009-07-09T11:20:22Z</time>
      </trkpt>
      <trkpt lat="43.89045" lon="7.00865">
        <ele>647</ele>
        <time>2009-07-09T11:20:23Z</time>
      </trkpt>
      <trkpt lat="43.89033" lon="7.009">
        <ele>644</ele>
        <time>2009-07-09T11:20:27Z</time>
      </trkpt>
      <trkpt lat="43.8903" lon="7.00922">
        <ele>643</ele>
        <time>2009-07-09T11:20:29Z</time>
      </trkpt>
      <trkpt lat="43.89027" lon="7.0096">
        <ele>641</ele>
        <time>2009-07-09T11:20:32Z</time>
      </trkpt>
      <trkpt lat="43.89023" lon="7.00998">
        <ele>637</ele>
        <time>2009-07-09T11:20:35Z</time>
      </trkpt>
      <trkpt lat="43.89023" lon="7.0101">
        <ele>637</ele>
        <time>2009-07-09T11:20:36Z</time>
      </trkpt>
      <trkpt lat="43.89037" lon="7.01083">
        <ele>633</ele>
        <time>2009-07-09T11:20:42Z</time>
      </trkpt>
      <trkpt lat="43.89042" lon="7.01133">
        <ele>630</ele>
        <time>2009-07-09T11:20:46Z</time>
      </trkpt>
      <trkpt lat="43.89052" lon="7.01175">
        <ele>628</ele>
        <time>2009-07-09T11:20:50Z</time>
      </trkpt>
      <trkpt lat="43.8906" lon="7.01205">
        <ele>625</ele>
        <time>2009-07-09T11:20:53Z</time>
      </trkpt>
      <trkpt lat="43.8906" lon="7.01237">
        <ele>624</ele>
        <time>2009-07-09T11:20:56Z</time>
      </trkpt>
      <trkpt lat="43.89038" lon="7.01278">
        <ele>621</ele>
        <time>2009-07-09T11:21:01Z</time>
      </trkpt>
      <trkpt lat="43.89027" lon="7.01292">
        <ele>620</ele>
        <time>2009-07-09T11:21:03Z</time>
      </trkpt>
      <trkpt lat="43.88988" lon="7.0135">
        <ele>617</ele>
        <time>2009-07-09T11:21:10Z</time>
      </trkpt>
      <trkpt lat="43.88978" lon="7.0137">
        <ele>616</ele>
        <time>2009-07-09T11:21:12Z</time>
      </trkpt>
      <trkpt lat="43.88967" lon="7.01398">
        <ele>613</ele>
        <time>2009-07-09T11:21:15Z</time>
      </trkpt>
      <trkpt lat="43.88965" lon="7.01445">
        <ele>610</ele>
        <time>2009-07-09T11:21:19Z</time>
      </trkpt>
      <trkpt lat="43.8898" lon="7.01503">
        <ele>603</ele>
        <time>2009-07-09T11:21:24Z</time>
      </trkpt>
      <trkpt lat="43.88982" lon="7.0156">
        <ele>598</ele>
        <time>2009-07-09T11:21:29Z</time>
      </trkpt>
      <trkpt lat="43.8898" lon="7.01572">
        <ele>597</ele>
        <time>2009-07-09T11:21:30Z</time>
      </trkpt>
      <trkpt lat="43.88967" lon="7.0161">
        <ele>593</ele>
        <time>2009-07-09T11:21:34Z</time>
      </trkpt>
      <trkpt lat="43.88955" lon="7.01647">
        <ele>590</ele>
        <time>2009-07-09T11:21:38Z</time>
      </trkpt>
      <trkpt lat="43.88952" lon="7.0167">
        <ele>588</ele>
        <time>2009-07-09T11:21:40Z</time>
      </trkpt>
      <trkpt lat="43.8894" lon="7.01718">
        <ele>583</ele>
        <time>2009-07-09T11:21:44Z</time>
      </trkpt>
      <trkpt lat="43.8893" lon="7.01748">
        <ele>581</ele>
        <time>2009-07-09T11:21:47Z</time>
      </trkpt>
      <trkpt lat="43.88927" lon="7.01787">
        <ele>575</ele>
        <time>2009-07-09T11:21:52Z</time>
      </trkpt>
      <trkpt lat="43.88915" lon="7.01798">
        <ele>572</ele>
        <time>2009-07-09T11:21:54Z</time>
      </trkpt>
      <trkpt lat="43.88887" lon="7.01823">
        <ele>567</ele>
        <time>2009-07-09T11:21:58Z</time>
      </trkpt>
      <trkpt lat="43.88867" lon="7.01838">
        <ele>563</ele>
        <time>2009-07-09T11:22:01Z</time>
      </trkpt>
      <trkpt lat="43.88855" lon="7.01847">
        <ele>562</ele>
        <time>2009-07-09T11:22:03Z</time>
      </trkpt>
      <trkpt lat="43.8884" lon="7.01842">
        <ele>559</ele>
        <time>2009-07-09T11:22:07Z</time>
      </trkpt>
      <trkpt lat="43.88827" lon="7.01822">
        <ele>558</ele>
        <time>2009-07-09T11:22:10Z</time>
      </trkpt>
      <trkpt lat="43.88793" lon="7.01767">
        <ele>555</ele>
        <time>2009-07-09T11:22:19Z</time>
      </trkpt>
      <trkpt lat="43.88787" lon="7.01753">
        <ele>555</ele>
        <time>2009-07-09T11:22:21Z</time>
      </trkpt>
      <trkpt lat="43.88745" lon="7.0174">
        <ele>553</ele>
        <time>2009-07-09T11:22:31Z</time>
      </trkpt>
      <trkpt lat="43.88738" lon="7.01757">
        <ele>552</ele>
        <time>2009-07-09T11:22:35Z</time>
      </trkpt>
      <trkpt lat="43.8874" lon="7.01795">
        <ele>550</ele>
        <time>2009-07-09T11:22:50Z</time>
      </trkpt>
      <trkpt lat="43.88737" lon="7.0183">
        <ele>546</ele>
        <time>2009-07-09T11:22:57Z</time>
      </trkpt>
      <trkpt lat="43.88737" lon="7.01837">
        <ele>546</ele>
        <time>2009-07-09T11:22:58Z</time>
      </trkpt>
      <trkpt lat="43.8873" lon="7.01865">
        <ele>544</ele>
        <time>2009-07-09T11:23:02Z</time>
      </trkpt>
      <trkpt lat="43.88728" lon="7.0188">
        <ele>543</ele>
        <time>2009-07-09T11:23:04Z</time>
      </trkpt>
      <trkpt lat="43.88727" lon="7.01895">
        <ele>543</ele>
        <time>2009-07-09T11:23:06Z</time>
      </trkpt>
      <trkpt lat="43.88715" lon="7.01922">
        <ele>542</ele>
        <time>2009-07-09T11:23:11Z</time>
      </trkpt>
      <trkpt lat="43.88702" lon="7.01943">
        <ele>540</ele>
        <time>2009-07-09T11:23:16Z</time>
      </trkpt>
      <trkpt lat="43.88685" lon="7.0196">
        <ele>538</ele>
        <time>2009-07-09T11:23:21Z</time>
      </trkpt>
      <trkpt lat="43.88673" lon="7.0198">
        <ele>536</ele>
        <time>2009-07-09T11:23:30Z</time>
      </trkpt>
      <trkpt lat="43.88677" lon="7.02005">
        <ele>537</ele>
        <time>2009-07-09T11:23:42Z</time>
      </trkpt>
      <trkpt lat="43.8867" lon="7.02012">
        <ele>537</ele>
        <time>2009-07-09T11:23:47Z</time>
      </trkpt>
      <trkpt lat="43.88657" lon="7.02017">
        <ele>538</ele>
        <time>2009-07-09T11:24:02Z</time>
      </trkpt>
      <trkpt lat="43.88657" lon="7.02018">
        <ele>538</ele>
        <time>2009-07-09T11:24:04Z</time>
      </trkpt>
      <trkpt lat="43.88643" lon="7.02013">
        <ele>538</ele>
        <time>2009-07-09T11:24:15Z</time>
      </trkpt>
      <trkpt lat="43.88605" lon="7.0199">
        <ele>535</ele>
        <time>2009-07-09T11:24:25Z</time>
      </trkpt>
      <trkpt lat="43.88595" lon="7.01988">
        <ele>534</ele>
        <time>2009-07-09T11:24:28Z</time>
      </trkpt>
      <trkpt lat="43.88595" lon="7.02">
        <ele>533</ele>
        <time>2009-07-09T11:24:35Z</time>
      </trkpt>
      <trkpt lat="43.88598" lon="7.02012">
        <ele>533</ele>
        <time>2009-07-09T11:24:52Z</time>
      </trkpt>
      <trkpt lat="43.88602" lon="7.02012">
        <ele>531</ele>
        <time>2009-07-09T11:25:12Z</time>
      </trkpt>
      <trkpt lat="43.88605" lon="7.02017">
        <ele>531</ele>
        <time>2009-07-09T11:25:18Z</time>
      </trkpt>
      <trkpt lat="43.88598" lon="7.0202">
        <ele>530</ele>
        <time>2009-07-09T11:25:24Z</time>
      </trkpt>
      <trkpt lat="43.88577" lon="7.02003">
        <ele>526</ele>
        <time>2009-07-09T11:25:33Z</time>
      </trkpt>
      <trkpt lat="43.88545" lon="7.0196">
        <ele>524</ele>
        <time>2009-07-09T11:25:44Z</time>
      </trkpt>
      <trkpt lat="43.88523" lon="7.01957">
        <ele>524</ele>
        <time>2009-07-09T11:25:51Z</time>
      </trkpt>
      <trkpt lat="43.88508" lon="7.01967">
        <ele>523</ele>
        <time>2009-07-09T11:26:02Z</time>
      </trkpt>
      <trkpt lat="43.8849" lon="7.01963">
        <ele>522</ele>
        <time>2009-07-09T11:26:15Z</time>
      </trkpt>
      <trkpt lat="43.88472" lon="7.01937">
        <ele>520</ele>
        <time>2009-07-09T11:26:27Z</time>
      </trkpt>
      <trkpt lat="43.88468" lon="7.01908">
        <ele>532</ele>
        <time>2009-07-09T11:28:59Z</time>
      </trkpt>
      <trkpt lat="43.88458" lon="7.01907">
        <ele>532</ele>
        <time>2009-07-09T11:29:06Z</time>
      </trkpt>
      <trkpt lat="43.88445" lon="7.01908">
        <ele>533</ele>
        <time>2009-07-09T11:29:15Z</time>
      </trkpt>
      <trkpt lat="43.88438" lon="7.01898">
        <ele>532</ele>
        <time>2009-07-09T11:29:19Z</time>
      </trkpt>
      <trkpt lat="43.8843" lon="7.01885">
        <ele>532</ele>
        <time>2009-07-09T11:29:24Z</time>
      </trkpt>
      <trkpt lat="43.88418" lon="7.01882">
        <ele>533</ele>
        <time>2009-07-09T11:29:29Z</time>
      </trkpt>
      <trkpt lat="43.88402" lon="7.0187">
        <ele>534</ele>
        <time>2009-07-09T11:29:38Z</time>
      </trkpt>
      <trkpt lat="43.88397" lon="7.01865">
        <ele>534</ele>
        <time>2009-07-09T11:29:42Z</time>
      </trkpt>
      <trkpt lat="43.88378" lon="7.0189">
        <ele>535</ele>
        <time>2009-07-09T11:29:54Z</time>
      </trkpt>
      <trkpt lat="43.88375" lon="7.01897">
        <ele>535</ele>
        <time>2009-07-09T11:29:57Z</time>
      </trkpt>
      <trkpt lat="43.88367" lon="7.01932">
        <ele>537</ele>
        <time>2009-07-09T11:30:10Z</time>
      </trkpt>
      <trkpt lat="43.88363" lon="7.01937">
        <ele>537</ele>
        <time>2009-07-09T11:30:12Z</time>
      </trkpt>
      <trkpt lat="43.88342" lon="7.01955">
        <ele>539</ele>
        <time>2009-07-09T11:30:25Z</time>
      </trkpt>
      <trkpt lat="43.8833" lon="7.0196">
        <ele>541</ele>
        <time>2009-07-09T11:30:33Z</time>
      </trkpt>
      <trkpt lat="43.88318" lon="7.01963">
        <ele>542</ele>
        <time>2009-07-09T11:30:40Z</time>
      </trkpt>
      <trkpt lat="43.88295" lon="7.01973">
        <ele>544</ele>
        <time>2009-07-09T11:30:55Z</time>
      </trkpt>
      <trkpt lat="43.88278" lon="7.01978">
        <ele>547</ele>
        <time>2009-07-09T11:31:08Z</time>
      </trkpt>
      <trkpt lat="43.88268" lon="7.01985">
        <ele>549</ele>
        <time>2009-07-09T11:31:21Z</time>
      </trkpt>
      <trkpt lat="43.88263" lon="7.01982">
        <ele>550</ele>
        <time>2009-07-09T11:31:39Z</time>
      </trkpt>
      <trkpt lat="43.88258" lon="7.01962">
        <ele>552</ele>
        <time>2009-07-09T11:31:56Z</time>
      </trkpt>
      <trkpt lat="43.88255" lon="7.01953">
        <ele>555</ele>
        <time>2009-07-09T11:32:12Z</time>
      </trkpt>
      <trkpt lat="43.88242" lon="7.01947">
        <ele>559</ele>
        <time>2009-07-09T11:32:28Z</time>
      </trkpt>
      <trkpt lat="43.8823" lon="7.01952">
        <ele>561</ele>
        <time>2009-07-09T11:32:45Z</time>
      </trkpt>
      <trkpt lat="43.88225" lon="7.01947">
        <ele>563</ele>
        <time>2009-07-09T11:33:04Z</time>
      </trkpt>
      <trkpt lat="43.88233" lon="7.01932">
        <ele>565</ele>
        <time>2009-07-09T11:33:20Z</time>
      </trkpt>
      <trkpt lat="43.88218" lon="7.01937">
        <ele>568</ele>
        <time>2009-07-09T11:33:35Z</time>
      </trkpt>
      <trkpt lat="43.88212" lon="7.01923">
        <ele>571</ele>
        <time>2009-07-09T11:33:51Z</time>
      </trkpt>
      <trkpt lat="43.88212" lon="7.01913">
        <ele>572</ele>
        <time>2009-07-09T11:34:11Z</time>
      </trkpt>
      <trkpt lat="43.88205" lon="7.01905">
        <ele>571</ele>
        <time>2009-07-09T11:38:06Z</time>
      </trkpt>
      <trkpt lat="43.88205" lon="7.01905">
        <ele>571</ele>
        <time>2009-07-09T11:38:07Z</time>
      </trkpt>
      <trkpt lat="43.88198" lon="7.0189">
        <ele>571</ele>
        <time>2009-07-09T11:38:13Z</time>
      </trkpt>
      <trkpt lat="43.8819" lon="7.01855">
        <ele>571</ele>
        <time>2009-07-09T11:38:26Z</time>
      </trkpt>
      <trkpt lat="43.88182" lon="7.01838">
        <ele>570</ele>
        <time>2009-07-09T11:38:32Z</time>
      </trkpt>
      <trkpt lat="43.8817" lon="7.01808">
        <ele>568</ele>
        <time>2009-07-09T11:38:47Z</time>
      </trkpt>
      <trkpt lat="43.88165" lon="7.01807">
        <ele>565</ele>
        <time>2009-07-09T11:39:06Z</time>
      </trkpt>
      <trkpt lat="43.8816" lon="7.01808">
        <ele>563</ele>
        <time>2009-07-09T11:39:20Z</time>
      </trkpt>
      <trkpt lat="43.88153" lon="7.01805">
        <ele>561</ele>
        <time>2009-07-09T11:39:28Z</time>
      </trkpt>
      <trkpt lat="43.88137" lon="7.01792">
        <ele>559</ele>
        <time>2009-07-09T11:39:47Z</time>
      </trkpt>
      <trkpt lat="43.88127" lon="7.01785">
        <ele>556</ele>
        <time>2009-07-09T11:40:03Z</time>
      </trkpt>
      <trkpt lat="43.8812" lon="7.01782">
        <ele>554</ele>
        <time>2009-07-09T11:40:22Z</time>
      </trkpt>
      <trkpt lat="43.88113" lon="7.01775">
        <ele>553</ele>
        <time>2009-07-09T11:40:31Z</time>
      </trkpt>
      <trkpt lat="43.8811" lon="7.01775">
        <ele>552</ele>
        <time>2009-07-09T11:40:34Z</time>
      </trkpt>
      <trkpt lat="43.88097" lon="7.01755">
        <ele>549</ele>
        <time>2009-07-09T11:40:45Z</time>
      </trkpt>
      <trkpt lat="43.88093" lon="7.0175">
        <ele>549</ele>
        <time>2009-07-09T11:40:47Z</time>
      </trkpt>
      <trkpt lat="43.88085" lon="7.01707">
        <ele>547</ele>
        <time>2009-07-09T11:40:57Z</time>
      </trkpt>
      <trkpt lat="43.88088" lon="7.01665">
        <ele>544</ele>
        <time>2009-07-09T11:41:07Z</time>
      </trkpt>
      <trkpt lat="43.88085" lon="7.01655">
        <ele>542</ele>
        <time>2009-07-09T11:41:11Z</time>
      </trkpt>
      <trkpt lat="43.88078" lon="7.01632">
        <ele>539</ele>
        <time>2009-07-09T11:41:21Z</time>
      </trkpt>
      <trkpt lat="43.88075" lon="7.01628">
        <ele>539</ele>
        <time>2009-07-09T11:41:23Z</time>
      </trkpt>
      <trkpt lat="43.88068" lon="7.0162">
        <ele>538</ele>
        <time>2009-07-09T11:41:27Z</time>
      </trkpt>
      <trkpt lat="43.8805" lon="7.016">
        <ele>535</ele>
        <time>2009-07-09T11:41:36Z</time>
      </trkpt>
      <trkpt lat="43.88048" lon="7.01565">
        <ele>535</ele>
        <time>2009-07-09T11:41:48Z</time>
      </trkpt>
      <trkpt lat="43.88042" lon="7.0155">
        <ele>534</ele>
        <time>2009-07-09T11:41:56Z</time>
      </trkpt>
      <trkpt lat="43.88042" lon="7.01543">
        <ele>531</ele>
        <time>2009-07-09T11:43:37Z</time>
      </trkpt>
      <trkpt lat="43.88037" lon="7.0154">
        <ele>528</ele>
        <time>2009-07-09T11:43:50Z</time>
      </trkpt>
      <trkpt lat="43.88023" lon="7.01538">
        <ele>525</ele>
        <time>2009-07-09T11:44:03Z</time>
      </trkpt>
      <trkpt lat="43.88008" lon="7.01528">
        <ele>523</ele>
        <time>2009-07-09T11:44:18Z</time>
      </trkpt>
      <trkpt lat="43.88003" lon="7.01527">
        <ele>521</ele>
        <time>2009-07-09T11:44:22Z</time>
      </trkpt>
      <trkpt lat="43.87998" lon="7.01523">
        <ele>519</ele>
        <time>2009-07-09T11:44:26Z</time>
      </trkpt>
      <trkpt lat="43.87983" lon="7.0152">
        <ele>516</ele>
        <time>2009-07-09T11:44:35Z</time>
      </trkpt>
      <trkpt lat="43.87977" lon="7.01508">
        <ele>514</ele>
        <time>2009-07-09T11:44:46Z</time>
      </trkpt>
      <trkpt lat="43.87973" lon="7.01503">
        <ele>513</ele>
        <time>2009-07-09T11:44:49Z</time>
      </trkpt>
      <trkpt lat="43.87972" lon="7.01502">
        <ele>513</ele>
        <time>2009-07-09T11:44:50Z</time>
      </trkpt>
      <trkpt lat="43.87962" lon="7.01483">
        <ele>510</ele>
        <time>2009-07-09T11:45:04Z</time>
      </trkpt>
      <trkpt lat="43.87962" lon="7.01478">
        <ele>509</ele>
        <time>2009-07-09T11:45:07Z</time>
      </trkpt>
      <trkpt lat="43.8795" lon="7.01452">
        <ele>505</ele>
        <time>2009-07-09T11:45:22Z</time>
      </trkpt>
      <trkpt lat="43.8795" lon="7.01448">
        <ele>505</ele>
        <time>2009-07-09T11:45:24Z</time>
      </trkpt>
      <trkpt lat="43.8794" lon="7.0142">
        <ele>502</ele>
        <time>2009-07-09T11:45:35Z</time>
      </trkpt>
      <trkpt lat="43.87928" lon="7.01395">
        <ele>499</ele>
        <time>2009-07-09T11:45:44Z</time>
      </trkpt>
      <trkpt lat="43.8792" lon="7.0138">
        <ele>496</ele>
        <time>2009-07-09T11:45:51Z</time>
      </trkpt>
      <trkpt lat="43.87917" lon="7.0137">
        <ele>495</ele>
        <time>2009-07-09T11:45:55Z</time>
      </trkpt>
      <trkpt lat="43.87912" lon="7.01363">
        <ele>494</ele>
        <time>2009-07-09T11:45:58Z</time>
      </trkpt>
      <trkpt lat="43.87905" lon="7.01348">
        <ele>492</ele>
        <time>2009-07-09T11:46:03Z</time>
      </trkpt>
      <trkpt lat="43.87898" lon="7.01327">
        <ele>489</ele>
        <time>2009-07-09T11:46:10Z</time>
      </trkpt>
      <trkpt lat="43.87892" lon="7.01298">
        <ele>486</ele>
        <time>2009-07-09T11:46:19Z</time>
      </trkpt>
      <trkpt lat="43.87892" lon="7.01295">
        <ele>486</ele>
        <time>2009-07-09T11:46:20Z</time>
      </trkpt>
      <trkpt lat="43.87888" lon="7.01288">
        <ele>483</ele>
        <time>2009-07-09T11:46:24Z</time>
      </trkpt>
      <trkpt lat="43.87887" lon="7.01287">
        <ele>482</ele>
        <time>2009-07-09T11:46:26Z</time>
      </trkpt>
      <trkpt lat="43.87877" lon="7.01268">
        <ele>479</ele>
        <time>2009-07-09T11:46:33Z</time>
      </trkpt>
      <trkpt lat="43.8787" lon="7.01238">
        <ele>476</ele>
        <time>2009-07-09T11:46:42Z</time>
      </trkpt>
      <trkpt lat="43.87872" lon="7.01232">
        <ele>475</ele>
        <time>2009-07-09T11:46:46Z</time>
      </trkpt>
      <trkpt lat="43.87873" lon="7.01223">
        <ele>474</ele>
        <time>2009-07-09T11:46:50Z</time>
      </trkpt>
      <trkpt lat="43.87872" lon="7.0121">
        <ele>472</ele>
        <time>2009-07-09T11:46:54Z</time>
      </trkpt>
      <trkpt lat="43.8787" lon="7.01192">
        <ele>469</ele>
        <time>2009-07-09T11:47:01Z</time>
      </trkpt>
      <trkpt lat="43.87872" lon="7.01138">
        <ele>465</ele>
        <time>2009-07-09T11:47:12Z</time>
      </trkpt>
      <trkpt lat="43.8787" lon="7.01125">
        <ele>464</ele>
        <time>2009-07-09T11:47:17Z</time>
      </trkpt>
      <trkpt lat="43.87872" lon="7.01105">
        <ele>462</ele>
        <time>2009-07-09T11:47:28Z</time>
      </trkpt>
      <trkpt lat="43.87863" lon="7.01098">
        <ele>461</ele>
        <time>2009-07-09T11:47:46Z</time>
      </trkpt>
      <trkpt lat="43.87857" lon="7.01075">
        <ele>457</ele>
        <time>2009-07-09T11:48:09Z</time>
      </trkpt>
      <trkpt lat="43.87857" lon="7.01072">
        <ele>456</ele>
        <time>2009-07-09T11:48:11Z</time>
      </trkpt>
      <trkpt lat="43.87863" lon="7.0106">
        <ele>454</ele>
        <time>2009-07-09T11:48:15Z</time>
      </trkpt>
      <trkpt lat="43.8787" lon="7.01047">
        <ele>451</ele>
        <time>2009-07-09T11:48:23Z</time>
      </trkpt>
      <trkpt lat="43.87877" lon="7.0104">
        <ele>450</ele>
        <time>2009-07-09T11:48:27Z</time>
      </trkpt>
      <trkpt lat="43.87887" lon="7.01025">
        <ele>448</ele>
        <time>2009-07-09T11:48:31Z</time>
      </trkpt>
      <trkpt lat="43.87885" lon="7.0102">
        <ele>446</ele>
        <time>2009-07-09T11:48:33Z</time>
      </trkpt>
      <trkpt lat="43.87885" lon="7.01015">
        <ele>446</ele>
        <time>2009-07-09T11:48:35Z</time>
      </trkpt>
      <trkpt lat="43.8788" lon="7.01005">
        <ele>443</ele>
        <time>2009-07-09T11:48:53Z</time>
      </trkpt>
      <trkpt lat="43.87878" lon="7.00998">
        <ele>443</ele>
        <time>2009-07-09T11:50:10Z</time>
      </trkpt>
      <trkpt lat="43.8789" lon="7.00987">
        <ele>442</ele>
        <time>2009-07-09T11:50:16Z</time>
      </trkpt>
      <trkpt lat="43.87888" lon="7.0097">
        <ele>441</ele>
        <time>2009-07-09T11:50:21Z</time>
      </trkpt>
      <trkpt lat="43.87853" lon="7.00948">
        <ele>439</ele>
        <time>2009-07-09T11:50:28Z</time>
      </trkpt>
      <trkpt lat="43.87812" lon="7.00922">
        <ele>436</ele>
        <time>2009-07-09T11:50:36Z</time>
      </trkpt>
      <trkpt lat="43.87803" lon="7.00917">
        <ele>435</ele>
        <time>2009-07-09T11:50:38Z</time>
      </trkpt>
      <trkpt lat="43.87795" lon="7.0091">
        <ele>434</ele>
        <time>2009-07-09T11:50:40Z</time>
      </trkpt>
      <trkpt lat="43.87753" lon="7.0088">
        <ele>431</ele>
        <time>2009-07-09T11:50:50Z</time>
      </trkpt>
      <trkpt lat="43.87737" lon="7.00857">
        <ele>429</ele>
        <time>2009-07-09T11:50:54Z</time>
      </trkpt>
      <trkpt lat="43.8773" lon="7.00837">
        <ele>428</ele>
        <time>2009-07-09T11:50:57Z</time>
      </trkpt>
      <trkpt lat="43.87708" lon="7.00767">
        <ele>424</ele>
        <time>2009-07-09T11:51:06Z</time>
      </trkpt>
      <trkpt lat="43.87695" lon="7.00717">
        <ele>421</ele>
        <time>2009-07-09T11:51:14Z</time>
      </trkpt>
      <trkpt lat="43.87687" lon="7.00685">
        <ele>419</ele>
        <time>2009-07-09T11:51:19Z</time>
      </trkpt>
      <trkpt lat="43.87652" lon="7.0063">
        <ele>415</ele>
        <time>2009-07-09T11:51:30Z</time>
      </trkpt>
      <trkpt lat="43.87638" lon="7.00607">
        <ele>414</ele>
        <time>2009-07-09T11:51:33Z</time>
      </trkpt>
      <trkpt lat="43.8763" lon="7.0058">
        <ele>413</ele>
        <time>2009-07-09T11:51:38Z</time>
      </trkpt>
      <trkpt lat="43.87625" lon="7.00562">
        <ele>412</ele>
        <time>2009-07-09T11:51:47Z</time>
      </trkpt>
      <trkpt lat="43.87622" lon="7.00553">
        <ele>411</ele>
        <time>2009-07-09T11:52:00Z</time>
      </trkpt>
      <trkpt lat="43.87622" lon="7.0055">
        <ele>411</ele>
        <time>2009-07-09T11:52:08Z</time>
      </trkpt>
      <trkpt lat="43.87618" lon="7.00507">
        <ele>409</ele>
        <time>2009-07-09T11:52:19Z</time>
      </trkpt>
      <trkpt lat="43.8762" lon="7.00458">
        <ele>407</ele>
        <time>2009-07-09T11:52:25Z</time>
      </trkpt>
      <trkpt lat="43.87612" lon="7.00412">
        <ele>404</ele>
        <time>2009-07-09T11:52:30Z</time>
      </trkpt>
      <trkpt lat="43.87592" lon="7.0037">
        <ele>401</ele>
        <time>2009-07-09T11:52:35Z</time>
      </trkpt>
      <trkpt lat="43.87587" lon="7.00353">
        <ele>401</ele>
        <time>2009-07-09T11:52:37Z</time>
      </trkpt>
      <trkpt lat="43.87583" lon="7.00335">
        <ele>400</ele>
        <time>2009-07-09T11:52:40Z</time>
      </trkpt>
      <trkpt lat="43.87575" lon="7.00352">
        <ele>398</ele>
        <time>2009-07-09T11:52:47Z</time>
      </trkpt>
      <trkpt lat="43.87585" lon="7.00393">
        <ele>396</ele>
        <time>2009-07-09T11:52:53Z</time>
      </trkpt>
      <trkpt lat="43.87588" lon="7.00408">
        <ele>395</ele>
        <time>2009-07-09T11:52:55Z</time>
      </trkpt>
      <trkpt lat="43.87593" lon="7.00423">
        <ele>395</ele>
        <time>2009-07-09T11:52:57Z</time>
      </trkpt>
      <trkpt lat="43.87588" lon="7.00452">
        <ele>392</ele>
        <time>2009-07-09T11:53:03Z</time>
      </trkpt>
      <trkpt lat="43.8758" lon="7.00462">
        <ele>392</ele>
        <time>2009-07-09T11:53:06Z</time>
      </trkpt>
      <trkpt lat="43.87573" lon="7.00448">
        <ele>391</ele>
        <time>2009-07-09T11:53:10Z</time>
      </trkpt>
      <trkpt lat="43.87567" lon="7.00418">
        <ele>389</ele>
        <time>2009-07-09T11:53:15Z</time>
      </trkpt>
      <trkpt lat="43.87553" lon="7.00383">
        <ele>388</ele>
        <time>2009-07-09T11:53:20Z</time>
      </trkpt>
      <trkpt lat="43.87537" lon="7.00347">
        <ele>386</ele>
        <time>2009-07-09T11:53:24Z</time>
      </trkpt>
      <trkpt lat="43.87517" lon="7.00303">
        <ele>384</ele>
        <time>2009-07-09T11:53:28Z</time>
      </trkpt>
      <trkpt lat="43.87512" lon="7.00292">
        <ele>383</ele>
        <time>2009-07-09T11:53:29Z</time>
      </trkpt>
      <trkpt lat="43.87473" lon="7.0024">
        <ele>379</ele>
        <time>2009-07-09T11:53:35Z</time>
      </trkpt>
      <trkpt lat="43.87458" lon="7.00182">
        <ele>377</ele>
        <time>2009-07-09T11:53:40Z</time>
      </trkpt>
      <trkpt lat="43.87458" lon="7.00128">
        <ele>375</ele>
        <time>2009-07-09T11:53:44Z</time>
      </trkpt>
      <trkpt lat="43.87462" lon="7.00092">
        <ele>372</ele>
        <time>2009-07-09T11:53:47Z</time>
      </trkpt>
      <trkpt lat="43.87467" lon="7.0006">
        <ele>371</ele>
        <time>2009-07-09T11:53:50Z</time>
      </trkpt>
      <trkpt lat="43.87465" lon="7.00043">
        <ele>370</ele>
        <time>2009-07-09T11:53:52Z</time>
      </trkpt>
      <trkpt lat="43.87447" lon="7.00045">
        <ele>368</ele>
        <time>2009-07-09T11:53:56Z</time>
      </trkpt>
      <trkpt lat="43.87437" lon="7.00073">
        <ele>366</ele>
        <time>2009-07-09T11:53:59Z</time>
      </trkpt>
      <trkpt lat="43.87433" lon="7.00083">
        <ele>366</ele>
        <time>2009-07-09T11:54:00Z</time>
      </trkpt>
      <trkpt lat="43.87427" lon="7.00105">
        <ele>365</ele>
        <time>2009-07-09T11:54:02Z</time>
      </trkpt>
      <trkpt lat="43.87408" lon="7.00125">
        <ele>364</ele>
        <time>2009-07-09T11:54:05Z</time>
      </trkpt>
      <trkpt lat="43.87392" lon="7.00158">
        <ele>363</ele>
        <time>2009-07-09T11:54:09Z</time>
      </trkpt>
      <trkpt lat="43.87392" lon="7.00227">
        <ele>360</ele>
        <time>2009-07-09T11:54:15Z</time>
      </trkpt>
      <trkpt lat="43.87397" lon="7.0025">
        <ele>358</ele>
        <time>2009-07-09T11:54:17Z</time>
      </trkpt>
      <trkpt lat="43.87408" lon="7.00307">
        <ele>355</ele>
        <time>2009-07-09T11:54:23Z</time>
      </trkpt>
      <trkpt lat="43.87418" lon="7.00367">
        <ele>352</ele>
        <time>2009-07-09T11:54:29Z</time>
      </trkpt>
      <trkpt lat="43.8742" lon="7.00395">
        <ele>352</ele>
        <time>2009-07-09T11:54:32Z</time>
      </trkpt>
      <trkpt lat="43.87422" lon="7.00438">
        <ele>351</ele>
        <time>2009-07-09T11:54:43Z</time>
      </trkpt>
      <trkpt lat="43.87418" lon="7.00475">
        <ele>350</ele>
        <time>2009-07-09T11:54:54Z</time>
      </trkpt>
      <trkpt lat="43.87418" lon="7.00532">
        <ele>348</ele>
        <time>2009-07-09T11:55:05Z</time>
      </trkpt>
      <trkpt lat="43.87418" lon="7.00577">
        <ele>347</ele>
        <time>2009-07-09T11:55:19Z</time>
      </trkpt>
      <trkpt lat="43.87417" lon="7.00608">
        <ele>346</ele>
        <time>2009-07-09T11:55:25Z</time>
      </trkpt>
      <trkpt lat="43.87417" lon="7.00635">
        <ele>345</ele>
        <time>2009-07-09T11:55:31Z</time>
      </trkpt>
      <trkpt lat="43.8742" lon="7.00682">
        <ele>344</ele>
        <time>2009-07-09T11:55:39Z</time>
      </trkpt>
      <trkpt lat="43.87432" lon="7.00705">
        <ele>343</ele>
        <time>2009-07-09T11:55:48Z</time>
      </trkpt>
      <trkpt lat="43.87432" lon="7.00718">
        <ele>343</ele>
        <time>2009-07-09T11:56:27Z</time>
      </trkpt>
      <trkpt lat="43.87443" lon="7.00743">
        <ele>341</ele>
        <time>2009-07-09T11:56:46Z</time>
      </trkpt>
      <trkpt lat="43.87452" lon="7.00768">
        <ele>340</ele>
        <time>2009-07-09T11:56:57Z</time>
      </trkpt>
      <trkpt lat="43.87453" lon="7.00778">
        <ele>340</ele>
        <time>2009-07-09T11:57:09Z</time>
      </trkpt>
      <trkpt lat="43.8747" lon="7.00818">
        <ele>339</ele>
        <time>2009-07-09T11:58:23Z</time>
      </trkpt>
      <trkpt lat="43.87473" lon="7.00837">
        <ele>339</ele>
        <time>2009-07-09T11:58:26Z</time>
      </trkpt>
      <trkpt lat="43.87482" lon="7.00858">
        <ele>338</ele>
        <time>2009-07-09T11:58:30Z</time>
      </trkpt>
      <trkpt lat="43.87488" lon="7.00903">
        <ele>336</ele>
        <time>2009-07-09T11:58:38Z</time>
      </trkpt>
      <trkpt lat="43.87478" lon="7.00922">
        <ele>336</ele>
        <time>2009-07-09T11:58:42Z</time>
      </trkpt>
      <trkpt lat="43.87443" lon="7.00943">
        <ele>335</ele>
        <time>2009-07-09T11:58:52Z</time>
      </trkpt>
      <trkpt lat="43.8742" lon="7.0095">
        <ele>335</ele>
        <time>2009-07-09T11:58:59Z</time>
      </trkpt>
      <trkpt lat="43.87383" lon="7.00917">
        <ele>335</ele>
        <time>2009-07-09T11:59:11Z</time>
      </trkpt>
      <trkpt lat="43.87355" lon="7.00872">
        <ele>336</ele>
        <time>2009-07-09T11:59:23Z</time>
      </trkpt>
      <trkpt lat="43.87317" lon="7.00833">
        <ele>336</ele>
        <time>2009-07-09T11:59:35Z</time>
      </trkpt>
      <trkpt lat="43.87277" lon="7.00815">
        <ele>336</ele>
        <time>2009-07-09T11:59:47Z</time>
      </trkpt>
      <trkpt lat="43.87238" lon="7.00775">
        <ele>336</ele>
        <time>2009-07-09T11:59:57Z</time>
      </trkpt>
      <trkpt lat="43.87218" lon="7.00717">
        <ele>336</ele>
        <time>2009-07-09T12:00:10Z</time>
      </trkpt>
      <trkpt lat="43.87192" lon="7.00685">
        <ele>337</ele>
        <time>2009-07-09T12:00:21Z</time>
      </trkpt>
      <trkpt lat="43.87178" lon="7.00663">
        <ele>337</ele>
        <time>2009-07-09T12:00:31Z</time>
      </trkpt>
      <trkpt lat="43.87178" lon="7.00652">
        <ele>334</ele>
        <time>2009-07-09T12:00:43Z</time>
      </trkpt>
      <trkpt lat="43.87177" lon="7.00642">
        <ele>332</ele>
        <time>2009-07-09T12:00:55Z</time>
      </trkpt>
      <trkpt lat="43.8717" lon="7.00637">
        <ele>329</ele>
        <time>2009-07-09T12:01:09Z</time>
      </trkpt>
      <trkpt lat="43.87175" lon="7.00635">
        <ele>329</ele>
        <time>2009-07-09T12:01:20Z</time>
      </trkpt>
      <trkpt lat="43.87185" lon="7.00625">
        <ele>329</ele>
        <time>2009-07-09T12:01:25Z</time>
      </trkpt>
      <trkpt lat="43.87185" lon="7.00613">
        <ele>329</ele>
        <time>2009-07-09T12:01:33Z</time>
      </trkpt>
      <trkpt lat="43.87183" lon="7.00603">
        <ele>329</ele>
        <time>2009-07-09T12:01:37Z</time>
      </trkpt>
      <trkpt lat="43.8719" lon="7.00588">
        <ele>328</ele>
        <time>2009-07-09T12:01:56Z</time>
      </trkpt>
      <trkpt lat="43.87173" lon="7.00573">
        <ele>334</ele>
        <time>2009-07-09T14:16:53Z</time>
      </trkpt>
      <trkpt lat="43.87143" lon="7.00548">
        <ele>335</ele>
        <time>2009-07-09T14:17:03Z</time>
      </trkpt>
      <trkpt lat="43.87107" lon="7.00513">
        <ele>337</ele>
        <time>2009-07-09T14:17:17Z</time>
      </trkpt>
      <trkpt lat="43.8709" lon="7.00488">
        <ele>339</ele>
        <time>2009-07-09T14:17:28Z</time>
      </trkpt>
      <trkpt lat="43.87088" lon="7.00487">
        <ele>339</ele>
        <time>2009-07-09T14:17:29Z</time>
      </trkpt>
      <trkpt lat="43.87085" lon="7.00478">
        <ele>339</ele>
        <time>2009-07-09T14:17:32Z</time>
      </trkpt>
      <trkpt lat="43.87063" lon="7.00463">
        <ele>340</ele>
        <time>2009-07-09T14:17:38Z</time>
      </trkpt>
      <trkpt lat="43.87027" lon="7.00448">
        <ele>342</ele>
        <time>2009-07-09T14:17:50Z</time>
      </trkpt>
      <trkpt lat="43.86992" lon="7.00432">
        <ele>344</ele>
        <time>2009-07-09T14:18:03Z</time>
      </trkpt>
      <trkpt lat="43.86962" lon="7.00427">
        <ele>346</ele>
        <time>2009-07-09T14:18:14Z</time>
      </trkpt>
      <trkpt lat="43.86942" lon="7.00437">
        <ele>347</ele>
        <time>2009-07-09T14:18:26Z</time>
      </trkpt>
      <trkpt lat="43.8694" lon="7.00438">
        <ele>347</ele>
        <time>2009-07-09T14:18:42Z</time>
      </trkpt>
      <trkpt lat="43.86912" lon="7.00462">
        <ele>348</ele>
        <time>2009-07-09T14:18:53Z</time>
      </trkpt>
      <trkpt lat="43.86878" lon="7.00452">
        <ele>350</ele>
        <time>2009-07-09T14:19:03Z</time>
      </trkpt>
      <trkpt lat="43.86868" lon="7.00445">
        <ele>350</ele>
        <time>2009-07-09T14:19:06Z</time>
      </trkpt>
      <trkpt lat="43.86852" lon="7.00448">
        <ele>351</ele>
        <time>2009-07-09T14:19:15Z</time>
      </trkpt>
      <trkpt lat="43.8685" lon="7.0045">
        <ele>351</ele>
        <time>2009-07-09T14:19:25Z</time>
      </trkpt>
      <trkpt lat="43.86847" lon="7.00457">
        <ele>351</ele>
        <time>2009-07-09T14:19:30Z</time>
      </trkpt>
      <trkpt lat="43.86822" lon="7.00458">
        <ele>353</ele>
        <time>2009-07-09T14:19:46Z</time>
      </trkpt>
      <trkpt lat="43.86822" lon="7.0046">
        <ele>353</ele>
        <time>2009-07-09T14:19:47Z</time>
      </trkpt>
      <trkpt lat="43.86812" lon="7.00465">
        <ele>353</ele>
        <time>2009-07-09T14:20:02Z</time>
      </trkpt>
      <trkpt lat="43.86827" lon="7.00465">
        <ele>353</ele>
        <time>2009-07-09T14:20:28Z</time>
      </trkpt>
      <trkpt lat="43.86815" lon="7.00468">
        <ele>354</ele>
        <time>2009-07-09T14:20:44Z</time>
      </trkpt>
      <trkpt lat="43.86793" lon="7.00475">
        <ele>357</ele>
        <time>2009-07-09T14:20:57Z</time>
      </trkpt>
      <trkpt lat="43.86787" lon="7.00477">
        <ele>358</ele>
        <time>2009-07-09T14:21:00Z</time>
      </trkpt>
      <trkpt lat="43.86762" lon="7.00487">
        <ele>361</ele>
        <time>2009-07-09T14:21:14Z</time>
      </trkpt>
      <trkpt lat="43.86747" lon="7.00497">
        <ele>363</ele>
        <time>2009-07-09T14:21:25Z</time>
      </trkpt>
      <trkpt lat="43.86725" lon="7.00497">
        <ele>366</ele>
        <time>2009-07-09T14:21:38Z</time>
      </trkpt>
      <trkpt lat="43.86717" lon="7.00497">
        <ele>367</ele>
        <time>2009-07-09T14:21:44Z</time>
      </trkpt>
      <trkpt lat="43.86715" lon="7.005">
        <ele>368</ele>
        <time>2009-07-09T14:21:46Z</time>
      </trkpt>
      <trkpt lat="43.86712" lon="7.00508">
        <ele>369</ele>
        <time>2009-07-09T14:21:51Z</time>
      </trkpt>
      <trkpt lat="43.86705" lon="7.00513">
        <ele>370</ele>
        <time>2009-07-09T14:21:55Z</time>
      </trkpt>
      <trkpt lat="43.867" lon="7.0052">
        <ele>371</ele>
        <time>2009-07-09T14:22:00Z</time>
      </trkpt>
      <trkpt lat="43.86687" lon="7.00528">
        <ele>374</ele>
        <time>2009-07-09T14:22:14Z</time>
      </trkpt>
      <trkpt lat="43.8668" lon="7.00527">
        <ele>375</ele>
        <time>2009-07-09T14:22:21Z</time>
      </trkpt>
      <trkpt lat="43.86665" lon="7.00533">
        <ele>376</ele>
        <time>2009-07-09T14:22:30Z</time>
      </trkpt>
      <trkpt lat="43.86642" lon="7.00535">
        <ele>378</ele>
        <time>2009-07-09T14:22:43Z</time>
      </trkpt>
      <trkpt lat="43.86627" lon="7.00533">
        <ele>380</ele>
        <time>2009-07-09T14:22:55Z</time>
      </trkpt>
      <trkpt lat="43.86613" lon="7.00532">
        <ele>383</ele>
        <time>2009-07-09T14:23:07Z</time>
      </trkpt>
      <trkpt lat="43.86593" lon="7.00528">
        <ele>386</ele>
        <time>2009-07-09T14:23:20Z</time>
      </trkpt>
      <trkpt lat="43.86587" lon="7.0052">
        <ele>387</ele>
        <time>2009-07-09T14:23:26Z</time>
      </trkpt>
      <trkpt lat="43.86567" lon="7.00505">
        <ele>390</ele>
        <time>2009-07-09T14:23:40Z</time>
      </trkpt>
      <trkpt lat="43.86558" lon="7.00507">
        <ele>391</ele>
        <time>2009-07-09T14:23:46Z</time>
      </trkpt>
      <trkpt lat="43.86555" lon="7.00508">
        <ele>391</ele>
        <time>2009-07-09T14:23:52Z</time>
      </trkpt>
      <trkpt lat="43.86562" lon="7.00513">
        <ele>391</ele>
        <time>2009-07-09T14:23:56Z</time>
      </trkpt>
      <trkpt lat="43.86573" lon="7.00557">
        <ele>394</ele>
        <time>2009-07-09T14:24:12Z</time>
      </trkpt>
      <trkpt lat="43.86578" lon="7.00588">
        <ele>398</ele>
        <time>2009-07-09T14:24:25Z</time>
      </trkpt>
      <trkpt lat="43.86587" lon="7.00615">
        <ele>400</ele>
        <time>2009-07-09T14:24:40Z</time>
      </trkpt>
      <trkpt lat="43.86585" lon="7.0063">
        <ele>401</ele>
        <time>2009-07-09T14:24:47Z</time>
      </trkpt>
      <trkpt lat="43.86583" lon="7.00635">
        <ele>402</ele>
        <time>2009-07-09T14:24:49Z</time>
      </trkpt>
      <trkpt lat="43.86575" lon="7.0066">
        <ele>405</ele>
        <time>2009-07-09T14:25:04Z</time>
      </trkpt>
      <trkpt lat="43.86555" lon="7.00672">
        <ele>408</ele>
        <time>2009-07-09T14:25:17Z</time>
      </trkpt>
      <trkpt lat="43.86542" lon="7.00673">
        <ele>411</ele>
        <time>2009-07-09T14:25:29Z</time>
      </trkpt>
      <trkpt lat="43.86543" lon="7.00678">
        <ele>412</ele>
        <time>2009-07-09T14:25:37Z</time>
      </trkpt>
      <trkpt lat="43.86545" lon="7.00695">
        <ele>412</ele>
        <time>2009-07-09T14:25:41Z</time>
      </trkpt>
      <trkpt lat="43.86548" lon="7.00707">
        <ele>413</ele>
        <time>2009-07-09T14:25:45Z</time>
      </trkpt>
      <trkpt lat="43.86547" lon="7.00723">
        <ele>414</ele>
        <time>2009-07-09T14:25:51Z</time>
      </trkpt>
      <trkpt lat="43.86542" lon="7.00762">
        <ele>417</ele>
        <time>2009-07-09T14:26:08Z</time>
      </trkpt>
      <trkpt lat="43.8653" lon="7.0078">
        <ele>419</ele>
        <time>2009-07-09T14:26:20Z</time>
      </trkpt>
      <trkpt lat="43.86527" lon="7.00787">
        <ele>420</ele>
        <time>2009-07-09T14:26:24Z</time>
      </trkpt>
      <trkpt lat="43.8651" lon="7.00805">
        <ele>422</ele>
        <time>2009-07-09T14:26:39Z</time>
      </trkpt>
      <trkpt lat="43.86498" lon="7.0081">
        <ele>424</ele>
        <time>2009-07-09T14:26:46Z</time>
      </trkpt>
      <trkpt lat="43.86492" lon="7.00817">
        <ele>426</ele>
        <time>2009-07-09T14:26:56Z</time>
      </trkpt>
      <trkpt lat="43.86478" lon="7.00817">
        <ele>428</ele>
        <time>2009-07-09T14:27:07Z</time>
      </trkpt>
      <trkpt lat="43.86478" lon="7.00818">
        <ele>428</ele>
        <time>2009-07-09T14:27:09Z</time>
      </trkpt>
      <trkpt lat="43.86467" lon="7.00868">
        <ele>430</ele>
        <time>2009-07-09T14:27:22Z</time>
      </trkpt>
      <trkpt lat="43.8648" lon="7.00897">
        <ele>433</ele>
        <time>2009-07-09T14:27:37Z</time>
      </trkpt>
      <trkpt lat="43.86497" lon="7.00917">
        <ele>436</ele>
        <time>2009-07-09T14:27:50Z</time>
      </trkpt>
      <trkpt lat="43.86497" lon="7.00928">
        <ele>437</ele>
        <time>2009-07-09T14:27:56Z</time>
      </trkpt>
      <trkpt lat="43.86493" lon="7.00938">
        <ele>438</ele>
        <time>2009-07-09T14:28:01Z</time>
      </trkpt>
      <trkpt lat="43.8649" lon="7.00947">
        <ele>439</ele>
        <time>2009-07-09T14:28:05Z</time>
      </trkpt>
      <trkpt lat="43.8649" lon="7.00958">
        <ele>440</ele>
        <time>2009-07-09T14:28:12Z</time>
      </trkpt>
      <trkpt lat="43.86488" lon="7.00975">
        <ele>441</ele>
        <time>2009-07-09T14:28:20Z</time>
      </trkpt>
      <trkpt lat="43.86478" lon="7.01005">
        <ele>445</ele>
        <time>2009-07-09T14:28:35Z</time>
      </trkpt>
      <trkpt lat="43.86463" lon="7.01018">
        <ele>447</ele>
        <time>2009-07-09T14:28:48Z</time>
      </trkpt>
      <trkpt lat="43.86452" lon="7.01045">
        <ele>450</ele>
        <time>2009-07-09T14:29:02Z</time>
      </trkpt>
      <trkpt lat="43.86438" lon="7.01065">
        <ele>452</ele>
        <time>2009-07-09T14:29:15Z</time>
      </trkpt>
      <trkpt lat="43.8643" lon="7.01077">
        <ele>453</ele>
        <time>2009-07-09T14:29:22Z</time>
      </trkpt>
      <trkpt lat="43.86425" lon="7.01113">
        <ele>456</ele>
        <time>2009-07-09T14:29:37Z</time>
      </trkpt>
      <trkpt lat="43.86425" lon="7.0112">
        <ele>456</ele>
        <time>2009-07-09T14:29:40Z</time>
      </trkpt>
      <trkpt lat="43.8642" lon="7.01128">
        <ele>457</ele>
        <time>2009-07-09T14:29:45Z</time>
      </trkpt>
      <trkpt lat="43.864" lon="7.0115">
        <ele>460</ele>
        <time>2009-07-09T14:30:01Z</time>
      </trkpt>
      <trkpt lat="43.86388" lon="7.01173">
        <ele>463</ele>
        <time>2009-07-09T14:30:14Z</time>
      </trkpt>
      <trkpt lat="43.86387" lon="7.01193">
        <ele>465</ele>
        <time>2009-07-09T14:30:23Z</time>
      </trkpt>
      <trkpt lat="43.8638" lon="7.01225">
        <ele>468</ele>
        <time>2009-07-09T14:30:39Z</time>
      </trkpt>
      <trkpt lat="43.8638" lon="7.01235">
        <ele>469</ele>
        <time>2009-07-09T14:30:43Z</time>
      </trkpt>
      <trkpt lat="43.86375" lon="7.01253">
        <ele>471</ele>
        <time>2009-07-09T14:30:53Z</time>
      </trkpt>
      <trkpt lat="43.86368" lon="7.01257">
        <ele>472</ele>
        <time>2009-07-09T14:30:59Z</time>
      </trkpt>
      <trkpt lat="43.86348" lon="7.01262">
        <ele>475</ele>
        <time>2009-07-09T14:31:10Z</time>
      </trkpt>
      <trkpt lat="43.86337" lon="7.01272">
        <ele>477</ele>
        <time>2009-07-09T14:31:19Z</time>
      </trkpt>
      <trkpt lat="43.86332" lon="7.0128">
        <ele>478</ele>
        <time>2009-07-09T14:31:24Z</time>
      </trkpt>
      <trkpt lat="43.86328" lon="7.0129">
        <ele>479</ele>
        <time>2009-07-09T14:31:28Z</time>
      </trkpt>
      <trkpt lat="43.86322" lon="7.01305">
        <ele>481</ele>
        <time>2009-07-09T14:31:36Z</time>
      </trkpt>
      <trkpt lat="43.86303" lon="7.01317">
        <ele>483</ele>
        <time>2009-07-09T14:31:49Z</time>
      </trkpt>
      <trkpt lat="43.863" lon="7.01323">
        <ele>484</ele>
        <time>2009-07-09T14:31:54Z</time>
      </trkpt>
      <trkpt lat="43.863" lon="7.01352">
        <ele>486</ele>
        <time>2009-07-09T14:32:06Z</time>
      </trkpt>
      <trkpt lat="43.86303" lon="7.01385">
        <ele>489</ele>
        <time>2009-07-09T14:32:20Z</time>
      </trkpt>
      <trkpt lat="43.86312" lon="7.01408">
        <ele>492</ele>
        <time>2009-07-09T14:32:31Z</time>
      </trkpt>
      <trkpt lat="43.86293" lon="7.01418">
        <ele>495</ele>
        <time>2009-07-09T14:32:44Z</time>
      </trkpt>
      <trkpt lat="43.8629" lon="7.01418">
        <ele>495</ele>
        <time>2009-07-09T14:32:45Z</time>
      </trkpt>
      <trkpt lat="43.86268" lon="7.014">
        <ele>498</ele>
        <time>2009-07-09T14:33:00Z</time>
      </trkpt>
      <trkpt lat="43.86252" lon="7.0138">
        <ele>500</ele>
        <time>2009-07-09T14:33:14Z</time>
      </trkpt>
      <trkpt lat="43.86242" lon="7.01353">
        <ele>502</ele>
        <time>2009-07-09T14:33:27Z</time>
      </trkpt>
      <trkpt lat="43.86223" lon="7.01328">
        <ele>504</ele>
        <time>2009-07-09T14:33:41Z</time>
      </trkpt>
      <trkpt lat="43.86217" lon="7.01325">
        <ele>504</ele>
        <time>2009-07-09T14:33:46Z</time>
      </trkpt>
      <trkpt lat="43.86212" lon="7.01323">
        <ele>505</ele>
        <time>2009-07-09T14:33:50Z</time>
      </trkpt>
      <trkpt lat="43.86193" lon="7.01317">
        <ele>509</ele>
        <time>2009-07-09T14:34:03Z</time>
      </trkpt>
      <trkpt lat="43.86173" lon="7.0131">
        <ele>512</ele>
        <time>2009-07-09T14:34:16Z</time>
      </trkpt>
      <trkpt lat="43.86155" lon="7.013">
        <ele>514</ele>
        <time>2009-07-09T14:34:29Z</time>
      </trkpt>
      <trkpt lat="43.86137" lon="7.01292">
        <ele>517</ele>
        <time>2009-07-09T14:34:42Z</time>
      </trkpt>
      <trkpt lat="43.86118" lon="7.01282">
        <ele>519</ele>
        <time>2009-07-09T14:34:53Z</time>
      </trkpt>
      <trkpt lat="43.8611" lon="7.01245">
        <ele>522</ele>
        <time>2009-07-09T14:35:08Z</time>
      </trkpt>
      <trkpt lat="43.86112" lon="7.01228">
        <ele>524</ele>
        <time>2009-07-09T14:35:15Z</time>
      </trkpt>
      <trkpt lat="43.8612" lon="7.01207">
        <ele>525</ele>
        <time>2009-07-09T14:35:24Z</time>
      </trkpt>
      <trkpt lat="43.8612" lon="7.01192">
        <ele>526</ele>
        <time>2009-07-09T14:35:31Z</time>
      </trkpt>
      <trkpt lat="43.86118" lon="7.0118">
        <ele>527</ele>
        <time>2009-07-09T14:35:36Z</time>
      </trkpt>
      <trkpt lat="43.86118" lon="7.01165">
        <ele>528</ele>
        <time>2009-07-09T14:35:43Z</time>
      </trkpt>
      <trkpt lat="43.86118" lon="7.01135">
        <ele>530</ele>
        <time>2009-07-09T14:35:56Z</time>
      </trkpt>
      <trkpt lat="43.8612" lon="7.0113">
        <ele>530</ele>
        <time>2009-07-09T14:35:59Z</time>
      </trkpt>
      <trkpt lat="43.86117" lon="7.01118">
        <ele>531</ele>
        <time>2009-07-09T14:36:07Z</time>
      </trkpt>
      <trkpt lat="43.86112" lon="7.0109">
        <ele>534</ele>
        <time>2009-07-09T14:36:22Z</time>
      </trkpt>
      <trkpt lat="43.86108" lon="7.01065">
        <ele>536</ele>
        <time>2009-07-09T14:36:33Z</time>
      </trkpt>
      <trkpt lat="43.861" lon="7.01043">
        <ele>536</ele>
        <time>2009-07-09T14:36:39Z</time>
      </trkpt>
      <trkpt lat="43.861" lon="7.01027">
        <ele>537</ele>
        <time>2009-07-09T14:36:44Z</time>
      </trkpt>
      <trkpt lat="43.86103" lon="7.01022">
        <ele>537</ele>
        <time>2009-07-09T14:36:46Z</time>
      </trkpt>
      <trkpt lat="43.86097" lon="7.01012">
        <ele>538</ele>
        <time>2009-07-09T14:36:50Z</time>
      </trkpt>
      <trkpt lat="43.86043" lon="7.00955">
        <ele>540</ele>
        <time>2009-07-09T14:37:04Z</time>
      </trkpt>
      <trkpt lat="43.86028" lon="7.0094">
        <ele>542</ele>
        <time>2009-07-09T14:37:15Z</time>
      </trkpt>
      <trkpt lat="43.86028" lon="7.00938">
        <ele>542</ele>
        <time>2009-07-09T14:37:16Z</time>
      </trkpt>
      <trkpt lat="43.86013" lon="7.00917">
        <ele>545</ele>
        <time>2009-07-09T14:37:30Z</time>
      </trkpt>
      <trkpt lat="43.86008" lon="7.00907">
        <ele>547</ele>
        <time>2009-07-09T14:37:40Z</time>
      </trkpt>
      <trkpt lat="43.86003" lon="7.00898">
        <ele>548</ele>
        <time>2009-07-09T14:37:45Z</time>
      </trkpt>
      <trkpt lat="43.85997" lon="7.00888">
        <ele>549</ele>
        <time>2009-07-09T14:37:54Z</time>
      </trkpt>
      <trkpt lat="43.85995" lon="7.00872">
        <ele>551</ele>
        <time>2009-07-09T14:38:08Z</time>
      </trkpt>
      <trkpt lat="43.8599" lon="7.00858">
        <ele>554</ele>
        <time>2009-07-09T14:38:26Z</time>
      </trkpt>
      <trkpt lat="43.85982" lon="7.00838">
        <ele>558</ele>
        <time>2009-07-09T14:38:44Z</time>
      </trkpt>
      <trkpt lat="43.8597" lon="7.00818">
        <ele>561</ele>
        <time>2009-07-09T14:39:04Z</time>
      </trkpt>
      <trkpt lat="43.85957" lon="7.00793">
        <ele>563</ele>
        <time>2009-07-09T14:39:23Z</time>
      </trkpt>
      <trkpt lat="43.85947" lon="7.00773">
        <ele>566</ele>
        <time>2009-07-09T14:39:37Z</time>
      </trkpt>
      <trkpt lat="43.85942" lon="7.00765">
        <ele>566</ele>
        <time>2009-07-09T14:39:39Z</time>
      </trkpt>
      <trkpt lat="43.85945" lon="7.00763">
        <ele>566</ele>
        <time>2009-07-09T14:39:43Z</time>
      </trkpt>
      <trkpt lat="43.85935" lon="7.00727">
        <ele>568</ele>
        <time>2009-07-09T14:39:51Z</time>
      </trkpt>
      <trkpt lat="43.85933" lon="7.00705">
        <ele>568</ele>
        <time>2009-07-09T14:39:56Z</time>
      </trkpt>
      <trkpt lat="43.85933" lon="7.0069">
        <ele>569</ele>
        <time>2009-07-09T14:40:01Z</time>
      </trkpt>
      <trkpt lat="43.85938" lon="7.00675">
        <ele>570</ele>
        <time>2009-07-09T14:40:08Z</time>
      </trkpt>
      <trkpt lat="43.85943" lon="7.00648">
        <ele>572</ele>
        <time>2009-07-09T14:40:21Z</time>
      </trkpt>
      <trkpt lat="43.85947" lon="7.0064">
        <ele>573</ele>
        <time>2009-07-09T14:40:26Z</time>
      </trkpt>
      <trkpt lat="43.8595" lon="7.0063">
        <ele>574</ele>
        <time>2009-07-09T14:40:31Z</time>
      </trkpt>
      <trkpt lat="43.85945" lon="7.00612">
        <ele>574</ele>
        <time>2009-07-09T14:40:36Z</time>
      </trkpt>
      <trkpt lat="43.85942" lon="7.00587">
        <ele>574</ele>
        <time>2009-07-09T14:40:47Z</time>
      </trkpt>
      <trkpt lat="43.85933" lon="7.00557">
        <ele>575</ele>
        <time>2009-07-09T14:40:59Z</time>
      </trkpt>
      <trkpt lat="43.85913" lon="7.00533">
        <ele>575</ele>
        <time>2009-07-09T14:41:04Z</time>
      </trkpt>
      <trkpt lat="43.85882" lon="7.00487">
        <ele>575</ele>
        <time>2009-07-09T14:41:16Z</time>
      </trkpt>
      <trkpt lat="43.8583" lon="7.00403">
        <ele>576</ele>
        <time>2009-07-09T14:41:29Z</time>
      </trkpt>
      <trkpt lat="43.85858" lon="7.00395">
        <ele>577</ele>
        <time>2009-07-09T14:41:39Z</time>
      </trkpt>
      <trkpt lat="43.85858" lon="7.00397">
        <ele>577</ele>
        <time>2009-07-09T14:41:45Z</time>
      </trkpt>
      <trkpt lat="43.85855" lon="7.00395">
        <ele>578</ele>
        <time>2009-07-09T14:41:47Z</time>
      </trkpt>
      <trkpt lat="43.85777" lon="7.0029">
        <ele>579</ele>
        <time>2009-07-09T14:42:01Z</time>
      </trkpt>
      <trkpt lat="43.85738" lon="7.00265">
        <ele>582</ele>
        <time>2009-07-09T14:42:13Z</time>
      </trkpt>
      <trkpt lat="43.85737" lon="7.00262">
        <ele>582</ele>
        <time>2009-07-09T14:42:14Z</time>
      </trkpt>
      <trkpt lat="43.85737" lon="7.0026">
        <ele>583</ele>
        <time>2009-07-09T14:42:16Z</time>
      </trkpt>
      <trkpt lat="43.85732" lon="7.00253">
        <ele>584</ele>
        <time>2009-07-09T14:42:21Z</time>
      </trkpt>
      <trkpt lat="43.8573" lon="7.00247">
        <ele>585</ele>
        <time>2009-07-09T14:42:26Z</time>
      </trkpt>
      <trkpt lat="43.85723" lon="7.00232">
        <ele>588</ele>
        <time>2009-07-09T14:42:38Z</time>
      </trkpt>
      <trkpt lat="43.85723" lon="7.00235">
        <ele>588</ele>
        <time>2009-07-09T14:42:43Z</time>
      </trkpt>
      <trkpt lat="43.85727" lon="7.00235">
        <ele>589</ele>
        <time>2009-07-09T14:42:45Z</time>
      </trkpt>
      <trkpt lat="43.8573" lon="7.00225">
        <ele>591</ele>
        <time>2009-07-09T14:42:55Z</time>
      </trkpt>
      <trkpt lat="43.85728" lon="7.00207">
        <ele>593</ele>
        <time>2009-07-09T14:43:02Z</time>
      </trkpt>
      <trkpt lat="43.85712" lon="7.00178">
        <ele>596</ele>
        <time>2009-07-09T14:43:16Z</time>
      </trkpt>
      <trkpt lat="43.85713" lon="7.0018">
        <ele>597</ele>
        <time>2009-07-09T14:43:20Z</time>
      </trkpt>
      <trkpt lat="43.85717" lon="7.00193">
        <ele>599</ele>
        <time>2009-07-09T14:43:27Z</time>
      </trkpt>
      <trkpt lat="43.85712" lon="7.00208">
        <ele>600</ele>
        <time>2009-07-09T14:43:34Z</time>
      </trkpt>
      <trkpt lat="43.8571" lon="7.00215">
        <ele>600</ele>
        <time>2009-07-09T14:43:37Z</time>
      </trkpt>
      <trkpt lat="43.85708" lon="7.00225">
        <ele>602</ele>
        <time>2009-07-09T14:43:42Z</time>
      </trkpt>
      <trkpt lat="43.85703" lon="7.00235">
        <ele>603</ele>
        <time>2009-07-09T14:43:49Z</time>
      </trkpt>
      <trkpt lat="43.85682" lon="7.00237">
        <ele>606</ele>
        <time>2009-07-09T14:44:03Z</time>
      </trkpt>
      <trkpt lat="43.8568" lon="7.00235">
        <ele>606</ele>
        <time>2009-07-09T14:44:05Z</time>
      </trkpt>
      <trkpt lat="43.85685" lon="7.00225">
        <ele>608</ele>
        <time>2009-07-09T14:44:13Z</time>
      </trkpt>
      <trkpt lat="43.85702" lon="7.00208">
        <ele>611</ele>
        <time>2009-07-09T14:44:26Z</time>
      </trkpt>
      <trkpt lat="43.8571" lon="7.00177">
        <ele>613</ele>
        <time>2009-07-09T14:44:41Z</time>
      </trkpt>
      <trkpt lat="43.8572" lon="7.00148">
        <ele>617</ele>
        <time>2009-07-09T14:44:56Z</time>
      </trkpt>
      <trkpt lat="43.85723" lon="7.00138">
        <ele>618</ele>
        <time>2009-07-09T14:45:03Z</time>
      </trkpt>
      <trkpt lat="43.85732" lon="7.00132">
        <ele>620</ele>
        <time>2009-07-09T14:45:09Z</time>
      </trkpt>
      <trkpt lat="43.85755" lon="7.00143">
        <ele>623</ele>
        <time>2009-07-09T14:45:23Z</time>
      </trkpt>
      <trkpt lat="43.85758" lon="7.00148">
        <ele>623</ele>
        <time>2009-07-09T14:45:25Z</time>
      </trkpt>
      <trkpt lat="43.85765" lon="7.0016">
        <ele>625</ele>
        <time>2009-07-09T14:45:31Z</time>
      </trkpt>
      <trkpt lat="43.85773" lon="7.0017">
        <ele>625</ele>
        <time>2009-07-09T14:45:36Z</time>
      </trkpt>
      <trkpt lat="43.85778" lon="7.00173">
        <ele>626</ele>
        <time>2009-07-09T14:45:40Z</time>
      </trkpt>
      <trkpt lat="43.85802" lon="7.00193">
        <ele>628</ele>
        <time>2009-07-09T14:45:56Z</time>
      </trkpt>
      <trkpt lat="43.85823" lon="7.00218">
        <ele>632</ele>
        <time>2009-07-09T14:46:12Z</time>
      </trkpt>
      <trkpt lat="43.85842" lon="7.00218">
        <ele>635</ele>
        <time>2009-07-09T14:46:25Z</time>
      </trkpt>
      <trkpt lat="43.85863" lon="7.00202">
        <ele>637</ele>
        <time>2009-07-09T14:46:39Z</time>
      </trkpt>
      <trkpt lat="43.85888" lon="7.00205">
        <ele>639</ele>
        <time>2009-07-09T14:46:52Z</time>
      </trkpt>
      <trkpt lat="43.85915" lon="7.00208">
        <ele>642</ele>
        <time>2009-07-09T14:47:07Z</time>
      </trkpt>
      <trkpt lat="43.85943" lon="7.00223">
        <ele>645</ele>
        <time>2009-07-09T14:47:21Z</time>
      </trkpt>
      <trkpt lat="43.85967" lon="7.00255">
        <ele>648</ele>
        <time>2009-07-09T14:47:37Z</time>
      </trkpt>
      <trkpt lat="43.85987" lon="7.00277">
        <ele>650</ele>
        <time>2009-07-09T14:47:49Z</time>
      </trkpt>
      <trkpt lat="43.86012" lon="7.00298">
        <ele>653</ele>
        <time>2009-07-09T14:48:03Z</time>
      </trkpt>
      <trkpt lat="43.86037" lon="7.00303">
        <ele>655</ele>
        <time>2009-07-09T14:48:17Z</time>
      </trkpt>
      <trkpt lat="43.86047" lon="7.00287">
        <ele>657</ele>
        <time>2009-07-09T14:48:26Z</time>
      </trkpt>
      <trkpt lat="43.86038" lon="7.00282">
        <ele>659</ele>
        <time>2009-07-09T14:48:31Z</time>
      </trkpt>
      <trkpt lat="43.8601" lon="7.00277">
        <ele>661</ele>
        <time>2009-07-09T14:48:44Z</time>
      </trkpt>
      <trkpt lat="43.85987" lon="7.00245">
        <ele>662</ele>
        <time>2009-07-09T14:48:57Z</time>
      </trkpt>
      <trkpt lat="43.85972" lon="7.00207">
        <ele>662</ele>
        <time>2009-07-09T14:49:11Z</time>
      </trkpt>
      <trkpt lat="43.85948" lon="7.0017">
        <ele>663</ele>
        <time>2009-07-09T14:49:25Z</time>
      </trkpt>
      <trkpt lat="43.8592" lon="7.00138">
        <ele>664</ele>
        <time>2009-07-09T14:49:39Z</time>
      </trkpt>
      <trkpt lat="43.85903" lon="7.00138">
        <ele>664</ele>
        <time>2009-07-09T14:49:46Z</time>
      </trkpt>
      <trkpt lat="43.85885" lon="7.0011">
        <ele>666</ele>
        <time>2009-07-09T14:49:59Z</time>
      </trkpt>
      <trkpt lat="43.85868" lon="7.00075">
        <ele>668</ele>
        <time>2009-07-09T14:50:12Z</time>
      </trkpt>
      <trkpt lat="43.85855" lon="7.00037">
        <ele>670</ele>
        <time>2009-07-09T14:50:26Z</time>
      </trkpt>
      <trkpt lat="43.85843" lon="7.00017">
        <ele>671</ele>
        <time>2009-07-09T14:50:35Z</time>
      </trkpt>
      <trkpt lat="43.85838" lon="7.0001">
        <ele>671</ele>
        <time>2009-07-09T14:50:40Z</time>
      </trkpt>
      <trkpt lat="43.85837" lon="7.00008">
        <ele>671</ele>
        <time>2009-07-09T14:50:43Z</time>
      </trkpt>
      <trkpt lat="43.85825" lon="6.99987">
        <ele>672</ele>
        <time>2009-07-09T14:50:58Z</time>
      </trkpt>
      <trkpt lat="43.85825" lon="6.99987">
        <ele>672</ele>
        <time>2009-07-09T14:50:59Z</time>
      </trkpt>
      <trkpt lat="43.85812" lon="6.99955">
        <ele>673</ele>
        <time>2009-07-09T14:51:18Z</time>
      </trkpt>
      <trkpt lat="43.85807" lon="6.99943">
        <ele>673</ele>
        <time>2009-07-09T14:51:24Z</time>
      </trkpt>
      <trkpt lat="43.85805" lon="6.9994">
        <ele>674</ele>
        <time>2009-07-09T14:51:27Z</time>
      </trkpt>
      <trkpt lat="43.858" lon="6.99913">
        <ele>674</ele>
        <time>2009-07-09T14:51:39Z</time>
      </trkpt>
      <trkpt lat="43.85787" lon="6.99895">
        <ele>675</ele>
        <time>2009-07-09T14:51:56Z</time>
      </trkpt>
      <trkpt lat="43.8577" lon="6.99885">
        <ele>675</ele>
        <time>2009-07-09T14:52:09Z</time>
      </trkpt>
      <trkpt lat="43.8577" lon="6.99883">
        <ele>675</ele>
        <time>2009-07-09T14:52:56Z</time>
      </trkpt>
      <trkpt lat="43.85745" lon="6.99878">
        <ele>676</ele>
        <time>2009-07-09T14:54:26Z</time>
      </trkpt>
      <trkpt lat="43.85743" lon="6.99877">
        <ele>676</ele>
        <time>2009-07-09T14:54:27Z</time>
      </trkpt>
      <trkpt lat="43.85717" lon="6.99845">
        <ele>677</ele>
        <time>2009-07-09T14:54:39Z</time>
      </trkpt>
      <trkpt lat="43.85717" lon="6.99807">
        <ele>678</ele>
        <time>2009-07-09T14:54:50Z</time>
      </trkpt>
      <trkpt lat="43.85747" lon="6.99757">
        <ele>679</ele>
        <time>2009-07-09T14:55:06Z</time>
      </trkpt>
      <trkpt lat="43.85753" lon="6.99707">
        <ele>681</ele>
        <time>2009-07-09T14:55:19Z</time>
      </trkpt>
      <trkpt lat="43.85728" lon="6.9966">
        <ele>682</ele>
        <time>2009-07-09T14:55:33Z</time>
      </trkpt>
      <trkpt lat="43.85695" lon="6.99623">
        <ele>684</ele>
        <time>2009-07-09T14:55:48Z</time>
      </trkpt>
      <trkpt lat="43.8567" lon="6.99593">
        <ele>686</ele>
        <time>2009-07-09T14:56:01Z</time>
      </trkpt>
      <trkpt lat="43.85642" lon="6.99605">
        <ele>687</ele>
        <time>2009-07-09T14:56:12Z</time>
      </trkpt>
      <trkpt lat="43.85622" lon="6.99613">
        <ele>688</ele>
        <time>2009-07-09T14:56:21Z</time>
      </trkpt>
      <trkpt lat="43.85578" lon="6.9962">
        <ele>692</ele>
        <time>2009-07-09T14:56:38Z</time>
      </trkpt>
      <trkpt lat="43.85563" lon="6.99645">
        <ele>692</ele>
        <time>2009-07-09T14:56:48Z</time>
      </trkpt>
      <trkpt lat="43.85533" lon="6.99668">
        <ele>693</ele>
        <time>2009-07-09T14:56:59Z</time>
      </trkpt>
      <trkpt lat="43.855" lon="6.99677">
        <ele>694</ele>
        <time>2009-07-09T14:57:10Z</time>
      </trkpt>
      <trkpt lat="43.85477" lon="6.99717">
        <ele>694</ele>
        <time>2009-07-09T14:57:22Z</time>
      </trkpt>
      <trkpt lat="43.85438" lon="6.99738">
        <ele>695</ele>
        <time>2009-07-09T14:57:34Z</time>
      </trkpt>
      <trkpt lat="43.85395" lon="6.99773">
        <ele>696</ele>
        <time>2009-07-09T14:57:49Z</time>
      </trkpt>
      <trkpt lat="43.85355" lon="6.99782">
        <ele>698</ele>
        <time>2009-07-09T14:58:03Z</time>
      </trkpt>
      <trkpt lat="43.85323" lon="6.99772">
        <ele>700</ele>
        <time>2009-07-09T14:58:16Z</time>
      </trkpt>
      <trkpt lat="43.853" lon="6.99757">
        <ele>701</ele>
        <time>2009-07-09T14:58:31Z</time>
      </trkpt>
      <trkpt lat="43.85302" lon="6.99758">
        <ele>701</ele>
        <time>2009-07-09T14:59:38Z</time>
      </trkpt>
      <trkpt lat="43.85283" lon="6.99748">
        <ele>703</ele>
        <time>2009-07-09T15:01:38Z</time>
      </trkpt>
      <trkpt lat="43.85263" lon="6.99742">
        <ele>705</ele>
        <time>2009-07-09T15:01:51Z</time>
      </trkpt>
      <trkpt lat="43.85255" lon="6.99738">
        <ele>705</ele>
        <time>2009-07-09T15:01:57Z</time>
      </trkpt>
      <trkpt lat="43.85248" lon="6.99737">
        <ele>706</ele>
        <time>2009-07-09T15:02:02Z</time>
      </trkpt>
      <trkpt lat="43.85227" lon="6.99708">
        <ele>708</ele>
        <time>2009-07-09T15:02:15Z</time>
      </trkpt>
      <trkpt lat="43.8521" lon="6.99685">
        <ele>710</ele>
        <time>2009-07-09T15:02:28Z</time>
      </trkpt>
      <trkpt lat="43.85188" lon="6.99678">
        <ele>712</ele>
        <time>2009-07-09T15:02:40Z</time>
      </trkpt>
      <trkpt lat="43.85182" lon="6.99652">
        <ele>713</ele>
        <time>2009-07-09T15:02:51Z</time>
      </trkpt>
      <trkpt lat="43.85192" lon="6.99612">
        <ele>716</ele>
        <time>2009-07-09T15:03:06Z</time>
      </trkpt>
      <trkpt lat="43.85202" lon="6.99582">
        <ele>718</ele>
        <time>2009-07-09T15:03:19Z</time>
      </trkpt>
      <trkpt lat="43.85208" lon="6.99542">
        <ele>721</ele>
        <time>2009-07-09T15:03:36Z</time>
      </trkpt>
      <trkpt lat="43.85198" lon="6.99502">
        <ele>724</ele>
        <time>2009-07-09T15:03:52Z</time>
      </trkpt>
      <trkpt lat="43.85188" lon="6.9947">
        <ele>726</ele>
        <time>2009-07-09T15:04:05Z</time>
      </trkpt>
      <trkpt lat="43.85177" lon="6.99458">
        <ele>729</ele>
        <time>2009-07-09T15:04:17Z</time>
      </trkpt>
      <trkpt lat="43.85158" lon="6.99438">
        <ele>731</ele>
        <time>2009-07-09T15:04:30Z</time>
      </trkpt>
      <trkpt lat="43.85148" lon="6.99413">
        <ele>733</ele>
        <time>2009-07-09T15:04:42Z</time>
      </trkpt>
      <trkpt lat="43.85147" lon="6.99378">
        <ele>736</ele>
        <time>2009-07-09T15:04:56Z</time>
      </trkpt>
      <trkpt lat="43.85147" lon="6.9935">
        <ele>737</ele>
        <time>2009-07-09T15:05:08Z</time>
      </trkpt>
      <trkpt lat="43.85158" lon="6.99315">
        <ele>740</ele>
        <time>2009-07-09T15:05:22Z</time>
      </trkpt>
      <trkpt lat="43.85167" lon="6.99277">
        <ele>742</ele>
        <time>2009-07-09T15:05:38Z</time>
      </trkpt>
      <trkpt lat="43.85178" lon="6.9924">
        <ele>745</ele>
        <time>2009-07-09T15:05:51Z</time>
      </trkpt>
      <trkpt lat="43.85178" lon="6.99207">
        <ele>748</ele>
        <time>2009-07-09T15:06:04Z</time>
      </trkpt>
      <trkpt lat="43.85168" lon="6.99172">
        <ele>750</ele>
        <time>2009-07-09T15:06:19Z</time>
      </trkpt>
      <trkpt lat="43.85165" lon="6.99152">
        <ele>752</ele>
        <time>2009-07-09T15:06:28Z</time>
      </trkpt>
      <trkpt lat="43.85153" lon="6.9914">
        <ele>753</ele>
        <time>2009-07-09T15:06:35Z</time>
      </trkpt>
      <trkpt lat="43.85137" lon="6.99112">
        <ele>756</ele>
        <time>2009-07-09T15:06:50Z</time>
      </trkpt>
      <trkpt lat="43.85123" lon="6.99085">
        <ele>758</ele>
        <time>2009-07-09T15:07:03Z</time>
      </trkpt>
      <trkpt lat="43.85117" lon="6.99053">
        <ele>760</ele>
        <time>2009-07-09T15:07:16Z</time>
      </trkpt>
      <trkpt lat="43.85123" lon="6.9902">
        <ele>762</ele>
        <time>2009-07-09T15:07:29Z</time>
      </trkpt>
      <trkpt lat="43.85122" lon="6.98988">
        <ele>764</ele>
        <time>2009-07-09T15:07:41Z</time>
      </trkpt>
      <trkpt lat="43.85123" lon="6.98985">
        <ele>764</ele>
        <time>2009-07-09T15:07:43Z</time>
      </trkpt>
      <trkpt lat="43.85125" lon="6.98975">
        <ele>765</ele>
        <time>2009-07-09T15:07:47Z</time>
      </trkpt>
      <trkpt lat="43.85142" lon="6.9894">
        <ele>767</ele>
        <time>2009-07-09T15:08:01Z</time>
      </trkpt>
      <trkpt lat="43.85162" lon="6.98933">
        <ele>769</ele>
        <time>2009-07-09T15:08:10Z</time>
      </trkpt>
      <trkpt lat="43.85148" lon="6.98918">
        <ele>770</ele>
        <time>2009-07-09T15:08:20Z</time>
      </trkpt>
      <trkpt lat="43.85123" lon="6.98938">
        <ele>774</ele>
        <time>2009-07-09T15:08:35Z</time>
      </trkpt>
      <trkpt lat="43.85115" lon="6.98948">
        <ele>774</ele>
        <time>2009-07-09T15:08:41Z</time>
      </trkpt>
      <trkpt lat="43.85113" lon="6.98953">
        <ele>775</ele>
        <time>2009-07-09T15:08:43Z</time>
      </trkpt>
      <trkpt lat="43.85095" lon="6.98988">
        <ele>777</ele>
        <time>2009-07-09T15:08:58Z</time>
      </trkpt>
      <trkpt lat="43.8509" lon="6.9902">
        <ele>779</ele>
        <time>2009-07-09T15:09:11Z</time>
      </trkpt>
      <trkpt lat="43.85082" lon="6.99057">
        <ele>781</ele>
        <time>2009-07-09T15:09:25Z</time>
      </trkpt>
      <trkpt lat="43.85078" lon="6.99092">
        <ele>784</ele>
        <time>2009-07-09T15:09:39Z</time>
      </trkpt>
      <trkpt lat="43.85078" lon="6.99127">
        <ele>787</ele>
        <time>2009-07-09T15:09:54Z</time>
      </trkpt>
      <trkpt lat="43.85088" lon="6.99163">
        <ele>789</ele>
        <time>2009-07-09T15:10:10Z</time>
      </trkpt>
      <trkpt lat="43.85097" lon="6.99197">
        <ele>791</ele>
        <time>2009-07-09T15:10:23Z</time>
      </trkpt>
      <trkpt lat="43.85093" lon="6.99232">
        <ele>793</ele>
        <time>2009-07-09T15:10:36Z</time>
      </trkpt>
      <trkpt lat="43.85068" lon="6.99243">
        <ele>795</ele>
        <time>2009-07-09T15:10:50Z</time>
      </trkpt>
      <trkpt lat="43.85052" lon="6.99265">
        <ele>798</ele>
        <time>2009-07-09T15:11:02Z</time>
      </trkpt>
      <trkpt lat="43.85043" lon="6.99283">
        <ele>800</ele>
        <time>2009-07-09T15:11:10Z</time>
      </trkpt>
      <trkpt lat="43.85035" lon="6.99307">
        <ele>801</ele>
        <time>2009-07-09T15:11:20Z</time>
      </trkpt>
      <trkpt lat="43.85025" lon="6.99335">
        <ele>805</ele>
        <time>2009-07-09T15:11:35Z</time>
      </trkpt>
      <trkpt lat="43.85025" lon="6.99362">
        <ele>806</ele>
        <time>2009-07-09T15:11:42Z</time>
      </trkpt>
      <trkpt lat="43.85025" lon="6.99392">
        <ele>808</ele>
        <time>2009-07-09T15:11:55Z</time>
      </trkpt>
      <trkpt lat="43.85022" lon="6.994">
        <ele>809</ele>
        <time>2009-07-09T15:11:59Z</time>
      </trkpt>
      <trkpt lat="43.85022" lon="6.99435">
        <ele>812</ele>
        <time>2009-07-09T15:12:14Z</time>
      </trkpt>
      <trkpt lat="43.8502" lon="6.9947">
        <ele>815</ele>
        <time>2009-07-09T15:12:30Z</time>
      </trkpt>
      <trkpt lat="43.85027" lon="6.99502">
        <ele>818</ele>
        <time>2009-07-09T15:12:45Z</time>
      </trkpt>
      <trkpt lat="43.85033" lon="6.9953">
        <ele>820</ele>
        <time>2009-07-09T15:12:59Z</time>
      </trkpt>
      <trkpt lat="43.85022" lon="6.99517">
        <ele>822</ele>
        <time>2009-07-09T15:13:11Z</time>
      </trkpt>
      <trkpt lat="43.85015" lon="6.99468">
        <ele>824</ele>
        <time>2009-07-09T15:13:27Z</time>
      </trkpt>
      <trkpt lat="43.85005" lon="6.99423">
        <ele>826</ele>
        <time>2009-07-09T15:13:42Z</time>
      </trkpt>
      <trkpt lat="43.85" lon="6.9938">
        <ele>828</ele>
        <time>2009-07-09T15:13:57Z</time>
      </trkpt>
      <trkpt lat="43.84998" lon="6.99367">
        <ele>829</ele>
        <time>2009-07-09T15:14:02Z</time>
      </trkpt>
      <trkpt lat="43.84998" lon="6.99322">
        <ele>832</ele>
        <time>2009-07-09T15:14:17Z</time>
      </trkpt>
      <trkpt lat="43.85003" lon="6.99285">
        <ele>835</ele>
        <time>2009-07-09T15:14:31Z</time>
      </trkpt>
      <trkpt lat="43.85008" lon="6.99242">
        <ele>837</ele>
        <time>2009-07-09T15:14:45Z</time>
      </trkpt>
      <trkpt lat="43.85008" lon="6.99223">
        <ele>838</ele>
        <time>2009-07-09T15:14:52Z</time>
      </trkpt>
      <trkpt lat="43.85017" lon="6.99185">
        <ele>840</ele>
        <time>2009-07-09T15:15:05Z</time>
      </trkpt>
      <trkpt lat="43.8501" lon="6.99142">
        <ele>844</ele>
        <time>2009-07-09T15:15:21Z</time>
      </trkpt>
      <trkpt lat="43.85007" lon="6.99097">
        <ele>847</ele>
        <time>2009-07-09T15:15:37Z</time>
      </trkpt>
      <trkpt lat="43.85" lon="6.9906">
        <ele>849</ele>
        <time>2009-07-09T15:15:51Z</time>
      </trkpt>
      <trkpt lat="43.85007" lon="6.99023">
        <ele>852</ele>
        <time>2009-07-09T15:16:05Z</time>
      </trkpt>
      <trkpt lat="43.85012" lon="6.98977">
        <ele>855</ele>
        <time>2009-07-09T15:16:20Z</time>
      </trkpt>
      <trkpt lat="43.85015" lon="6.98942">
        <ele>856</ele>
        <time>2009-07-09T15:16:32Z</time>
      </trkpt>
      <trkpt lat="43.85018" lon="6.98908">
        <ele>859</ele>
        <time>2009-07-09T15:16:44Z</time>
      </trkpt>
      <trkpt lat="43.85033" lon="6.98872">
        <ele>861</ele>
        <time>2009-07-09T15:16:57Z</time>
      </trkpt>
      <trkpt lat="43.85043" lon="6.98835">
        <ele>863</ele>
        <time>2009-07-09T15:17:11Z</time>
      </trkpt>
      <trkpt lat="43.85043" lon="6.98792">
        <ele>866</ele>
        <time>2009-07-09T15:17:25Z</time>
      </trkpt>
      <trkpt lat="43.85037" lon="6.98753">
        <ele>869</ele>
        <time>2009-07-09T15:17:38Z</time>
      </trkpt>
      <trkpt lat="43.85035" lon="6.9872">
        <ele>871</ele>
        <time>2009-07-09T15:17:50Z</time>
      </trkpt>
      <trkpt lat="43.85033" lon="6.98703">
        <ele>872</ele>
        <time>2009-07-09T15:17:56Z</time>
      </trkpt>
      <trkpt lat="43.85032" lon="6.98693">
        <ele>873</ele>
        <time>2009-07-09T15:18:00Z</time>
      </trkpt>
      <trkpt lat="43.85025" lon="6.98687">
        <ele>874</ele>
        <time>2009-07-09T15:18:05Z</time>
      </trkpt>
      <trkpt lat="43.8502" lon="6.98683">
        <ele>874</ele>
        <time>2009-07-09T15:18:08Z</time>
      </trkpt>
      <trkpt lat="43.85008" lon="6.98688">
        <ele>874</ele>
        <time>2009-07-09T15:18:22Z</time>
      </trkpt>
      <trkpt lat="43.84997" lon="6.98677">
        <ele>875</ele>
        <time>2009-07-09T15:24:47Z</time>
      </trkpt>
      <trkpt lat="43.84997" lon="6.98677">
        <ele>874</ele>
        <time>2009-07-09T15:24:49Z</time>
      </trkpt>
      <trkpt lat="43.84997" lon="6.98678">
        <ele>874</ele>
        <time>2009-07-09T15:26:05Z</time>
      </trkpt>
      <trkpt lat="43.84997" lon="6.98678">
        <ele>917</ele>
        <time>2009-07-09T15:26:11Z</time>
      </trkpt>
      <trkpt lat="43.84997" lon="6.98678">
        <ele>874</ele>
        <time>2009-07-09T15:26:12Z</time>
      </trkpt>
      <trkpt lat="43.84997" lon="6.98678">
        <ele>874</ele>
        <time>2009-07-09T15:26:28Z</time>
      </trkpt>
      <trkpt lat="43.84992" lon="6.98713">
        <ele>873</ele>
        <time>2009-07-09T15:26:33Z</time>
      </trkpt>
      <trkpt lat="43.84953" lon="6.98747">
        <ele>870</ele>
        <time>2009-07-09T15:26:41Z</time>
      </trkpt>
      <trkpt lat="43.8493" lon="6.98768">
        <ele>869</ele>
        <time>2009-07-09T15:26:47Z</time>
      </trkpt>
      <trkpt lat="43.84932" lon="6.9877">
        <ele>870</ele>
        <time>2009-07-09T15:27:02Z</time>
      </trkpt>
      <trkpt lat="43.84957" lon="6.98747">
        <ele>870</ele>
        <time>2009-07-09T15:27:15Z</time>
      </trkpt>
      <trkpt lat="43.8498" lon="6.98723">
        <ele>871</ele>
        <time>2009-07-09T15:27:28Z</time>
      </trkpt>
      <trkpt lat="43.8498" lon="6.98718">
        <ele>871</ele>
        <time>2009-07-09T15:27:37Z</time>
      </trkpt>
      <trkpt lat="43.84953" lon="6.98745">
        <ele>870</ele>
        <time>2009-07-09T15:27:49Z</time>
      </trkpt>
      <trkpt lat="43.8492" lon="6.98787">
        <ele>869</ele>
        <time>2009-07-09T15:28:00Z</time>
      </trkpt>
      <trkpt lat="43.84902" lon="6.98823">
        <ele>868</ele>
        <time>2009-07-09T15:28:07Z</time>
      </trkpt>
      <trkpt lat="43.8486" lon="6.98868">
        <ele>870</ele>
        <time>2009-07-09T15:28:21Z</time>
      </trkpt>
      <trkpt lat="43.84823" lon="6.98888">
        <ele>871</ele>
        <time>2009-07-09T15:28:32Z</time>
      </trkpt>
      <trkpt lat="43.84792" lon="6.98925">
        <ele>870</ele>
        <time>2009-07-09T15:28:43Z</time>
      </trkpt>
      <trkpt lat="43.84783" lon="6.98972">
        <ele>869</ele>
        <time>2009-07-09T15:28:50Z</time>
      </trkpt>
      <trkpt lat="43.84777" lon="6.98988">
        <ele>870</ele>
        <time>2009-07-09T15:28:53Z</time>
      </trkpt>
      <trkpt lat="43.84753" lon="6.99025">
        <ele>872</ele>
        <time>2009-07-09T15:29:03Z</time>
      </trkpt>
      <trkpt lat="43.8473" lon="6.99045">
        <ele>874</ele>
        <time>2009-07-09T15:29:13Z</time>
      </trkpt>
      <trkpt lat="43.84725" lon="6.99073">
        <ele>874</ele>
        <time>2009-07-09T15:29:20Z</time>
      </trkpt>
      <trkpt lat="43.84717" lon="6.99105">
        <ele>872</ele>
        <time>2009-07-09T15:29:25Z</time>
      </trkpt>
      <trkpt lat="43.8471" lon="6.99125">
        <ele>871</ele>
        <time>2009-07-09T15:29:28Z</time>
      </trkpt>
      <trkpt lat="43.84678" lon="6.99185">
        <ele>871</ele>
        <time>2009-07-09T15:29:39Z</time>
      </trkpt>
      <trkpt lat="43.84673" lon="6.99188">
        <ele>871</ele>
        <time>2009-07-09T15:29:40Z</time>
      </trkpt>
      <trkpt lat="43.84657" lon="6.99203">
        <ele>871</ele>
        <time>2009-07-09T15:29:44Z</time>
      </trkpt>
      <trkpt lat="43.84637" lon="6.99217">
        <ele>869</ele>
        <time>2009-07-09T15:29:48Z</time>
      </trkpt>
      <trkpt lat="43.8463" lon="6.99237">
        <ele>868</ele>
        <time>2009-07-09T15:29:51Z</time>
      </trkpt>
      <trkpt lat="43.84628" lon="6.99243">
        <ele>867</ele>
        <time>2009-07-09T15:29:52Z</time>
      </trkpt>
      <trkpt lat="43.84623" lon="6.99258">
        <ele>866</ele>
        <time>2009-07-09T15:29:54Z</time>
      </trkpt>
      <trkpt lat="43.84603" lon="6.99313">
        <ele>863</ele>
        <time>2009-07-09T15:30:01Z</time>
      </trkpt>
      <trkpt lat="43.84582" lon="6.9935">
        <ele>861</ele>
        <time>2009-07-09T15:30:06Z</time>
      </trkpt>
      <trkpt lat="43.84558" lon="6.99387">
        <ele>858</ele>
        <time>2009-07-09T15:30:12Z</time>
      </trkpt>
      <trkpt lat="43.84548" lon="6.99387">
        <ele>857</ele>
        <time>2009-07-09T15:30:14Z</time>
      </trkpt>
      <trkpt lat="43.84525" lon="6.99387">
        <ele>856</ele>
        <time>2009-07-09T15:30:18Z</time>
      </trkpt>
      <trkpt lat="43.84502" lon="6.99353">
        <ele>854</ele>
        <time>2009-07-09T15:30:25Z</time>
      </trkpt>
      <trkpt lat="43.84485" lon="6.99333">
        <ele>852</ele>
        <time>2009-07-09T15:30:33Z</time>
      </trkpt>
      <trkpt lat="43.84462" lon="6.99333">
        <ele>849</ele>
        <time>2009-07-09T15:30:44Z</time>
      </trkpt>
      <trkpt lat="43.84458" lon="6.99327">
        <ele>849</ele>
        <time>2009-07-09T15:30:54Z</time>
      </trkpt>
      <trkpt lat="43.84452" lon="6.99298">
        <ele>849</ele>
        <time>2009-07-09T15:31:07Z</time>
      </trkpt>
      <trkpt lat="43.84443" lon="6.99267">
        <ele>847</ele>
        <time>2009-07-09T15:31:12Z</time>
      </trkpt>
      <trkpt lat="43.84405" lon="6.99262">
        <ele>860</ele>
        <time>2009-07-09T16:19:57Z</time>
      </trkpt>
      <trkpt lat="43.844" lon="6.99298">
        <ele>856</ele>
        <time>2009-07-09T16:20:03Z</time>
      </trkpt>
      <trkpt lat="43.84402" lon="6.99315">
        <ele>855</ele>
        <time>2009-07-09T16:20:06Z</time>
      </trkpt>
      <trkpt lat="43.84378" lon="6.99342">
        <ele>852</ele>
        <time>2009-07-09T16:20:15Z</time>
      </trkpt>
      <trkpt lat="43.84373" lon="6.9934">
        <ele>852</ele>
        <time>2009-07-09T16:20:30Z</time>
      </trkpt>
      <trkpt lat="43.84347" lon="6.99347">
        <ele>851</ele>
        <time>2009-07-09T16:23:44Z</time>
      </trkpt>
      <trkpt lat="43.84337" lon="6.99357">
        <ele>848</ele>
        <time>2009-07-09T16:23:47Z</time>
      </trkpt>
      <trkpt lat="43.8433" lon="6.99373">
        <ele>846</ele>
        <time>2009-07-09T16:23:50Z</time>
      </trkpt>
      <trkpt lat="43.84328" lon="6.9938">
        <ele>846</ele>
        <time>2009-07-09T16:23:51Z</time>
      </trkpt>
      <trkpt lat="43.84315" lon="6.99405">
        <ele>844</ele>
        <time>2009-07-09T16:23:55Z</time>
      </trkpt>
      <trkpt lat="43.84298" lon="6.99422">
        <ele>844</ele>
        <time>2009-07-09T16:23:59Z</time>
      </trkpt>
      <trkpt lat="43.84292" lon="6.99432">
        <ele>844</ele>
        <time>2009-07-09T16:24:01Z</time>
      </trkpt>
      <trkpt lat="43.84283" lon="6.99453">
        <ele>843</ele>
        <time>2009-07-09T16:24:05Z</time>
      </trkpt>
      <trkpt lat="43.8428" lon="6.99488">
        <ele>842</ele>
        <time>2009-07-09T16:24:09Z</time>
      </trkpt>
      <trkpt lat="43.84272" lon="6.99515">
        <ele>841</ele>
        <time>2009-07-09T16:24:13Z</time>
      </trkpt>
      <trkpt lat="43.84263" lon="6.99545">
        <ele>841</ele>
        <time>2009-07-09T16:24:17Z</time>
      </trkpt>
      <trkpt lat="43.84243" lon="6.99607">
        <ele>839</ele>
        <time>2009-07-09T16:24:28Z</time>
      </trkpt>
      <trkpt lat="43.84225" lon="6.99673">
        <ele>839</ele>
        <time>2009-07-09T16:24:38Z</time>
      </trkpt>
      <trkpt lat="43.84217" lon="6.99695">
        <ele>839</ele>
        <time>2009-07-09T16:24:42Z</time>
      </trkpt>
      <trkpt lat="43.84195" lon="6.99737">
        <ele>839</ele>
        <time>2009-07-09T16:24:51Z</time>
      </trkpt>
      <trkpt lat="43.84172" lon="6.99797">
        <ele>839</ele>
        <time>2009-07-09T16:25:02Z</time>
      </trkpt>
      <trkpt lat="43.84162" lon="6.99848">
        <ele>838</ele>
        <time>2009-07-09T16:25:11Z</time>
      </trkpt>
      <trkpt lat="43.84142" lon="6.99898">
        <ele>839</ele>
        <time>2009-07-09T16:25:22Z</time>
      </trkpt>
      <trkpt lat="43.84122" lon="6.99938">
        <ele>838</ele>
        <time>2009-07-09T16:25:31Z</time>
      </trkpt>
      <trkpt lat="43.84103" lon="6.9998">
        <ele>838</ele>
        <time>2009-07-09T16:25:40Z</time>
      </trkpt>
      <trkpt lat="43.84077" lon="7.00053">
        <ele>839</ele>
        <time>2009-07-09T16:25:53Z</time>
      </trkpt>
      <trkpt lat="43.84073" lon="7.0006">
        <ele>839</ele>
        <time>2009-07-09T16:25:54Z</time>
      </trkpt>
      <trkpt lat="43.84067" lon="7.00083">
        <ele>839</ele>
        <time>2009-07-09T16:25:58Z</time>
      </trkpt>
      <trkpt lat="43.84057" lon="7.00113">
        <ele>838</ele>
        <time>2009-07-09T16:26:03Z</time>
      </trkpt>
      <trkpt lat="43.84042" lon="7.00162">
        <ele>838</ele>
        <time>2009-07-09T16:26:13Z</time>
      </trkpt>
      <trkpt lat="43.84038" lon="7.00198">
        <ele>839</ele>
        <time>2009-07-09T16:26:19Z</time>
      </trkpt>
      <trkpt lat="43.8403" lon="7.00263">
        <ele>838</ele>
        <time>2009-07-09T16:26:30Z</time>
      </trkpt>
      <trkpt lat="43.84027" lon="7.00293">
        <ele>838</ele>
        <time>2009-07-09T16:26:35Z</time>
      </trkpt>
      <trkpt lat="43.8403" lon="7.00317">
        <ele>837</ele>
        <time>2009-07-09T16:26:39Z</time>
      </trkpt>
      <trkpt lat="43.84032" lon="7.00343">
        <ele>837</ele>
        <time>2009-07-09T16:26:43Z</time>
      </trkpt>
      <trkpt lat="43.84038" lon="7.00368">
        <ele>838</ele>
        <time>2009-07-09T16:26:47Z</time>
      </trkpt>
      <trkpt lat="43.84045" lon="7.00403">
        <ele>838</ele>
        <time>2009-07-09T16:26:53Z</time>
      </trkpt>
      <trkpt lat="43.84042" lon="7.0043">
        <ele>838</ele>
        <time>2009-07-09T16:26:57Z</time>
      </trkpt>
      <trkpt lat="43.84038" lon="7.00457">
        <ele>838</ele>
        <time>2009-07-09T16:27:01Z</time>
      </trkpt>
      <trkpt lat="43.84028" lon="7.00485">
        <ele>838</ele>
        <time>2009-07-09T16:27:06Z</time>
      </trkpt>
      <trkpt lat="43.84018" lon="7.00525">
        <ele>838</ele>
        <time>2009-07-09T16:27:13Z</time>
      </trkpt>
      <trkpt lat="43.84007" lon="7.00552">
        <ele>838</ele>
        <time>2009-07-09T16:27:19Z</time>
      </trkpt>
      <trkpt lat="43.84012" lon="7.00612">
        <ele>838</ele>
        <time>2009-07-09T16:27:29Z</time>
      </trkpt>
      <trkpt lat="43.84017" lon="7.0064">
        <ele>838</ele>
        <time>2009-07-09T16:27:33Z</time>
      </trkpt>
      <trkpt lat="43.8402" lon="7.0067">
        <ele>838</ele>
        <time>2009-07-09T16:27:38Z</time>
      </trkpt>
      <trkpt lat="43.84032" lon="7.00762">
        <ele>838</ele>
        <time>2009-07-09T16:27:53Z</time>
      </trkpt>
      <trkpt lat="43.8403" lon="7.00842">
        <ele>838</ele>
        <time>2009-07-09T16:28:07Z</time>
      </trkpt>
      <trkpt lat="43.84028" lon="7.00848">
        <ele>838</ele>
        <time>2009-07-09T16:28:08Z</time>
      </trkpt>
      <trkpt lat="43.84025" lon="7.00887">
        <ele>838</ele>
        <time>2009-07-09T16:28:14Z</time>
      </trkpt>
      <trkpt lat="43.8403" lon="7.00915">
        <ele>837</ele>
        <time>2009-07-09T16:28:19Z</time>
      </trkpt>
      <trkpt lat="43.84033" lon="7.00953">
        <ele>838</ele>
        <time>2009-07-09T16:28:25Z</time>
      </trkpt>
      <trkpt lat="43.84032" lon="7.00967">
        <ele>837</ele>
        <time>2009-07-09T16:28:27Z</time>
      </trkpt>
      <trkpt lat="43.84035" lon="7.01035">
        <ele>838</ele>
        <time>2009-07-09T16:28:38Z</time>
      </trkpt>
      <trkpt lat="43.84035" lon="7.01048">
        <ele>838</ele>
        <time>2009-07-09T16:28:40Z</time>
      </trkpt>
      <trkpt lat="43.84037" lon="7.01128">
        <ele>837</ele>
        <time>2009-07-09T16:28:53Z</time>
      </trkpt>
      <trkpt lat="43.84038" lon="7.01203">
        <ele>837</ele>
        <time>2009-07-09T16:29:06Z</time>
      </trkpt>
      <trkpt lat="43.84037" lon="7.0121">
        <ele>837</ele>
        <time>2009-07-09T16:29:07Z</time>
      </trkpt>
      <trkpt lat="43.84023" lon="7.01285">
        <ele>836</ele>
        <time>2009-07-09T16:29:20Z</time>
      </trkpt>
      <trkpt lat="43.84025" lon="7.0132">
        <ele>836</ele>
        <time>2009-07-09T16:29:27Z</time>
      </trkpt>
      <trkpt lat="43.8402" lon="7.01343">
        <ele>836</ele>
        <time>2009-07-09T16:29:31Z</time>
      </trkpt>
      <trkpt lat="43.8401" lon="7.01408">
        <ele>837</ele>
        <time>2009-07-09T16:29:42Z</time>
      </trkpt>
      <trkpt lat="43.83998" lon="7.0147">
        <ele>837</ele>
        <time>2009-07-09T16:29:53Z</time>
      </trkpt>
      <trkpt lat="43.83985" lon="7.01523">
        <ele>837</ele>
        <time>2009-07-09T16:30:02Z</time>
      </trkpt>
      <trkpt lat="43.83967" lon="7.01597">
        <ele>837</ele>
        <time>2009-07-09T16:30:14Z</time>
      </trkpt>
      <trkpt lat="43.83953" lon="7.01688">
        <ele>837</ele>
        <time>2009-07-09T16:30:27Z</time>
      </trkpt>
      <trkpt lat="43.83948" lon="7.01708">
        <ele>837</ele>
        <time>2009-07-09T16:30:30Z</time>
      </trkpt>
      <trkpt lat="43.83945" lon="7.01735">
        <ele>836</ele>
        <time>2009-07-09T16:30:34Z</time>
      </trkpt>
      <trkpt lat="43.83948" lon="7.01765">
        <ele>837</ele>
        <time>2009-07-09T16:30:39Z</time>
      </trkpt>
      <trkpt lat="43.83948" lon="7.01778">
        <ele>837</ele>
        <time>2009-07-09T16:30:41Z</time>
      </trkpt>
      <trkpt lat="43.83935" lon="7.01848">
        <ele>837</ele>
        <time>2009-07-09T16:30:52Z</time>
      </trkpt>
      <trkpt lat="43.8393" lon="7.01873">
        <ele>837</ele>
        <time>2009-07-09T16:30:56Z</time>
      </trkpt>
      <trkpt lat="43.83925" lon="7.0189">
        <ele>837</ele>
        <time>2009-07-09T16:30:59Z</time>
      </trkpt>
      <trkpt lat="43.83913" lon="7.01912">
        <ele>837</ele>
        <time>2009-07-09T16:31:03Z</time>
      </trkpt>
      <trkpt lat="43.83905" lon="7.0195">
        <ele>837</ele>
        <time>2009-07-09T16:31:10Z</time>
      </trkpt>
      <trkpt lat="43.83897" lon="7.01973">
        <ele>837</ele>
        <time>2009-07-09T16:31:14Z</time>
      </trkpt>
      <trkpt lat="43.83893" lon="7.02005">
        <ele>836</ele>
        <time>2009-07-09T16:31:19Z</time>
      </trkpt>
      <trkpt lat="43.83897" lon="7.02047">
        <ele>836</ele>
        <time>2009-07-09T16:31:26Z</time>
      </trkpt>
      <trkpt lat="43.83902" lon="7.0207">
        <ele>836</ele>
        <time>2009-07-09T16:31:30Z</time>
      </trkpt>
      <trkpt lat="43.83903" lon="7.02083">
        <ele>836</ele>
        <time>2009-07-09T16:31:32Z</time>
      </trkpt>
      <trkpt lat="43.839" lon="7.02097">
        <ele>836</ele>
        <time>2009-07-09T16:31:34Z</time>
      </trkpt>
      <trkpt lat="43.83893" lon="7.02122">
        <ele>836</ele>
        <time>2009-07-09T16:31:38Z</time>
      </trkpt>
      <trkpt lat="43.8389" lon="7.02133">
        <ele>836</ele>
        <time>2009-07-09T16:31:40Z</time>
      </trkpt>
      <trkpt lat="43.83878" lon="7.0216">
        <ele>836</ele>
        <time>2009-07-09T16:31:46Z</time>
      </trkpt>
      <trkpt lat="43.83878" lon="7.02163">
        <ele>836</ele>
        <time>2009-07-09T16:32:08Z</time>
      </trkpt>
      <trkpt lat="43.83878" lon="7.02163">
        <ele>836</ele>
        <time>2009-07-09T16:32:10Z</time>
      </trkpt>
      <trkpt lat="43.83878" lon="7.0217">
        <ele>836</ele>
        <time>2009-07-09T16:32:13Z</time>
      </trkpt>
      <trkpt lat="43.83868" lon="7.02268">
        <ele>836</ele>
        <time>2009-07-09T16:32:26Z</time>
      </trkpt>
      <trkpt lat="43.83867" lon="7.02292">
        <ele>836</ele>
        <time>2009-07-09T16:32:29Z</time>
      </trkpt>
      <trkpt lat="43.83863" lon="7.02305">
        <ele>836</ele>
        <time>2009-07-09T16:32:31Z</time>
      </trkpt>
      <trkpt lat="43.83848" lon="7.02355">
        <ele>836</ele>
        <time>2009-07-09T16:32:38Z</time>
      </trkpt>
      <trkpt lat="43.83845" lon="7.02378">
        <ele>836</ele>
        <time>2009-07-09T16:32:41Z</time>
      </trkpt>
      <trkpt lat="43.83838" lon="7.02437">
        <ele>836</ele>
        <time>2009-07-09T16:32:52Z</time>
      </trkpt>
      <trkpt lat="43.83842" lon="7.02445">
        <ele>836</ele>
        <time>2009-07-09T16:33:22Z</time>
      </trkpt>
      <trkpt lat="43.83863" lon="7.02488">
        <ele>836</ele>
        <time>2009-07-09T16:33:33Z</time>
      </trkpt>
      <trkpt lat="43.8386" lon="7.02515">
        <ele>836</ele>
        <time>2009-07-09T16:33:38Z</time>
      </trkpt>
      <trkpt lat="43.8385" lon="7.0256">
        <ele>836</ele>
        <time>2009-07-09T16:33:46Z</time>
      </trkpt>
      <trkpt lat="43.83847" lon="7.02585">
        <ele>836</ele>
        <time>2009-07-09T16:33:51Z</time>
      </trkpt>
      <trkpt lat="43.83817" lon="7.02622">
        <ele>836</ele>
        <time>2009-07-09T16:34:00Z</time>
      </trkpt>
      <trkpt lat="43.83788" lon="7.02662">
        <ele>836</ele>
        <time>2009-07-09T16:34:11Z</time>
      </trkpt>
      <trkpt lat="43.83765" lon="7.02715">
        <ele>836</ele>
        <time>2009-07-09T16:34:22Z</time>
      </trkpt>
      <trkpt lat="43.83752" lon="7.02753">
        <ele>836</ele>
        <time>2009-07-09T16:34:29Z</time>
      </trkpt>
      <trkpt lat="43.8376" lon="7.02815">
        <ele>836</ele>
        <time>2009-07-09T16:34:38Z</time>
      </trkpt>
      <trkpt lat="43.83782" lon="7.02848">
        <ele>836</ele>
        <time>2009-07-09T16:34:45Z</time>
      </trkpt>
      <trkpt lat="43.8378" lon="7.029">
        <ele>836</ele>
        <time>2009-07-09T16:34:53Z</time>
      </trkpt>
      <trkpt lat="43.8378" lon="7.02912">
        <ele>836</ele>
        <time>2009-07-09T16:34:55Z</time>
      </trkpt>
      <trkpt lat="43.83773" lon="7.02933">
        <ele>836</ele>
        <time>2009-07-09T16:34:59Z</time>
      </trkpt>
      <trkpt lat="43.83748" lon="7.02973">
        <ele>836</ele>
        <time>2009-07-09T16:35:08Z</time>
      </trkpt>
      <trkpt lat="43.83747" lon="7.02997">
        <ele>836</ele>
        <time>2009-07-09T16:35:12Z</time>
      </trkpt>
      <trkpt lat="43.8375" lon="7.03035">
        <ele>836</ele>
        <time>2009-07-09T16:35:18Z</time>
      </trkpt>
      <trkpt lat="43.83748" lon="7.03063">
        <ele>836</ele>
        <time>2009-07-09T16:35:22Z</time>
      </trkpt>
      <trkpt lat="43.8375" lon="7.0313">
        <ele>836</ele>
        <time>2009-07-09T16:35:33Z</time>
      </trkpt>
      <trkpt lat="43.83748" lon="7.03142">
        <ele>836</ele>
        <time>2009-07-09T16:35:35Z</time>
      </trkpt>
      <trkpt lat="43.83735" lon="7.03162">
        <ele>835</ele>
        <time>2009-07-09T16:35:40Z</time>
      </trkpt>
      <trkpt lat="43.83717" lon="7.03177">
        <ele>835</ele>
        <time>2009-07-09T16:35:44Z</time>
      </trkpt>
      <trkpt lat="43.837" lon="7.03212">
        <ele>835</ele>
        <time>2009-07-09T16:35:51Z</time>
      </trkpt>
      <trkpt lat="43.83697" lon="7.03223">
        <ele>835</ele>
        <time>2009-07-09T16:35:53Z</time>
      </trkpt>
      <trkpt lat="43.83693" lon="7.03243">
        <ele>835</ele>
        <time>2009-07-09T16:35:57Z</time>
      </trkpt>
      <trkpt lat="43.83713" lon="7.0332">
        <ele>835</ele>
        <time>2009-07-09T16:36:09Z</time>
      </trkpt>
      <trkpt lat="43.8372" lon="7.03378">
        <ele>835</ele>
        <time>2009-07-09T16:36:21Z</time>
      </trkpt>
      <trkpt lat="43.8372" lon="7.03437">
        <ele>834</ele>
        <time>2009-07-09T16:36:31Z</time>
      </trkpt>
      <trkpt lat="43.8372" lon="7.03452">
        <ele>835</ele>
        <time>2009-07-09T16:36:33Z</time>
      </trkpt>
      <trkpt lat="43.83717" lon="7.03535">
        <ele>835</ele>
        <time>2009-07-09T16:36:46Z</time>
      </trkpt>
      <trkpt lat="43.83717" lon="7.03542">
        <ele>835</ele>
        <time>2009-07-09T16:36:47Z</time>
      </trkpt>
      <trkpt lat="43.83712" lon="7.0356">
        <ele>835</ele>
        <time>2009-07-09T16:36:51Z</time>
      </trkpt>
      <trkpt lat="43.83705" lon="7.03592">
        <ele>835</ele>
        <time>2009-07-09T16:36:57Z</time>
      </trkpt>
      <trkpt lat="43.83722" lon="7.03665">
        <ele>834</ele>
        <time>2009-07-09T16:37:09Z</time>
      </trkpt>
      <trkpt lat="43.83725" lon="7.03672">
        <ele>834</ele>
        <time>2009-07-09T16:37:10Z</time>
      </trkpt>
      <trkpt lat="43.8373" lon="7.0372">
        <ele>835</ele>
        <time>2009-07-09T16:37:18Z</time>
      </trkpt>
      <trkpt lat="43.83717" lon="7.03782">
        <ele>835</ele>
        <time>2009-07-09T16:37:29Z</time>
      </trkpt>
      <trkpt lat="43.83713" lon="7.03805">
        <ele>835</ele>
        <time>2009-07-09T16:37:33Z</time>
      </trkpt>
      <trkpt lat="43.83715" lon="7.0385">
        <ele>835</ele>
        <time>2009-07-09T16:37:40Z</time>
      </trkpt>
      <trkpt lat="43.83713" lon="7.039">
        <ele>835</ele>
        <time>2009-07-09T16:37:48Z</time>
      </trkpt>
      <trkpt lat="43.83712" lon="7.0392">
        <ele>835</ele>
        <time>2009-07-09T16:37:51Z</time>
      </trkpt>
      <trkpt lat="43.83708" lon="7.04015">
        <ele>835</ele>
        <time>2009-07-09T16:38:06Z</time>
      </trkpt>
      <trkpt lat="43.8371" lon="7.04022">
        <ele>835</ele>
        <time>2009-07-09T16:38:07Z</time>
      </trkpt>
      <trkpt lat="43.83708" lon="7.04088">
        <ele>834</ele>
        <time>2009-07-09T16:38:17Z</time>
      </trkpt>
      <trkpt lat="43.83702" lon="7.04135">
        <ele>834</ele>
        <time>2009-07-09T16:38:25Z</time>
      </trkpt>
      <trkpt lat="43.83692" lon="7.04208">
        <ele>835</ele>
        <time>2009-07-09T16:38:39Z</time>
      </trkpt>
      <trkpt lat="43.83693" lon="7.04275">
        <ele>835</ele>
        <time>2009-07-09T16:38:52Z</time>
      </trkpt>
      <trkpt lat="43.83685" lon="7.04322">
        <ele>834</ele>
        <time>2009-07-09T16:39:01Z</time>
      </trkpt>
      <trkpt lat="43.83682" lon="7.04395">
        <ele>834</ele>
        <time>2009-07-09T16:39:14Z</time>
      </trkpt>
      <trkpt lat="43.83673" lon="7.04438">
        <ele>834</ele>
        <time>2009-07-09T16:39:21Z</time>
      </trkpt>
      <trkpt lat="43.83672" lon="7.0446">
        <ele>834</ele>
        <time>2009-07-09T16:39:24Z</time>
      </trkpt>
      <trkpt lat="43.83673" lon="7.04515">
        <ele>834</ele>
        <time>2009-07-09T16:39:33Z</time>
      </trkpt>
      <trkpt lat="43.83677" lon="7.04585">
        <ele>834</ele>
        <time>2009-07-09T16:39:43Z</time>
      </trkpt>
      <trkpt lat="43.83677" lon="7.04598">
        <ele>834</ele>
        <time>2009-07-09T16:39:45Z</time>
      </trkpt>
      <trkpt lat="43.8367" lon="7.04627">
        <ele>834</ele>
        <time>2009-07-09T16:39:50Z</time>
      </trkpt>
      <trkpt lat="43.83648" lon="7.04688">
        <ele>834</ele>
        <time>2009-07-09T16:40:01Z</time>
      </trkpt>
      <trkpt lat="43.83653" lon="7.04713">
        <ele>834</ele>
        <time>2009-07-09T16:40:05Z</time>
      </trkpt>
      <trkpt lat="43.83663" lon="7.04772">
        <ele>834</ele>
        <time>2009-07-09T16:40:17Z</time>
      </trkpt>
      <trkpt lat="43.83658" lon="7.048">
        <ele>833</ele>
        <time>2009-07-09T16:40:25Z</time>
      </trkpt>
      <trkpt lat="43.83658" lon="7.04803">
        <ele>833</ele>
        <time>2009-07-09T16:40:43Z</time>
      </trkpt>
      <trkpt lat="43.83657" lon="7.04805">
        <ele>834</ele>
        <time>2009-07-09T16:42:46Z</time>
      </trkpt>
      <trkpt lat="43.8365" lon="7.0482">
        <ele>834</ele>
        <time>2009-07-09T16:42:52Z</time>
      </trkpt>
      <trkpt lat="43.83625" lon="7.04882">
        <ele>834</ele>
        <time>2009-07-09T16:43:05Z</time>
      </trkpt>
      <trkpt lat="43.83625" lon="7.04937">
        <ele>834</ele>
        <time>2009-07-09T16:43:15Z</time>
      </trkpt>
      <trkpt lat="43.83618" lon="7.05012">
        <ele>834</ele>
        <time>2009-07-09T16:43:28Z</time>
      </trkpt>
      <trkpt lat="43.83613" lon="7.05088">
        <ele>834</ele>
        <time>2009-07-09T16:43:41Z</time>
      </trkpt>
      <trkpt lat="43.83612" lon="7.05137">
        <ele>834</ele>
        <time>2009-07-09T16:43:50Z</time>
      </trkpt>
      <trkpt lat="43.8361" lon="7.05155">
        <ele>834</ele>
        <time>2009-07-09T16:44:00Z</time>
      </trkpt>
      <trkpt lat="43.8361" lon="7.05158">
        <ele>834</ele>
        <time>2009-07-09T16:45:40Z</time>
      </trkpt>
      <trkpt lat="43.83603" lon="7.05207">
        <ele>834</ele>
        <time>2009-07-09T16:45:54Z</time>
      </trkpt>
      <trkpt lat="43.83595" lon="7.05263">
        <ele>834</ele>
        <time>2009-07-09T16:46:04Z</time>
      </trkpt>
      <trkpt lat="43.83597" lon="7.05277">
        <ele>834</ele>
        <time>2009-07-09T16:46:06Z</time>
      </trkpt>
      <trkpt lat="43.8359" lon="7.05333">
        <ele>834</ele>
        <time>2009-07-09T16:46:17Z</time>
      </trkpt>
      <trkpt lat="43.83598" lon="7.05363">
        <ele>834</ele>
        <time>2009-07-09T16:46:22Z</time>
      </trkpt>
      <trkpt lat="43.83598" lon="7.05395">
        <ele>834</ele>
        <time>2009-07-09T16:46:27Z</time>
      </trkpt>
      <trkpt lat="43.83598" lon="7.05423">
        <ele>834</ele>
        <time>2009-07-09T16:46:32Z</time>
      </trkpt>
      <trkpt lat="43.83587" lon="7.05512">
        <ele>834</ele>
        <time>2009-07-09T16:46:47Z</time>
      </trkpt>
      <trkpt lat="43.8358" lon="7.0558">
        <ele>834</ele>
        <time>2009-07-09T16:46:59Z</time>
      </trkpt>
      <trkpt lat="43.83575" lon="7.05632">
        <ele>834</ele>
        <time>2009-07-09T16:47:08Z</time>
      </trkpt>
      <trkpt lat="43.83567" lon="7.05723">
        <ele>833</ele>
        <time>2009-07-09T16:47:22Z</time>
      </trkpt>
      <trkpt lat="43.83567" lon="7.05742">
        <ele>833</ele>
        <time>2009-07-09T16:47:25Z</time>
      </trkpt>
      <trkpt lat="43.83568" lon="7.05765">
        <ele>833</ele>
        <time>2009-07-09T16:47:29Z</time>
      </trkpt>
      <trkpt lat="43.83578" lon="7.05853">
        <ele>833</ele>
        <time>2009-07-09T16:47:43Z</time>
      </trkpt>
      <trkpt lat="43.83578" lon="7.05878">
        <ele>832</ele>
        <time>2009-07-09T16:47:47Z</time>
      </trkpt>
      <trkpt lat="43.83578" lon="7.05892">
        <ele>833</ele>
        <time>2009-07-09T16:47:49Z</time>
      </trkpt>
      <trkpt lat="43.83582" lon="7.05918">
        <ele>833</ele>
        <time>2009-07-09T16:47:53Z</time>
      </trkpt>
      <trkpt lat="43.83585" lon="7.0593">
        <ele>832</ele>
        <time>2009-07-09T16:47:55Z</time>
      </trkpt>
      <trkpt lat="43.83597" lon="7.05977">
        <ele>832</ele>
        <time>2009-07-09T16:48:03Z</time>
      </trkpt>
      <trkpt lat="43.83603" lon="7.06013">
        <ele>832</ele>
        <time>2009-07-09T16:48:09Z</time>
      </trkpt>
      <trkpt lat="43.83603" lon="7.06043">
        <ele>832</ele>
        <time>2009-07-09T16:48:14Z</time>
      </trkpt>
      <trkpt lat="43.83598" lon="7.0607">
        <ele>832</ele>
        <time>2009-07-09T16:48:19Z</time>
      </trkpt>
      <trkpt lat="43.83593" lon="7.06082">
        <ele>832</ele>
        <time>2009-07-09T16:48:21Z</time>
      </trkpt>
      <trkpt lat="43.83587" lon="7.06102">
        <ele>832</ele>
        <time>2009-07-09T16:48:25Z</time>
      </trkpt>
      <trkpt lat="43.8358" lon="7.06147">
        <ele>832</ele>
        <time>2009-07-09T16:48:33Z</time>
      </trkpt>
      <trkpt lat="43.83583" lon="7.06177">
        <ele>832</ele>
        <time>2009-07-09T16:48:37Z</time>
      </trkpt>
      <trkpt lat="43.83583" lon="7.06217">
        <ele>831</ele>
        <time>2009-07-09T16:48:44Z</time>
      </trkpt>
      <trkpt lat="43.83588" lon="7.0627">
        <ele>832</ele>
        <time>2009-07-09T16:48:53Z</time>
      </trkpt>
      <trkpt lat="43.83583" lon="7.06293">
        <ele>831</ele>
        <time>2009-07-09T16:48:58Z</time>
      </trkpt>
      <trkpt lat="43.83583" lon="7.0633">
        <ele>831</ele>
        <time>2009-07-09T16:49:04Z</time>
      </trkpt>
      <trkpt lat="43.83582" lon="7.06402">
        <ele>831</ele>
        <time>2009-07-09T16:49:16Z</time>
      </trkpt>
      <trkpt lat="43.83582" lon="7.06413">
        <ele>831</ele>
        <time>2009-07-09T16:49:18Z</time>
      </trkpt>
      <trkpt lat="43.83603" lon="7.06508">
        <ele>831</ele>
        <time>2009-07-09T16:49:32Z</time>
      </trkpt>
      <trkpt lat="43.83608" lon="7.06537">
        <ele>831</ele>
        <time>2009-07-09T16:49:36Z</time>
      </trkpt>
      <trkpt lat="43.83615" lon="7.06567">
        <ele>831</ele>
        <time>2009-07-09T16:49:41Z</time>
      </trkpt>
      <trkpt lat="43.8362" lon="7.06592">
        <ele>831</ele>
        <time>2009-07-09T16:49:45Z</time>
      </trkpt>
      <trkpt lat="43.83623" lon="7.06625">
        <ele>831</ele>
        <time>2009-07-09T16:49:50Z</time>
      </trkpt>
      <trkpt lat="43.83628" lon="7.06675">
        <ele>830</ele>
        <time>2009-07-09T16:49:57Z</time>
      </trkpt>
      <trkpt lat="43.83628" lon="7.06688">
        <ele>830</ele>
        <time>2009-07-09T16:49:59Z</time>
      </trkpt>
      <trkpt lat="43.8362" lon="7.06723">
        <ele>830</ele>
        <time>2009-07-09T16:50:05Z</time>
      </trkpt>
      <trkpt lat="43.83612" lon="7.06747">
        <ele>830</ele>
        <time>2009-07-09T16:50:09Z</time>
      </trkpt>
      <trkpt lat="43.83593" lon="7.06785">
        <ele>830</ele>
        <time>2009-07-09T16:50:16Z</time>
      </trkpt>
      <trkpt lat="43.83585" lon="7.06803">
        <ele>830</ele>
        <time>2009-07-09T16:50:19Z</time>
      </trkpt>
      <trkpt lat="43.83582" lon="7.06827">
        <ele>830</ele>
        <time>2009-07-09T16:50:22Z</time>
      </trkpt>
      <trkpt lat="43.8357" lon="7.0687">
        <ele>830</ele>
        <time>2009-07-09T16:50:30Z</time>
      </trkpt>
      <trkpt lat="43.83565" lon="7.0689">
        <ele>830</ele>
        <time>2009-07-09T16:50:33Z</time>
      </trkpt>
      <trkpt lat="43.83562" lon="7.06942">
        <ele>830</ele>
        <time>2009-07-09T16:50:41Z</time>
      </trkpt>
      <trkpt lat="43.8355" lon="7.06995">
        <ele>831</ele>
        <time>2009-07-09T16:50:52Z</time>
      </trkpt>
      <trkpt lat="43.83547" lon="7.07012">
        <ele>830</ele>
        <time>2009-07-09T16:50:56Z</time>
      </trkpt>
      <trkpt lat="43.83547" lon="7.07033">
        <ele>830</ele>
        <time>2009-07-09T16:51:11Z</time>
      </trkpt>
      <trkpt lat="43.83548" lon="7.07073">
        <ele>832</ele>
        <time>2009-07-09T16:52:21Z</time>
      </trkpt>
      <trkpt lat="43.83542" lon="7.07143">
        <ele>830</ele>
        <time>2009-07-09T16:52:35Z</time>
      </trkpt>
      <trkpt lat="43.83543" lon="7.07202">
        <ele>831</ele>
        <time>2009-07-09T16:52:46Z</time>
      </trkpt>
      <trkpt lat="43.8355" lon="7.07268">
        <ele>831</ele>
        <time>2009-07-09T16:52:59Z</time>
      </trkpt>
      <trkpt lat="43.83553" lon="7.0733">
        <ele>830</ele>
        <time>2009-07-09T16:53:10Z</time>
      </trkpt>
      <trkpt lat="43.83575" lon="7.07405">
        <ele>830</ele>
        <time>2009-07-09T16:53:23Z</time>
      </trkpt>
      <trkpt lat="43.83602" lon="7.07473">
        <ele>830</ele>
        <time>2009-07-09T16:53:36Z</time>
      </trkpt>
      <trkpt lat="43.83608" lon="7.07525">
        <ele>830</ele>
        <time>2009-07-09T16:53:46Z</time>
      </trkpt>
      <trkpt lat="43.83613" lon="7.07593">
        <ele>830</ele>
        <time>2009-07-09T16:53:58Z</time>
      </trkpt>
      <trkpt lat="43.83613" lon="7.07662">
        <ele>830</ele>
        <time>2009-07-09T16:54:10Z</time>
      </trkpt>
      <trkpt lat="43.836" lon="7.07728">
        <ele>830</ele>
        <time>2009-07-09T16:54:22Z</time>
      </trkpt>
      <trkpt lat="43.8359" lon="7.07792">
        <ele>830</ele>
        <time>2009-07-09T16:54:34Z</time>
      </trkpt>
      <trkpt lat="43.83582" lon="7.07862">
        <ele>830</ele>
        <time>2009-07-09T16:54:46Z</time>
      </trkpt>
      <trkpt lat="43.83567" lon="7.07932">
        <ele>830</ele>
        <time>2009-07-09T16:54:59Z</time>
      </trkpt>
      <trkpt lat="43.8356" lon="7.08003">
        <ele>829</ele>
        <time>2009-07-09T16:55:11Z</time>
      </trkpt>
      <trkpt lat="43.83555" lon="7.08055">
        <ele>829</ele>
        <time>2009-07-09T16:55:19Z</time>
      </trkpt>
      <trkpt lat="43.83555" lon="7.08088">
        <ele>830</ele>
        <time>2009-07-09T16:55:24Z</time>
      </trkpt>
      <trkpt lat="43.83558" lon="7.08142">
        <ele>829</ele>
        <time>2009-07-09T16:55:32Z</time>
      </trkpt>
      <trkpt lat="43.83565" lon="7.08197">
        <ele>829</ele>
        <time>2009-07-09T16:55:40Z</time>
      </trkpt>
      <trkpt lat="43.83567" lon="7.0822">
        <ele>829</ele>
        <time>2009-07-09T16:55:44Z</time>
      </trkpt>
      <trkpt lat="43.83572" lon="7.08283">
        <ele>829</ele>
        <time>2009-07-09T16:55:53Z</time>
      </trkpt>
      <trkpt lat="43.83577" lon="7.0832">
        <ele>829</ele>
        <time>2009-07-09T16:55:59Z</time>
      </trkpt>
      <trkpt lat="43.83583" lon="7.0834">
        <ele>829</ele>
        <time>2009-07-09T16:56:02Z</time>
      </trkpt>
      <trkpt lat="43.83592" lon="7.08373">
        <ele>829</ele>
        <time>2009-07-09T16:56:08Z</time>
      </trkpt>
      <trkpt lat="43.83593" lon="7.084">
        <ele>829</ele>
        <time>2009-07-09T16:56:13Z</time>
      </trkpt>
      <trkpt lat="43.83597" lon="7.08412">
        <ele>828</ele>
        <time>2009-07-09T16:56:15Z</time>
      </trkpt>
      <trkpt lat="43.836" lon="7.0844">
        <ele>828</ele>
        <time>2009-07-09T16:56:20Z</time>
      </trkpt>
      <trkpt lat="43.83602" lon="7.08462">
        <ele>828</ele>
        <time>2009-07-09T16:56:24Z</time>
      </trkpt>
      <trkpt lat="43.83602" lon="7.08498">
        <ele>828</ele>
        <time>2009-07-09T16:56:30Z</time>
      </trkpt>
      <trkpt lat="43.8361" lon="7.08558">
        <ele>828</ele>
        <time>2009-07-09T16:56:39Z</time>
      </trkpt>
      <trkpt lat="43.83615" lon="7.08578">
        <ele>829</ele>
        <time>2009-07-09T16:56:42Z</time>
      </trkpt>
      <trkpt lat="43.83622" lon="7.08608">
        <ele>829</ele>
        <time>2009-07-09T16:56:47Z</time>
      </trkpt>
      <trkpt lat="43.83633" lon="7.08683">
        <ele>828</ele>
        <time>2009-07-09T16:57:00Z</time>
      </trkpt>
      <trkpt lat="43.83632" lon="7.0869">
        <ele>828</ele>
        <time>2009-07-09T16:57:01Z</time>
      </trkpt>
      <trkpt lat="43.83633" lon="7.08712">
        <ele>828</ele>
        <time>2009-07-09T16:57:05Z</time>
      </trkpt>
      <trkpt lat="43.83618" lon="7.08782">
        <ele>828</ele>
        <time>2009-07-09T16:57:18Z</time>
      </trkpt>
      <trkpt lat="43.8361" lon="7.08802">
        <ele>828</ele>
        <time>2009-07-09T16:57:22Z</time>
      </trkpt>
      <trkpt lat="43.83593" lon="7.08838">
        <ele>828</ele>
        <time>2009-07-09T16:57:29Z</time>
      </trkpt>
      <trkpt lat="43.836" lon="7.08885">
        <ele>827</ele>
        <time>2009-07-09T16:57:39Z</time>
      </trkpt>
      <trkpt lat="43.83605" lon="7.08892">
        <ele>827</ele>
        <time>2009-07-09T16:57:41Z</time>
      </trkpt>
      <trkpt lat="43.83623" lon="7.08928">
        <ele>827</ele>
        <time>2009-07-09T16:57:50Z</time>
      </trkpt>
      <trkpt lat="43.83653" lon="7.08982">
        <ele>828</ele>
        <time>2009-07-09T16:58:00Z</time>
      </trkpt>
      <trkpt lat="43.83665" lon="7.09002">
        <ele>828</ele>
        <time>2009-07-09T16:58:04Z</time>
      </trkpt>
      <trkpt lat="43.83667" lon="7.09013">
        <ele>827</ele>
        <time>2009-07-09T16:58:06Z</time>
      </trkpt>
      <trkpt lat="43.83668" lon="7.09062">
        <ele>827</ele>
        <time>2009-07-09T16:58:14Z</time>
      </trkpt>
      <trkpt lat="43.83663" lon="7.09085">
        <ele>827</ele>
        <time>2009-07-09T16:58:18Z</time>
      </trkpt>
      <trkpt lat="43.83655" lon="7.09115">
        <ele>828</ele>
        <time>2009-07-09T16:58:23Z</time>
      </trkpt>
      <trkpt lat="43.83665" lon="7.09198">
        <ele>827</ele>
        <time>2009-07-09T16:58:38Z</time>
      </trkpt>
      <trkpt lat="43.83668" lon="7.09247">
        <ele>827</ele>
        <time>2009-07-09T16:58:47Z</time>
      </trkpt>
      <trkpt lat="43.83662" lon="7.09312">
        <ele>827</ele>
        <time>2009-07-09T16:58:59Z</time>
      </trkpt>
      <trkpt lat="43.83663" lon="7.09327">
        <ele>827</ele>
        <time>2009-07-09T16:59:02Z</time>
      </trkpt>
      <trkpt lat="43.83678" lon="7.09332">
        <ele>826</ele>
        <time>2009-07-09T16:59:06Z</time>
      </trkpt>
      <trkpt lat="43.83683" lon="7.0933">
        <ele>826</ele>
        <time>2009-07-09T16:59:08Z</time>
      </trkpt>
      <trkpt lat="43.83707" lon="7.0933">
        <ele>826</ele>
        <time>2009-07-09T16:59:13Z</time>
      </trkpt>
      <trkpt lat="43.83737" lon="7.09342">
        <ele>826</ele>
        <time>2009-07-09T16:59:25Z</time>
      </trkpt>
      <trkpt lat="43.83758" lon="7.09363">
        <ele>826</ele>
        <time>2009-07-09T16:59:38Z</time>
      </trkpt>
      <trkpt lat="43.83767" lon="7.09385">
        <ele>826</ele>
        <time>2009-07-09T16:59:50Z</time>
      </trkpt>
      <trkpt lat="43.8377" lon="7.0941">
        <ele>827</ele>
        <time>2009-07-09T17:01:56Z</time>
      </trkpt>
      <trkpt lat="43.83783" lon="7.09463">
        <ele>827</ele>
        <time>2009-07-09T17:02:08Z</time>
      </trkpt>
      <trkpt lat="43.838" lon="7.09533">
        <ele>827</ele>
        <time>2009-07-09T17:02:21Z</time>
      </trkpt>
      <trkpt lat="43.83815" lon="7.09597">
        <ele>827</ele>
        <time>2009-07-09T17:02:33Z</time>
      </trkpt>
      <trkpt lat="43.83828" lon="7.09665">
        <ele>827</ele>
        <time>2009-07-09T17:02:47Z</time>
      </trkpt>
      <trkpt lat="43.83835" lon="7.09735">
        <ele>827</ele>
        <time>2009-07-09T17:02:59Z</time>
      </trkpt>
      <trkpt lat="43.83847" lon="7.09812">
        <ele>826</ele>
        <time>2009-07-09T17:03:13Z</time>
      </trkpt>
      <trkpt lat="43.83862" lon="7.0985">
        <ele>827</ele>
        <time>2009-07-09T17:03:20Z</time>
      </trkpt>
      <trkpt lat="43.83908" lon="7.0994">
        <ele>826</ele>
        <time>2009-07-09T17:03:37Z</time>
      </trkpt>
      <trkpt lat="43.83913" lon="7.09952">
        <ele>826</ele>
        <time>2009-07-09T17:03:39Z</time>
      </trkpt>
      <trkpt lat="43.83922" lon="7.09982">
        <ele>826</ele>
        <time>2009-07-09T17:03:44Z</time>
      </trkpt>
      <trkpt lat="43.83928" lon="7.10025">
        <ele>826</ele>
        <time>2009-07-09T17:03:51Z</time>
      </trkpt>
      <trkpt lat="43.83935" lon="7.10125">
        <ele>827</ele>
        <time>2009-07-09T17:04:07Z</time>
      </trkpt>
      <trkpt lat="43.8394" lon="7.1017">
        <ele>827</ele>
        <time>2009-07-09T17:04:14Z</time>
      </trkpt>
      <trkpt lat="43.83942" lon="7.10197">
        <ele>826</ele>
        <time>2009-07-09T17:04:18Z</time>
      </trkpt>
      <trkpt lat="43.83968" lon="7.10275">
        <ele>826</ele>
        <time>2009-07-09T17:04:32Z</time>
      </trkpt>
      <trkpt lat="43.8399" lon="7.1032">
        <ele>827</ele>
        <time>2009-07-09T17:04:40Z</time>
      </trkpt>
      <trkpt lat="43.83998" lon="7.10337">
        <ele>826</ele>
        <time>2009-07-09T17:04:43Z</time>
      </trkpt>
      <trkpt lat="43.84007" lon="7.10353">
        <ele>827</ele>
        <time>2009-07-09T17:04:46Z</time>
      </trkpt>
      <trkpt lat="43.84013" lon="7.10377">
        <ele>827</ele>
        <time>2009-07-09T17:04:50Z</time>
      </trkpt>
      <trkpt lat="43.84012" lon="7.10405">
        <ele>826</ele>
        <time>2009-07-09T17:04:55Z</time>
      </trkpt>
      <trkpt lat="43.84012" lon="7.10442">
        <ele>827</ele>
        <time>2009-07-09T17:05:01Z</time>
      </trkpt>
      <trkpt lat="43.84015" lon="7.1046">
        <ele>827</ele>
        <time>2009-07-09T17:05:04Z</time>
      </trkpt>
      <trkpt lat="43.84022" lon="7.10483">
        <ele>826</ele>
        <time>2009-07-09T17:05:08Z</time>
      </trkpt>
      <trkpt lat="43.84022" lon="7.10497">
        <ele>827</ele>
        <time>2009-07-09T17:05:10Z</time>
      </trkpt>
      <trkpt lat="43.84018" lon="7.10533">
        <ele>827</ele>
        <time>2009-07-09T17:05:16Z</time>
      </trkpt>
      <trkpt lat="43.84025" lon="7.1062">
        <ele>827</ele>
        <time>2009-07-09T17:05:32Z</time>
      </trkpt>
      <trkpt lat="43.84017" lon="7.10613">
        <ele>830</ele>
        <time>2009-07-09T17:10:17Z</time>
      </trkpt>
      <trkpt lat="43.8401" lon="7.1061">
        <ele>832</ele>
        <time>2009-07-09T17:10:33Z</time>
      </trkpt>
      <trkpt lat="43.84012" lon="7.106">
        <ele>831</ele>
        <time>2009-07-09T17:10:48Z</time>
      </trkpt>
      <trkpt lat="43.84007" lon="7.10602">
        <ele>833</ele>
        <time>2009-07-09T17:10:58Z</time>
      </trkpt>
      <trkpt lat="43.84" lon="7.10613">
        <ele>834</ele>
        <time>2009-07-09T17:11:08Z</time>
      </trkpt>
      <trkpt lat="43.83993" lon="7.10623">
        <ele>834</ele>
        <time>2009-07-09T17:11:22Z</time>
      </trkpt>
      <trkpt lat="43.8399" lon="7.10638">
        <ele>833</ele>
        <time>2009-07-09T17:11:37Z</time>
      </trkpt>
      <trkpt lat="43.83987" lon="7.10652">
        <ele>833</ele>
        <time>2009-07-09T17:11:48Z</time>
      </trkpt>
      <trkpt lat="43.83985" lon="7.10653">
        <ele>834</ele>
        <time>2009-07-09T17:11:50Z</time>
      </trkpt>
      <trkpt lat="43.83983" lon="7.10662">
        <ele>836</ele>
        <time>2009-07-09T17:12:05Z</time>
      </trkpt>
      <trkpt lat="43.83978" lon="7.1068">
        <ele>838</ele>
        <time>2009-07-09T17:12:22Z</time>
      </trkpt>
      <trkpt lat="43.83977" lon="7.10693">
        <ele>839</ele>
        <time>2009-07-09T17:12:36Z</time>
      </trkpt>
      <trkpt lat="43.83977" lon="7.107">
        <ele>841</ele>
        <time>2009-07-09T17:13:01Z</time>
      </trkpt>
      <trkpt lat="43.83972" lon="7.10713">
        <ele>843</ele>
        <time>2009-07-09T17:13:16Z</time>
      </trkpt>
      <trkpt lat="43.83972" lon="7.10732">
        <ele>845</ele>
        <time>2009-07-09T17:13:33Z</time>
      </trkpt>
      <trkpt lat="43.83963" lon="7.10738">
        <ele>848</ele>
        <time>2009-07-09T17:13:48Z</time>
      </trkpt>
      <trkpt lat="43.83958" lon="7.10752">
        <ele>850</ele>
        <time>2009-07-09T17:14:03Z</time>
      </trkpt>
      <trkpt lat="43.83962" lon="7.10762">
        <ele>851</ele>
        <time>2009-07-09T17:14:18Z</time>
      </trkpt>
      <trkpt lat="43.83962" lon="7.10768">
        <ele>852</ele>
        <time>2009-07-09T17:14:34Z</time>
      </trkpt>
      <trkpt lat="43.83962" lon="7.10782">
        <ele>855</ele>
        <time>2009-07-09T17:14:47Z</time>
      </trkpt>
      <trkpt lat="43.83962" lon="7.10783">
        <ele>855</ele>
        <time>2009-07-09T17:14:48Z</time>
      </trkpt>
      <trkpt lat="43.83958" lon="7.10795">
        <ele>858</ele>
        <time>2009-07-09T17:15:03Z</time>
      </trkpt>
      <trkpt lat="43.83958" lon="7.10797">
        <ele>858</ele>
        <time>2009-07-09T17:15:19Z</time>
      </trkpt>
      <trkpt lat="43.83958" lon="7.10808">
        <ele>861</ele>
        <time>2009-07-09T17:16:15Z</time>
      </trkpt>
      <trkpt lat="43.83958" lon="7.10815">
        <ele>861</ele>
        <time>2009-07-09T17:16:22Z</time>
      </trkpt>
      <trkpt lat="43.8396" lon="7.10832">
        <ele>863</ele>
        <time>2009-07-09T17:16:36Z</time>
      </trkpt>
      <trkpt lat="43.83958" lon="7.10837">
        <ele>865</ele>
        <time>2009-07-09T17:16:47Z</time>
      </trkpt>
      <trkpt lat="43.8396" lon="7.1085">
        <ele>866</ele>
        <time>2009-07-09T17:17:00Z</time>
      </trkpt>
      <trkpt lat="43.83963" lon="7.10865">
        <ele>869</ele>
        <time>2009-07-09T17:17:15Z</time>
      </trkpt>
      <trkpt lat="43.83962" lon="7.10872">
        <ele>869</ele>
        <time>2009-07-09T17:17:21Z</time>
      </trkpt>
      <trkpt lat="43.83957" lon="7.10883">
        <ele>871</ele>
        <time>2009-07-09T17:17:35Z</time>
      </trkpt>
      <trkpt lat="43.83955" lon="7.109">
        <ele>872</ele>
        <time>2009-07-09T17:17:51Z</time>
      </trkpt>
      <trkpt lat="43.8395" lon="7.1091">
        <ele>874</ele>
        <time>2009-07-09T17:18:05Z</time>
      </trkpt>
      <trkpt lat="43.83943" lon="7.10918">
        <ele>877</ele>
        <time>2009-07-09T17:18:20Z</time>
      </trkpt>
      <trkpt lat="43.83942" lon="7.1093">
        <ele>879</ele>
        <time>2009-07-09T17:18:32Z</time>
      </trkpt>
      <trkpt lat="43.83942" lon="7.10938">
        <ele>882</ele>
        <time>2009-07-09T17:18:49Z</time>
      </trkpt>
      <trkpt lat="43.83943" lon="7.10942">
        <ele>881</ele>
        <time>2009-07-09T17:18:58Z</time>
      </trkpt>
      <trkpt lat="43.83945" lon="7.1095">
        <ele>882</ele>
        <time>2009-07-09T17:19:03Z</time>
      </trkpt>
      <trkpt lat="43.83945" lon="7.10953">
        <ele>882</ele>
        <time>2009-07-09T17:19:05Z</time>
      </trkpt>
      <trkpt lat="43.83947" lon="7.10972">
        <ele>882</ele>
        <time>2009-07-09T17:19:18Z</time>
      </trkpt>
      <trkpt lat="43.83947" lon="7.10982">
        <ele>882</ele>
        <time>2009-07-09T17:19:28Z</time>
      </trkpt>
      <trkpt lat="43.83948" lon="7.11008">
        <ele>882</ele>
        <time>2009-07-09T17:19:40Z</time>
      </trkpt>
      <trkpt lat="43.83945" lon="7.11032">
        <ele>883</ele>
        <time>2009-07-09T17:19:53Z</time>
      </trkpt>
      <trkpt lat="43.83943" lon="7.11045">
        <ele>885</ele>
        <time>2009-07-09T17:20:07Z</time>
      </trkpt>
      <trkpt lat="43.83943" lon="7.11055">
        <ele>886</ele>
        <time>2009-07-09T17:20:21Z</time>
      </trkpt>
      <trkpt lat="43.83943" lon="7.11073">
        <ele>888</ele>
        <time>2009-07-09T17:20:37Z</time>
      </trkpt>
      <trkpt lat="43.83943" lon="7.11075">
        <ele>888</ele>
        <time>2009-07-09T17:20:38Z</time>
      </trkpt>
      <trkpt lat="43.83945" lon="7.11088">
        <ele>889</ele>
        <time>2009-07-09T17:20:51Z</time>
      </trkpt>
      <trkpt lat="43.83945" lon="7.11093">
        <ele>890</ele>
        <time>2009-07-09T17:20:55Z</time>
      </trkpt>
      <trkpt lat="43.83945" lon="7.11098">
        <ele>889</ele>
        <time>2009-07-09T17:21:00Z</time>
      </trkpt>
      <trkpt lat="43.83943" lon="7.11105">
        <ele>890</ele>
        <time>2009-07-09T17:21:09Z</time>
      </trkpt>
      <trkpt lat="43.83947" lon="7.1112">
        <ele>890</ele>
        <time>2009-07-09T17:21:21Z</time>
      </trkpt>
      <trkpt lat="43.83943" lon="7.1113">
        <ele>891</ele>
        <time>2009-07-09T17:21:30Z</time>
      </trkpt>
      <trkpt lat="43.83943" lon="7.11143">
        <ele>893</ele>
        <time>2009-07-09T17:21:43Z</time>
      </trkpt>
      <trkpt lat="43.83937" lon="7.11163">
        <ele>895</ele>
        <time>2009-07-09T17:22:03Z</time>
      </trkpt>
      <trkpt lat="43.83937" lon="7.11187">
        <ele>897</ele>
        <time>2009-07-09T17:22:24Z</time>
      </trkpt>
      <trkpt lat="43.83943" lon="7.112">
        <ele>897</ele>
        <time>2009-07-09T17:22:40Z</time>
      </trkpt>
      <trkpt lat="43.83945" lon="7.1121">
        <ele>896</ele>
        <time>2009-07-09T17:22:57Z</time>
      </trkpt>
      <trkpt lat="43.83943" lon="7.11225">
        <ele>899</ele>
        <time>2009-07-09T17:23:18Z</time>
      </trkpt>
      <trkpt lat="43.83942" lon="7.11245">
        <ele>901</ele>
        <time>2009-07-09T17:23:35Z</time>
      </trkpt>
      <trkpt lat="43.83943" lon="7.11258">
        <ele>901</ele>
        <time>2009-07-09T17:23:54Z</time>
      </trkpt>
      <trkpt lat="43.83945" lon="7.11282">
        <ele>902</ele>
        <time>2009-07-09T17:24:14Z</time>
      </trkpt>
      <trkpt lat="43.83948" lon="7.11302">
        <ele>902</ele>
        <time>2009-07-09T17:24:31Z</time>
      </trkpt>
      <trkpt lat="43.83945" lon="7.11318">
        <ele>905</ele>
        <time>2009-07-09T17:24:48Z</time>
      </trkpt>
      <trkpt lat="43.83945" lon="7.1134">
        <ele>904</ele>
        <time>2009-07-09T17:25:07Z</time>
      </trkpt>
      <trkpt lat="43.83945" lon="7.1135">
        <ele>905</ele>
        <time>2009-07-09T17:25:25Z</time>
      </trkpt>
      <trkpt lat="43.83947" lon="7.11353">
        <ele>906</ele>
        <time>2009-07-09T17:25:39Z</time>
      </trkpt>
      <trkpt lat="43.83948" lon="7.11375">
        <ele>906</ele>
        <time>2009-07-09T17:25:55Z</time>
      </trkpt>
      <trkpt lat="43.83942" lon="7.11385">
        <ele>909</ele>
        <time>2009-07-09T17:26:14Z</time>
      </trkpt>
      <trkpt lat="43.83933" lon="7.11408">
        <ele>911</ele>
        <time>2009-07-09T17:26:39Z</time>
      </trkpt>
      <trkpt lat="43.83933" lon="7.1142">
        <ele>912</ele>
        <time>2009-07-09T17:26:57Z</time>
      </trkpt>
      <trkpt lat="43.83927" lon="7.11415">
        <ele>915</ele>
        <time>2009-07-09T17:27:12Z</time>
      </trkpt>
      <trkpt lat="43.83918" lon="7.1142">
        <ele>917</ele>
        <time>2009-07-09T17:27:27Z</time>
      </trkpt>
      <trkpt lat="43.83925" lon="7.1144">
        <ele>916</ele>
        <time>2009-07-09T17:27:46Z</time>
      </trkpt>
      <trkpt lat="43.8393" lon="7.1146">
        <ele>915</ele>
        <time>2009-07-09T17:27:59Z</time>
      </trkpt>
      <trkpt lat="43.83938" lon="7.11473">
        <ele>914</ele>
        <time>2009-07-09T17:28:17Z</time>
      </trkpt>
      <trkpt lat="43.83938" lon="7.1148">
        <ele>914</ele>
        <time>2009-07-09T17:28:20Z</time>
      </trkpt>
      <trkpt lat="43.83942" lon="7.11507">
        <ele>912</ele>
        <time>2009-07-09T17:28:30Z</time>
      </trkpt>
      <trkpt lat="43.8394" lon="7.11522">
        <ele>911</ele>
        <time>2009-07-09T17:28:34Z</time>
      </trkpt>
      <trkpt lat="43.83947" lon="7.11533">
        <ele>911</ele>
        <time>2009-07-09T17:28:38Z</time>
      </trkpt>
      <trkpt lat="43.83948" lon="7.11572">
        <ele>911</ele>
        <time>2009-07-09T17:28:49Z</time>
      </trkpt>
      <trkpt lat="43.83947" lon="7.11592">
        <ele>913</ele>
        <time>2009-07-09T17:28:55Z</time>
      </trkpt>
      <trkpt lat="43.83942" lon="7.11598">
        <ele>915</ele>
        <time>2009-07-09T17:28:59Z</time>
      </trkpt>
      <trkpt lat="43.8394" lon="7.11602">
        <ele>916</ele>
        <time>2009-07-09T17:29:02Z</time>
      </trkpt>
      <trkpt lat="43.83937" lon="7.11615">
        <ele>918</ele>
        <time>2009-07-09T17:29:07Z</time>
      </trkpt>
      <trkpt lat="43.83932" lon="7.11618">
        <ele>918</ele>
        <time>2009-07-09T17:29:11Z</time>
      </trkpt>
      <trkpt lat="43.83927" lon="7.11615">
        <ele>919</ele>
        <time>2009-07-09T17:29:14Z</time>
      </trkpt>
      <trkpt lat="43.8392" lon="7.11613">
        <ele>922</ele>
        <time>2009-07-09T17:29:31Z</time>
      </trkpt>
      <trkpt lat="43.83912" lon="7.1161">
        <ele>925</ele>
        <time>2009-07-09T17:29:50Z</time>
      </trkpt>
      <trkpt lat="43.83908" lon="7.11627">
        <ele>928</ele>
        <time>2009-07-09T17:30:07Z</time>
      </trkpt>
      <trkpt lat="43.83905" lon="7.1163">
        <ele>930</ele>
        <time>2009-07-09T17:30:23Z</time>
      </trkpt>
      <trkpt lat="43.839" lon="7.11628">
        <ele>933</ele>
        <time>2009-07-09T17:30:40Z</time>
      </trkpt>
      <trkpt lat="43.8389" lon="7.11632">
        <ele>936</ele>
        <time>2009-07-09T17:30:59Z</time>
      </trkpt>
      <trkpt lat="43.83882" lon="7.1163">
        <ele>939</ele>
        <time>2009-07-09T17:31:17Z</time>
      </trkpt>
      <trkpt lat="43.8388" lon="7.11637">
        <ele>939</ele>
        <time>2009-07-09T17:31:39Z</time>
      </trkpt>
      <trkpt lat="43.83873" lon="7.1163">
        <ele>943</ele>
        <time>2009-07-09T17:32:43Z</time>
      </trkpt>
      <trkpt lat="43.83863" lon="7.11625">
        <ele>946</ele>
        <time>2009-07-09T17:32:58Z</time>
      </trkpt>
      <trkpt lat="43.8386" lon="7.1162">
        <ele>949</ele>
        <time>2009-07-09T17:33:14Z</time>
      </trkpt>
      <trkpt lat="43.83853" lon="7.11623">
        <ele>952</ele>
        <time>2009-07-09T17:33:29Z</time>
      </trkpt>
      <trkpt lat="43.83843" lon="7.11625">
        <ele>954</ele>
        <time>2009-07-09T17:33:46Z</time>
      </trkpt>
      <trkpt lat="43.83837" lon="7.11623">
        <ele>957</ele>
        <time>2009-07-09T17:36:59Z</time>
      </trkpt>
      <trkpt lat="43.83823" lon="7.11618">
        <ele>960</ele>
        <time>2009-07-09T17:37:14Z</time>
      </trkpt>
      <trkpt lat="43.83817" lon="7.11612">
        <ele>962</ele>
        <time>2009-07-09T17:37:28Z</time>
      </trkpt>
      <trkpt lat="43.8381" lon="7.11602">
        <ele>965</ele>
        <time>2009-07-09T17:37:43Z</time>
      </trkpt>
      <trkpt lat="43.83803" lon="7.11612">
        <ele>968</ele>
        <time>2009-07-09T17:37:58Z</time>
      </trkpt>
      <trkpt lat="43.83797" lon="7.11615">
        <ele>970</ele>
        <time>2009-07-09T17:38:13Z</time>
      </trkpt>
      <trkpt lat="43.83792" lon="7.11615">
        <ele>973</ele>
        <time>2009-07-09T17:38:24Z</time>
      </trkpt>
      <trkpt lat="43.83787" lon="7.1162">
        <ele>975</ele>
        <time>2009-07-09T17:38:41Z</time>
      </trkpt>
      <trkpt lat="43.83782" lon="7.11613">
        <ele>978</ele>
        <time>2009-07-09T17:38:57Z</time>
      </trkpt>
      <trkpt lat="43.83775" lon="7.11607">
        <ele>981</ele>
        <time>2009-07-09T17:39:12Z</time>
      </trkpt>
      <trkpt lat="43.8377" lon="7.116">
        <ele>984</ele>
        <time>2009-07-09T17:39:28Z</time>
      </trkpt>
      <trkpt lat="43.8376" lon="7.11595">
        <ele>986</ele>
        <time>2009-07-09T17:39:44Z</time>
      </trkpt>
      <trkpt lat="43.83755" lon="7.11587">
        <ele>989</ele>
        <time>2009-07-09T17:39:58Z</time>
      </trkpt>
      <trkpt lat="43.83755" lon="7.11583">
        <ele>989</ele>
        <time>2009-07-09T17:40:01Z</time>
      </trkpt>
      <trkpt lat="43.83747" lon="7.11578">
        <ele>993</ele>
        <time>2009-07-09T17:40:16Z</time>
      </trkpt>
      <trkpt lat="43.8374" lon="7.1157">
        <ele>995</ele>
        <time>2009-07-09T17:40:33Z</time>
      </trkpt>
      <trkpt lat="43.83733" lon="7.11563">
        <ele>998</ele>
        <time>2009-07-09T17:40:46Z</time>
      </trkpt>
      <trkpt lat="43.83725" lon="7.11557">
        <ele>1000</ele>
        <time>2009-07-09T17:41:00Z</time>
      </trkpt>
      <trkpt lat="43.83713" lon="7.11548">
        <ele>1002</ele>
        <time>2009-07-09T17:41:15Z</time>
      </trkpt>
      <trkpt lat="43.83712" lon="7.11545">
        <ele>1003</ele>
        <time>2009-07-09T17:41:19Z</time>
      </trkpt>
      <trkpt lat="43.83705" lon="7.11538">
        <ele>1004</ele>
        <time>2009-07-09T17:41:32Z</time>
      </trkpt>
      <trkpt lat="43.837" lon="7.11533">
        <ele>1004</ele>
        <time>2009-07-09T17:41:48Z</time>
      </trkpt>
      <trkpt lat="43.83698" lon="7.11532">
        <ele>1004</ele>
        <time>2009-07-09T17:42:20Z</time>
      </trkpt>
      <trkpt lat="43.83697" lon="7.11528">
        <ele>1007</ele>
        <time>2009-07-09T17:47:00Z</time>
      </trkpt>
      <trkpt lat="43.83693" lon="7.11523">
        <ele>1008</ele>
        <time>2009-07-09T17:53:10Z</time>
      </trkpt>
      <trkpt lat="43.83688" lon="7.115">
        <ele>1007</ele>
        <time>2009-07-09T17:53:22Z</time>
      </trkpt>
      <trkpt lat="43.83677" lon="7.11488">
        <ele>1004</ele>
        <time>2009-07-09T17:53:32Z</time>
      </trkpt>
      <trkpt lat="43.83672" lon="7.11483">
        <ele>1002</ele>
        <time>2009-07-09T17:53:48Z</time>
      </trkpt>
      <trkpt lat="43.83665" lon="7.1148">
        <ele>1000</ele>
        <time>2009-07-09T17:54:03Z</time>
      </trkpt>
      <trkpt lat="43.83665" lon="7.1148">
        <ele>1000</ele>
        <time>2009-07-09T17:54:25Z</time>
      </trkpt>
      <trkpt lat="43.83663" lon="7.11478">
        <ele>1000</ele>
        <time>2009-07-09T17:55:14Z</time>
      </trkpt>
      <trkpt lat="43.83665" lon="7.11488">
        <ele>999</ele>
        <time>2009-07-09T18:02:54Z</time>
      </trkpt>
      <trkpt lat="43.83663" lon="7.11495">
        <ele>998</ele>
        <time>2009-07-09T18:03:06Z</time>
      </trkpt>
      <trkpt lat="43.83657" lon="7.11493">
        <ele>996</ele>
        <time>2009-07-09T18:03:19Z</time>
      </trkpt>
      <trkpt lat="43.83648" lon="7.11492">
        <ele>994</ele>
        <time>2009-07-09T18:03:35Z</time>
      </trkpt>
      <trkpt lat="43.83648" lon="7.11497">
        <ele>992</ele>
        <time>2009-07-09T18:03:48Z</time>
      </trkpt>
      <trkpt lat="43.83647" lon="7.11493">
        <ele>992</ele>
        <time>2009-07-09T18:03:51Z</time>
      </trkpt>
      <trkpt lat="43.8364" lon="7.1149">
        <ele>990</ele>
        <time>2009-07-09T18:03:58Z</time>
      </trkpt>
      <trkpt lat="43.8364" lon="7.11498">
        <ele>988</ele>
        <time>2009-07-09T18:04:08Z</time>
      </trkpt>
      <trkpt lat="43.83642" lon="7.11508">
        <ele>986</ele>
        <time>2009-07-09T18:04:21Z</time>
      </trkpt>
      <trkpt lat="43.83635" lon="7.11505">
        <ele>985</ele>
        <time>2009-07-09T18:04:31Z</time>
      </trkpt>
      <trkpt lat="43.83627" lon="7.115">
        <ele>984</ele>
        <time>2009-07-09T18:04:44Z</time>
      </trkpt>
      <trkpt lat="43.83618" lon="7.11495">
        <ele>981</ele>
        <time>2009-07-09T18:04:57Z</time>
      </trkpt>
      <trkpt lat="43.83613" lon="7.11498">
        <ele>979</ele>
        <time>2009-07-09T18:05:08Z</time>
      </trkpt>
      <trkpt lat="43.83598" lon="7.11497">
        <ele>977</ele>
        <time>2009-07-09T18:05:22Z</time>
      </trkpt>
      <trkpt lat="43.83593" lon="7.11495">
        <ele>975</ele>
        <time>2009-07-09T18:05:26Z</time>
      </trkpt>
      <trkpt lat="43.8359" lon="7.11495">
        <ele>975</ele>
        <time>2009-07-09T18:05:28Z</time>
      </trkpt>
      <trkpt lat="43.83588" lon="7.11498">
        <ele>973</ele>
        <time>2009-07-09T18:05:32Z</time>
      </trkpt>
      <trkpt lat="43.83592" lon="7.11507">
        <ele>972</ele>
        <time>2009-07-09T18:05:37Z</time>
      </trkpt>
      <trkpt lat="43.8357" lon="7.11487">
        <ele>968</ele>
        <time>2009-07-09T18:05:48Z</time>
      </trkpt>
      <trkpt lat="43.83563" lon="7.11482">
        <ele>967</ele>
        <time>2009-07-09T18:05:51Z</time>
      </trkpt>
      <trkpt lat="43.83552" lon="7.1148">
        <ele>964</ele>
        <time>2009-07-09T18:05:57Z</time>
      </trkpt>
      <trkpt lat="43.83537" lon="7.11473">
        <ele>960</ele>
        <time>2009-07-09T18:06:05Z</time>
      </trkpt>
      <trkpt lat="43.83528" lon="7.1147">
        <ele>960</ele>
        <time>2009-07-09T18:06:10Z</time>
      </trkpt>
      <trkpt lat="43.83523" lon="7.11468">
        <ele>958</ele>
        <time>2009-07-09T18:06:14Z</time>
      </trkpt>
      <trkpt lat="43.83508" lon="7.11462">
        <ele>956</ele>
        <time>2009-07-09T18:06:25Z</time>
      </trkpt>
      <trkpt lat="43.83487" lon="7.11445">
        <ele>953</ele>
        <time>2009-07-09T18:06:47Z</time>
      </trkpt>
      <trkpt lat="43.83465" lon="7.11433">
        <ele>951</ele>
        <time>2009-07-09T18:06:54Z</time>
      </trkpt>
      <trkpt lat="43.83452" lon="7.11425">
        <ele>950</ele>
        <time>2009-07-09T18:06:57Z</time>
      </trkpt>
      <trkpt lat="43.83437" lon="7.11417">
        <ele>950</ele>
        <time>2009-07-09T18:07:01Z</time>
      </trkpt>
      <trkpt lat="43.83398" lon="7.114">
        <ele>946</ele>
        <time>2009-07-09T18:07:11Z</time>
      </trkpt>
      <trkpt lat="43.83378" lon="7.11387">
        <ele>944</ele>
        <time>2009-07-09T18:07:18Z</time>
      </trkpt>
      <trkpt lat="43.83352" lon="7.11375">
        <ele>941</ele>
        <time>2009-07-09T18:07:27Z</time>
      </trkpt>
      <trkpt lat="43.83345" lon="7.11372">
        <ele>940</ele>
        <time>2009-07-09T18:07:30Z</time>
      </trkpt>
      <trkpt lat="43.83323" lon="7.11363">
        <ele>936</ele>
        <time>2009-07-09T18:07:40Z</time>
      </trkpt>
      <trkpt lat="43.83322" lon="7.11362">
        <ele>936</ele>
        <time>2009-07-09T18:07:41Z</time>
      </trkpt>
      <trkpt lat="43.8332" lon="7.11377">
        <ele>936</ele>
        <time>2009-07-09T18:07:48Z</time>
      </trkpt>
      <trkpt lat="43.83322" lon="7.11392">
        <ele>936</ele>
        <time>2009-07-09T18:07:53Z</time>
      </trkpt>
      <trkpt lat="43.83322" lon="7.11395">
        <ele>936</ele>
        <time>2009-07-09T18:08:14Z</time>
      </trkpt>
      <trkpt lat="43.83322" lon="7.11405">
        <ele>937</ele>
        <time>2009-07-09T18:09:02Z</time>
      </trkpt>
      <trkpt lat="43.83317" lon="7.1144">
        <ele>940</ele>
        <time>2009-07-09T18:09:17Z</time>
      </trkpt>
      <trkpt lat="43.8331" lon="7.11465">
        <ele>942</ele>
        <time>2009-07-09T18:09:29Z</time>
      </trkpt>
      <trkpt lat="43.83313" lon="7.11507">
        <ele>940</ele>
        <time>2009-07-09T18:09:39Z</time>
      </trkpt>
      <trkpt lat="43.83313" lon="7.1154">
        <ele>940</ele>
        <time>2009-07-09T18:09:48Z</time>
      </trkpt>
      <trkpt lat="43.83303" lon="7.11543">
        <ele>938</ele>
        <time>2009-07-09T18:09:54Z</time>
      </trkpt>
      <trkpt lat="43.833" lon="7.1155">
        <ele>937</ele>
        <time>2009-07-09T18:09:56Z</time>
      </trkpt>
      <trkpt lat="43.833" lon="7.11575">
        <ele>938</ele>
        <time>2009-07-09T18:10:04Z</time>
      </trkpt>
      <trkpt lat="43.8329" lon="7.11587">
        <ele>936</ele>
        <time>2009-07-09T18:10:23Z</time>
      </trkpt>
      <trkpt lat="43.83272" lon="7.11585">
        <ele>934</ele>
        <time>2009-07-09T18:10:37Z</time>
      </trkpt>
      <trkpt lat="43.83265" lon="7.11583">
        <ele>932</ele>
        <time>2009-07-09T18:10:44Z</time>
      </trkpt>
      <trkpt lat="43.8325" lon="7.11582">
        <ele>929</ele>
        <time>2009-07-09T18:10:53Z</time>
      </trkpt>
      <trkpt lat="43.83232" lon="7.1158">
        <ele>926</ele>
        <time>2009-07-09T18:11:03Z</time>
      </trkpt>
      <trkpt lat="43.83223" lon="7.1158">
        <ele>924</ele>
        <time>2009-07-09T18:11:16Z</time>
      </trkpt>
      <trkpt lat="43.83228" lon="7.11585">
        <ele>924</ele>
        <time>2009-07-09T18:11:26Z</time>
      </trkpt>
      <trkpt lat="43.83238" lon="7.11597">
        <ele>922</ele>
        <time>2009-07-09T18:11:35Z</time>
      </trkpt>
      <trkpt lat="43.83242" lon="7.11602">
        <ele>921</ele>
        <time>2009-07-09T18:11:38Z</time>
      </trkpt>
      <trkpt lat="43.83242" lon="7.11605">
        <ele>921</ele>
        <time>2009-07-09T18:11:41Z</time>
      </trkpt>
      <trkpt lat="43.83228" lon="7.11595">
        <ele>919</ele>
        <time>2009-07-09T18:11:55Z</time>
      </trkpt>
      <trkpt lat="43.83222" lon="7.11592">
        <ele>918</ele>
        <time>2009-07-09T18:12:09Z</time>
      </trkpt>
      <trkpt lat="43.83208" lon="7.11582">
        <ele>915</ele>
        <time>2009-07-09T18:12:18Z</time>
      </trkpt>
      <trkpt lat="43.83203" lon="7.11583">
        <ele>914</ele>
        <time>2009-07-09T18:12:22Z</time>
      </trkpt>
      <trkpt lat="43.83208" lon="7.11595">
        <ele>912</ele>
        <time>2009-07-09T18:12:27Z</time>
      </trkpt>
      <trkpt lat="43.8322" lon="7.11612">
        <ele>909</ele>
        <time>2009-07-09T18:12:36Z</time>
      </trkpt>
      <trkpt lat="43.83218" lon="7.11615">
        <ele>908</ele>
        <time>2009-07-09T18:12:39Z</time>
      </trkpt>
      <trkpt lat="43.83198" lon="7.11615">
        <ele>905</ele>
        <time>2009-07-09T18:12:50Z</time>
      </trkpt>
      <trkpt lat="43.8319" lon="7.1162">
        <ele>903</ele>
        <time>2009-07-09T18:12:56Z</time>
      </trkpt>
      <trkpt lat="43.83173" lon="7.11622">
        <ele>899</ele>
        <time>2009-07-09T18:13:05Z</time>
      </trkpt>
      <trkpt lat="43.83172" lon="7.11623">
        <ele>898</ele>
        <time>2009-07-09T18:13:06Z</time>
      </trkpt>
      <trkpt lat="43.8316" lon="7.1163">
        <ele>895</ele>
        <time>2009-07-09T18:13:13Z</time>
      </trkpt>
      <trkpt lat="43.83152" lon="7.11637">
        <ele>892</ele>
        <time>2009-07-09T18:13:18Z</time>
      </trkpt>
      <trkpt lat="43.8315" lon="7.11638">
        <ele>891</ele>
        <time>2009-07-09T18:13:19Z</time>
      </trkpt>
      <trkpt lat="43.8314" lon="7.11647">
        <ele>888</ele>
        <time>2009-07-09T18:13:25Z</time>
      </trkpt>
      <trkpt lat="43.83127" lon="7.11657">
        <ele>885</ele>
        <time>2009-07-09T18:13:32Z</time>
      </trkpt>
      <trkpt lat="43.83122" lon="7.11658">
        <ele>883</ele>
        <time>2009-07-09T18:13:35Z</time>
      </trkpt>
      <trkpt lat="43.83115" lon="7.11663">
        <ele>881</ele>
        <time>2009-07-09T18:13:39Z</time>
      </trkpt>
      <trkpt lat="43.83103" lon="7.11673">
        <ele>878</ele>
        <time>2009-07-09T18:13:46Z</time>
      </trkpt>
      <trkpt lat="43.83088" lon="7.11682">
        <ele>875</ele>
        <time>2009-07-09T18:13:56Z</time>
      </trkpt>
      <trkpt lat="43.83085" lon="7.11682">
        <ele>874</ele>
        <time>2009-07-09T18:14:05Z</time>
      </trkpt>
      <trkpt lat="43.8308" lon="7.1169">
        <ele>874</ele>
        <time>2009-07-09T18:14:18Z</time>
      </trkpt>
      <trkpt lat="43.83082" lon="7.1169">
        <ele>874</ele>
        <time>2009-07-09T18:15:13Z</time>
      </trkpt>
      <trkpt lat="43.8308" lon="7.1169">
        <ele>873</ele>
        <time>2009-07-09T18:15:29Z</time>
      </trkpt>
      <trkpt lat="43.8306" lon="7.11692">
        <ele>870</ele>
        <time>2009-07-09T18:15:38Z</time>
      </trkpt>
      <trkpt lat="43.83052" lon="7.11692">
        <ele>868</ele>
        <time>2009-07-09T18:15:41Z</time>
      </trkpt>
      <trkpt lat="43.83035" lon="7.11697">
        <ele>865</ele>
        <time>2009-07-09T18:15:46Z</time>
      </trkpt>
      <trkpt lat="43.83028" lon="7.11698">
        <ele>863</ele>
        <time>2009-07-09T18:15:49Z</time>
      </trkpt>
      <trkpt lat="43.83022" lon="7.117">
        <ele>861</ele>
        <time>2009-07-09T18:15:52Z</time>
      </trkpt>
      <trkpt lat="43.83017" lon="7.11703">
        <ele>861</ele>
        <time>2009-07-09T18:15:54Z</time>
      </trkpt>
      <trkpt lat="43.82998" lon="7.117">
        <ele>857</ele>
        <time>2009-07-09T18:16:03Z</time>
      </trkpt>
      <trkpt lat="43.82987" lon="7.11695">
        <ele>855</ele>
        <time>2009-07-09T18:16:08Z</time>
      </trkpt>
      <trkpt lat="43.82968" lon="7.11688">
        <ele>851</ele>
        <time>2009-07-09T18:16:15Z</time>
      </trkpt>
      <trkpt lat="43.8295" lon="7.11677">
        <ele>848</ele>
        <time>2009-07-09T18:16:21Z</time>
      </trkpt>
      <trkpt lat="43.82932" lon="7.11672">
        <ele>845</ele>
        <time>2009-07-09T18:16:27Z</time>
      </trkpt>
      <trkpt lat="43.82928" lon="7.11672">
        <ele>844</ele>
        <time>2009-07-09T18:16:28Z</time>
      </trkpt>
      <trkpt lat="43.82917" lon="7.11672">
        <ele>842</ele>
        <time>2009-07-09T18:16:32Z</time>
      </trkpt>
      <trkpt lat="43.8291" lon="7.11677">
        <ele>841</ele>
        <time>2009-07-09T18:16:36Z</time>
      </trkpt>
      <trkpt lat="43.82895" lon="7.1168">
        <ele>836</ele>
        <time>2009-07-09T18:16:42Z</time>
      </trkpt>
      <trkpt lat="43.8288" lon="7.11682">
        <ele>833</ele>
        <time>2009-07-09T18:16:47Z</time>
      </trkpt>
      <trkpt lat="43.8286" lon="7.1168">
        <ele>830</ele>
        <time>2009-07-09T18:16:54Z</time>
      </trkpt>
      <trkpt lat="43.82857" lon="7.1168">
        <ele>829</ele>
        <time>2009-07-09T18:17:07Z</time>
      </trkpt>
      <trkpt lat="43.82848" lon="7.11682">
        <ele>826</ele>
        <time>2009-07-09T18:17:45Z</time>
      </trkpt>
      <trkpt lat="43.82843" lon="7.11682">
        <ele>825</ele>
        <time>2009-07-09T18:18:03Z</time>
      </trkpt>
      <trkpt lat="43.82832" lon="7.1168">
        <ele>823</ele>
        <time>2009-07-09T18:18:16Z</time>
      </trkpt>
      <trkpt lat="43.82833" lon="7.1169">
        <ele>821</ele>
        <time>2009-07-09T18:18:29Z</time>
      </trkpt>
      <trkpt lat="43.82843" lon="7.1171">
        <ele>817</ele>
        <time>2009-07-09T18:18:42Z</time>
      </trkpt>
      <trkpt lat="43.82845" lon="7.11715">
        <ele>815</ele>
        <time>2009-07-09T18:18:53Z</time>
      </trkpt>
      <trkpt lat="43.82837" lon="7.11715">
        <ele>813</ele>
        <time>2009-07-09T18:19:01Z</time>
      </trkpt>
      <trkpt lat="43.82842" lon="7.11732">
        <ele>810</ele>
        <time>2009-07-09T18:19:14Z</time>
      </trkpt>
      <trkpt lat="43.82832" lon="7.11727">
        <ele>808</ele>
        <time>2009-07-09T18:19:31Z</time>
      </trkpt>
      <trkpt lat="43.82838" lon="7.11738">
        <ele>806</ele>
        <time>2009-07-09T18:19:43Z</time>
      </trkpt>
      <trkpt lat="43.82842" lon="7.11747">
        <ele>805</ele>
        <time>2009-07-09T18:19:59Z</time>
      </trkpt>
      <trkpt lat="43.82843" lon="7.11755">
        <ele>804</ele>
        <time>2009-07-09T18:20:14Z</time>
      </trkpt>
      <trkpt lat="43.82848" lon="7.11767">
        <ele>801</ele>
        <time>2009-07-09T18:20:24Z</time>
      </trkpt>
      <trkpt lat="43.82852" lon="7.11773">
        <ele>800</ele>
        <time>2009-07-09T18:20:28Z</time>
      </trkpt>
      <trkpt lat="43.82843" lon="7.1177">
        <ele>798</ele>
        <time>2009-07-09T18:20:41Z</time>
      </trkpt>
      <trkpt lat="43.8284" lon="7.11768">
        <ele>798</ele>
        <time>2009-07-09T18:20:44Z</time>
      </trkpt>
      <trkpt lat="43.82842" lon="7.11778">
        <ele>796</ele>
        <time>2009-07-09T18:20:58Z</time>
      </trkpt>
      <trkpt lat="43.82837" lon="7.11785">
        <ele>793</ele>
        <time>2009-07-09T18:21:09Z</time>
      </trkpt>
      <trkpt lat="43.82827" lon="7.11778">
        <ele>791</ele>
        <time>2009-07-09T18:21:17Z</time>
      </trkpt>
      <trkpt lat="43.82817" lon="7.11777">
        <ele>788</ele>
        <time>2009-07-09T18:21:24Z</time>
      </trkpt>
      <trkpt lat="43.8281" lon="7.1178">
        <ele>787</ele>
        <time>2009-07-09T18:21:28Z</time>
      </trkpt>
      <trkpt lat="43.82798" lon="7.11775">
        <ele>784</ele>
        <time>2009-07-09T18:21:36Z</time>
      </trkpt>
      <trkpt lat="43.82793" lon="7.11782">
        <ele>782</ele>
        <time>2009-07-09T18:21:42Z</time>
      </trkpt>
      <trkpt lat="43.82797" lon="7.11787">
        <ele>781</ele>
        <time>2009-07-09T18:21:46Z</time>
      </trkpt>
      <trkpt lat="43.82798" lon="7.11803">
        <ele>778</ele>
        <time>2009-07-09T18:21:56Z</time>
      </trkpt>
      <trkpt lat="43.82798" lon="7.11807">
        <ele>777</ele>
        <time>2009-07-09T18:21:58Z</time>
      </trkpt>
      <trkpt lat="43.82795" lon="7.11822">
        <ele>774</ele>
        <time>2009-07-09T18:22:10Z</time>
      </trkpt>
      <trkpt lat="43.82795" lon="7.11833">
        <ele>772</ele>
        <time>2009-07-09T18:22:26Z</time>
      </trkpt>
      <trkpt lat="43.82802" lon="7.1184">
        <ele>771</ele>
        <time>2009-07-09T18:22:35Z</time>
      </trkpt>
      <trkpt lat="43.82802" lon="7.11843">
        <ele>770</ele>
        <time>2009-07-09T18:22:38Z</time>
      </trkpt>
      <trkpt lat="43.8279" lon="7.11847">
        <ele>767</ele>
        <time>2009-07-09T18:22:52Z</time>
      </trkpt>
      <trkpt lat="43.82787" lon="7.11852">
        <ele>766</ele>
        <time>2009-07-09T18:23:06Z</time>
      </trkpt>
      <trkpt lat="43.82787" lon="7.11852">
        <ele>765</ele>
        <time>2009-07-09T18:23:29Z</time>
      </trkpt>
      <trkpt lat="43.8279" lon="7.11863">
        <ele>763</ele>
        <time>2009-07-09T18:23:42Z</time>
      </trkpt>
      <trkpt lat="43.8279" lon="7.11863">
        <ele>763</ele>
        <time>2009-07-09T18:24:53Z</time>
      </trkpt>
      <trkpt lat="43.82777" lon="7.11857">
        <ele>760</ele>
        <time>2009-07-09T18:25:00Z</time>
      </trkpt>
      <trkpt lat="43.82763" lon="7.11855">
        <ele>756</ele>
        <time>2009-07-09T18:25:05Z</time>
      </trkpt>
      <trkpt lat="43.82755" lon="7.11855">
        <ele>754</ele>
        <time>2009-07-09T18:25:08Z</time>
      </trkpt>
      <trkpt lat="43.82752" lon="7.11862">
        <ele>752</ele>
        <time>2009-07-09T18:25:11Z</time>
      </trkpt>
      <trkpt lat="43.82752" lon="7.11863">
        <ele>752</ele>
        <time>2009-07-09T18:25:12Z</time>
      </trkpt>
      <trkpt lat="43.82743" lon="7.11872">
        <ele>748</ele>
        <time>2009-07-09T18:25:17Z</time>
      </trkpt>
      <trkpt lat="43.82738" lon="7.11873">
        <ele>747</ele>
        <time>2009-07-09T18:25:19Z</time>
      </trkpt>
      <trkpt lat="43.82738" lon="7.11893">
        <ele>744</ele>
        <time>2009-07-09T18:25:26Z</time>
      </trkpt>
      <trkpt lat="43.82735" lon="7.11905">
        <ele>741</ele>
        <time>2009-07-09T18:25:30Z</time>
      </trkpt>
      <trkpt lat="43.82728" lon="7.11903">
        <ele>740</ele>
        <time>2009-07-09T18:25:33Z</time>
      </trkpt>
      <trkpt lat="43.82718" lon="7.11898">
        <ele>739</ele>
        <time>2009-07-09T18:25:36Z</time>
      </trkpt>
      <trkpt lat="43.82717" lon="7.11915">
        <ele>737</ele>
        <time>2009-07-09T18:25:42Z</time>
      </trkpt>
      <trkpt lat="43.82732" lon="7.11952">
        <ele>734</ele>
        <time>2009-07-09T18:25:50Z</time>
      </trkpt>
      <trkpt lat="43.82745" lon="7.11967">
        <ele>732</ele>
        <time>2009-07-09T18:25:54Z</time>
      </trkpt>
      <trkpt lat="43.82752" lon="7.11972">
        <ele>731</ele>
        <time>2009-07-09T18:25:57Z</time>
      </trkpt>
      <trkpt lat="43.82755" lon="7.11977">
        <ele>730</ele>
        <time>2009-07-09T18:26:15Z</time>
      </trkpt>
      <trkpt lat="43.82755" lon="7.11978">
        <ele>730</ele>
        <time>2009-07-09T18:26:39Z</time>
      </trkpt>
      <trkpt lat="43.8278" lon="7.11992">
        <ele>727</ele>
        <time>2009-07-09T18:26:46Z</time>
      </trkpt>
      <trkpt lat="43.82792" lon="7.12005">
        <ele>726</ele>
        <time>2009-07-09T18:26:49Z</time>
      </trkpt>
      <trkpt lat="43.82798" lon="7.1202">
        <ele>725</ele>
        <time>2009-07-09T18:26:51Z</time>
      </trkpt>
      <trkpt lat="43.82807" lon="7.12055">
        <ele>722</ele>
        <time>2009-07-09T18:26:55Z</time>
      </trkpt>
      <trkpt lat="43.82837" lon="7.12102">
        <ele>718</ele>
        <time>2009-07-09T18:27:01Z</time>
      </trkpt>
      <trkpt lat="43.8287" lon="7.12133">
        <ele>714</ele>
        <time>2009-07-09T18:27:08Z</time>
      </trkpt>
      <trkpt lat="43.82853" lon="7.12128">
        <ele>713</ele>
        <time>2009-07-09T18:27:12Z</time>
      </trkpt>
      <trkpt lat="43.82805" lon="7.121">
        <ele>710</ele>
        <time>2009-07-09T18:27:21Z</time>
      </trkpt>
      <trkpt lat="43.82793" lon="7.12097">
        <ele>708</ele>
        <time>2009-07-09T18:27:23Z</time>
      </trkpt>
      <trkpt lat="43.82782" lon="7.1209">
        <ele>707</ele>
        <time>2009-07-09T18:27:25Z</time>
      </trkpt>
      <trkpt lat="43.82773" lon="7.12078">
        <ele>706</ele>
        <time>2009-07-09T18:27:27Z</time>
      </trkpt>
      <trkpt lat="43.82742" lon="7.12057">
        <ele>703</ele>
        <time>2009-07-09T18:27:33Z</time>
      </trkpt>
      <trkpt lat="43.82737" lon="7.12055">
        <ele>702</ele>
        <time>2009-07-09T18:27:34Z</time>
      </trkpt>
      <trkpt lat="43.82705" lon="7.12042">
        <ele>699</ele>
        <time>2009-07-09T18:27:39Z</time>
      </trkpt>
      <trkpt lat="43.82668" lon="7.12038">
        <ele>695</ele>
        <time>2009-07-09T18:27:44Z</time>
      </trkpt>
      <trkpt lat="43.82645" lon="7.12038">
        <ele>692</ele>
        <time>2009-07-09T18:27:47Z</time>
      </trkpt>
      <trkpt lat="43.8263" lon="7.12038">
        <ele>690</ele>
        <time>2009-07-09T18:27:49Z</time>
      </trkpt>
      <trkpt lat="43.82615" lon="7.12042">
        <ele>688</ele>
        <time>2009-07-09T18:27:52Z</time>
      </trkpt>
      <trkpt lat="43.82603" lon="7.12048">
        <ele>687</ele>
        <time>2009-07-09T18:27:56Z</time>
      </trkpt>
      <trkpt lat="43.82577" lon="7.12057">
        <ele>684</ele>
        <time>2009-07-09T18:28:01Z</time>
      </trkpt>
      <trkpt lat="43.82565" lon="7.12067">
        <ele>683</ele>
        <time>2009-07-09T18:28:05Z</time>
      </trkpt>
      <trkpt lat="43.8255" lon="7.12103">
        <ele>679</ele>
        <time>2009-07-09T18:28:11Z</time>
      </trkpt>
      <trkpt lat="43.82527" lon="7.12128">
        <ele>677</ele>
        <time>2009-07-09T18:28:15Z</time>
      </trkpt>
      <trkpt lat="43.82483" lon="7.12148">
        <ele>673</ele>
        <time>2009-07-09T18:28:21Z</time>
      </trkpt>
      <trkpt lat="43.8246" lon="7.1216">
        <ele>671</ele>
        <time>2009-07-09T18:28:24Z</time>
      </trkpt>
      <trkpt lat="43.8244" lon="7.12172">
        <ele>669</ele>
        <time>2009-07-09T18:28:27Z</time>
      </trkpt>
      <trkpt lat="43.82417" lon="7.12167">
        <ele>667</ele>
        <time>2009-07-09T18:28:31Z</time>
      </trkpt>
      <trkpt lat="43.82407" lon="7.12155">
        <ele>666</ele>
        <time>2009-07-09T18:28:33Z</time>
      </trkpt>
      <trkpt lat="43.82398" lon="7.12143">
        <ele>665</ele>
        <time>2009-07-09T18:28:35Z</time>
      </trkpt>
      <trkpt lat="43.82375" lon="7.1211">
        <ele>665</ele>
        <time>2009-07-09T18:28:45Z</time>
      </trkpt>
      <trkpt lat="43.82343" lon="7.12098">
        <ele>667</ele>
        <time>2009-07-09T18:28:56Z</time>
      </trkpt>
      <trkpt lat="43.82335" lon="7.1208">
        <ele>667</ele>
        <time>2009-07-09T18:29:07Z</time>
      </trkpt>
      <trkpt lat="43.82333" lon="7.12078">
        <ele>667</ele>
        <time>2009-07-09T18:29:11Z</time>
      </trkpt>
      <trkpt lat="43.8233" lon="7.1207">
        <ele>668</ele>
        <time>2009-07-09T18:29:15Z</time>
      </trkpt>
      <trkpt lat="43.82317" lon="7.1205">
        <ele>668</ele>
        <time>2009-07-09T18:29:19Z</time>
      </trkpt>
      <trkpt lat="43.8231" lon="7.1204">
        <ele>669</ele>
        <time>2009-07-09T18:29:21Z</time>
      </trkpt>
      <trkpt lat="43.8229" lon="7.12023">
        <ele>669</ele>
        <time>2009-07-09T18:29:26Z</time>
      </trkpt>
      <trkpt lat="43.8228" lon="7.12012">
        <ele>670</ele>
        <time>2009-07-09T18:29:29Z</time>
      </trkpt>
      <trkpt lat="43.8227" lon="7.11995">
        <ele>671</ele>
        <time>2009-07-09T18:29:33Z</time>
      </trkpt>
      <trkpt lat="43.82218" lon="7.11947">
        <ele>673</ele>
        <time>2009-07-09T18:29:49Z</time>
      </trkpt>
      <trkpt lat="43.82163" lon="7.11917">
        <ele>675</ele>
        <time>2009-07-09T18:30:06Z</time>
      </trkpt>
      <trkpt lat="43.82143" lon="7.11863">
        <ele>677</ele>
        <time>2009-07-09T18:30:19Z</time>
      </trkpt>
      <trkpt lat="43.82125" lon="7.11803">
        <ele>679</ele>
        <time>2009-07-09T18:30:33Z</time>
      </trkpt>
      <trkpt lat="43.82088" lon="7.11765">
        <ele>680</ele>
        <time>2009-07-09T18:30:47Z</time>
      </trkpt>
      <trkpt lat="43.82027" lon="7.11745">
        <ele>682</ele>
        <time>2009-07-09T18:31:03Z</time>
      </trkpt>
      <trkpt lat="43.81985" lon="7.11713">
        <ele>685</ele>
        <time>2009-07-09T18:31:17Z</time>
      </trkpt>
      <trkpt lat="43.8195" lon="7.1174">
        <ele>686</ele>
        <time>2009-07-09T18:31:28Z</time>
      </trkpt>
      <trkpt lat="43.81908" lon="7.11755">
        <ele>688</ele>
        <time>2009-07-09T18:31:41Z</time>
      </trkpt>
      <trkpt lat="43.81878" lon="7.11728">
        <ele>691</ele>
        <time>2009-07-09T18:31:51Z</time>
      </trkpt>
      <trkpt lat="43.81843" lon="7.11683">
        <ele>694</ele>
        <time>2009-07-09T18:32:05Z</time>
      </trkpt>
      <trkpt lat="43.8182" lon="7.11615">
        <ele>696</ele>
        <time>2009-07-09T18:32:21Z</time>
      </trkpt>
      <trkpt lat="43.818" lon="7.11542">
        <ele>698</ele>
        <time>2009-07-09T18:32:37Z</time>
      </trkpt>
      <trkpt lat="43.81773" lon="7.11488">
        <ele>700</ele>
        <time>2009-07-09T18:32:50Z</time>
      </trkpt>
      <trkpt lat="43.81745" lon="7.11422">
        <ele>703</ele>
        <time>2009-07-09T18:33:06Z</time>
      </trkpt>
      <trkpt lat="43.81735" lon="7.11343">
        <ele>706</ele>
        <time>2009-07-09T18:33:22Z</time>
      </trkpt>
      <trkpt lat="43.81728" lon="7.11263">
        <ele>709</ele>
        <time>2009-07-09T18:33:39Z</time>
      </trkpt>
      <trkpt lat="43.81717" lon="7.1119">
        <ele>711</ele>
        <time>2009-07-09T18:33:55Z</time>
      </trkpt>
      <trkpt lat="43.81693" lon="7.1112">
        <ele>713</ele>
        <time>2009-07-09T18:34:11Z</time>
      </trkpt>
      <trkpt lat="43.81695" lon="7.11048">
        <ele>716</ele>
        <time>2009-07-09T18:34:26Z</time>
      </trkpt>
      <trkpt lat="43.81673" lon="7.11005">
        <ele>718</ele>
        <time>2009-07-09T18:34:39Z</time>
      </trkpt>
      <trkpt lat="43.81647" lon="7.1097">
        <ele>720</ele>
        <time>2009-07-09T18:34:53Z</time>
      </trkpt>
      <trkpt lat="43.81645" lon="7.10913">
        <ele>721</ele>
        <time>2009-07-09T18:35:09Z</time>
      </trkpt>
      <trkpt lat="43.81627" lon="7.1087">
        <ele>723</ele>
        <time>2009-07-09T18:35:23Z</time>
      </trkpt>
      <trkpt lat="43.81583" lon="7.10853">
        <ele>725</ele>
        <time>2009-07-09T18:35:37Z</time>
      </trkpt>
      <trkpt lat="43.8154" lon="7.10813">
        <ele>727</ele>
        <time>2009-07-09T18:35:51Z</time>
      </trkpt>
      <trkpt lat="43.81533" lon="7.10742">
        <ele>731</ele>
        <time>2009-07-09T18:36:06Z</time>
      </trkpt>
      <trkpt lat="43.81512" lon="7.10685">
        <ele>732</ele>
        <time>2009-07-09T18:36:18Z</time>
      </trkpt>
      <trkpt lat="43.815" lon="7.10633">
        <ele>735</ele>
        <time>2009-07-09T18:36:30Z</time>
      </trkpt>
      <trkpt lat="43.81482" lon="7.10587">
        <ele>737</ele>
        <time>2009-07-09T18:36:42Z</time>
      </trkpt>
      <trkpt lat="43.81475" lon="7.1052">
        <ele>739</ele>
        <time>2009-07-09T18:36:56Z</time>
      </trkpt>
      <trkpt lat="43.81458" lon="7.10453">
        <ele>741</ele>
        <time>2009-07-09T18:37:11Z</time>
      </trkpt>
      <trkpt lat="43.81408" lon="7.10405">
        <ele>744</ele>
        <time>2009-07-09T18:37:27Z</time>
      </trkpt>
      <trkpt lat="43.8136" lon="7.10377">
        <ele>746</ele>
        <time>2009-07-09T18:37:42Z</time>
      </trkpt>
      <trkpt lat="43.81307" lon="7.10355">
        <ele>749</ele>
        <time>2009-07-09T18:37:57Z</time>
      </trkpt>
      <trkpt lat="43.8126" lon="7.10313">
        <ele>751</ele>
        <time>2009-07-09T18:38:12Z</time>
      </trkpt>
      <trkpt lat="43.81228" lon="7.1026">
        <ele>753</ele>
        <time>2009-07-09T18:38:26Z</time>
      </trkpt>
      <trkpt lat="43.81213" lon="7.1019">
        <ele>755</ele>
        <time>2009-07-09T18:38:41Z</time>
      </trkpt>
      <trkpt lat="43.81202" lon="7.10123">
        <ele>758</ele>
        <time>2009-07-09T18:38:55Z</time>
      </trkpt>
      <trkpt lat="43.8119" lon="7.10075">
        <ele>760</ele>
        <time>2009-07-09T18:39:05Z</time>
      </trkpt>
      <trkpt lat="43.81205" lon="7.10012">
        <ele>762</ele>
        <time>2009-07-09T18:39:18Z</time>
      </trkpt>
      <trkpt lat="43.81212" lon="7.09982">
        <ele>763</ele>
        <time>2009-07-09T18:39:24Z</time>
      </trkpt>
      <trkpt lat="43.81207" lon="7.09923">
        <ele>764</ele>
        <time>2009-07-09T18:39:35Z</time>
      </trkpt>
      <trkpt lat="43.8121" lon="7.099">
        <ele>765</ele>
        <time>2009-07-09T18:39:39Z</time>
      </trkpt>
      <trkpt lat="43.81213" lon="7.09883">
        <ele>765</ele>
        <time>2009-07-09T18:39:42Z</time>
      </trkpt>
      <trkpt lat="43.81213" lon="7.09865">
        <ele>765</ele>
        <time>2009-07-09T18:39:45Z</time>
      </trkpt>
      <trkpt lat="43.8121" lon="7.09833">
        <ele>766</ele>
        <time>2009-07-09T18:39:51Z</time>
      </trkpt>
      <trkpt lat="43.81208" lon="7.09822">
        <ele>766</ele>
        <time>2009-07-09T18:39:53Z</time>
      </trkpt>
      <trkpt lat="43.81217" lon="7.09788">
        <ele>766</ele>
        <time>2009-07-09T18:39:59Z</time>
      </trkpt>
      <trkpt lat="43.81228" lon="7.09717">
        <ele>766</ele>
        <time>2009-07-09T18:40:11Z</time>
      </trkpt>
      <trkpt lat="43.81225" lon="7.09683">
        <ele>766</ele>
        <time>2009-07-09T18:40:16Z</time>
      </trkpt>
      <trkpt lat="43.81215" lon="7.09662">
        <ele>766</ele>
        <time>2009-07-09T18:40:20Z</time>
      </trkpt>
      <trkpt lat="43.81185" lon="7.09587">
        <ele>766</ele>
        <time>2009-07-09T18:40:33Z</time>
      </trkpt>
      <trkpt lat="43.81172" lon="7.09567">
        <ele>766</ele>
        <time>2009-07-09T18:40:37Z</time>
      </trkpt>
      <trkpt lat="43.81165" lon="7.09535">
        <ele>766</ele>
        <time>2009-07-09T18:40:42Z</time>
      </trkpt>
      <trkpt lat="43.81162" lon="7.0945">
        <ele>766</ele>
        <time>2009-07-09T18:40:54Z</time>
      </trkpt>
      <trkpt lat="43.81175" lon="7.09407">
        <ele>765</ele>
        <time>2009-07-09T18:41:00Z</time>
      </trkpt>
      <trkpt lat="43.81182" lon="7.09395">
        <ele>766</ele>
        <time>2009-07-09T18:41:02Z</time>
      </trkpt>
      <trkpt lat="43.81197" lon="7.09373">
        <ele>766</ele>
        <time>2009-07-09T18:41:06Z</time>
      </trkpt>
      <trkpt lat="43.81207" lon="7.09332">
        <ele>765</ele>
        <time>2009-07-09T18:41:12Z</time>
      </trkpt>
      <trkpt lat="43.8121" lon="7.09305">
        <ele>765</ele>
        <time>2009-07-09T18:41:15Z</time>
      </trkpt>
      <trkpt lat="43.81185" lon="7.09282">
        <ele>766</ele>
        <time>2009-07-09T18:41:22Z</time>
      </trkpt>
      <trkpt lat="43.81178" lon="7.0929">
        <ele>766</ele>
        <time>2009-07-09T18:41:24Z</time>
      </trkpt>
      <trkpt lat="43.81145" lon="7.0934">
        <ele>768</ele>
        <time>2009-07-09T18:41:38Z</time>
      </trkpt>
      <trkpt lat="43.81105" lon="7.09353">
        <ele>771</ele>
        <time>2009-07-09T18:41:51Z</time>
      </trkpt>
      <trkpt lat="43.81102" lon="7.09355">
        <ele>771</ele>
        <time>2009-07-09T18:41:52Z</time>
      </trkpt>
      <trkpt lat="43.8108" lon="7.09412">
        <ele>774</ele>
        <time>2009-07-09T18:42:05Z</time>
      </trkpt>
      <trkpt lat="43.8106" lon="7.09453">
        <ele>776</ele>
        <time>2009-07-09T18:42:16Z</time>
      </trkpt>
      <trkpt lat="43.81042" lon="7.0953">
        <ele>779</ele>
        <time>2009-07-09T18:42:33Z</time>
      </trkpt>
      <trkpt lat="43.81047" lon="7.09588">
        <ele>781</ele>
        <time>2009-07-09T18:42:46Z</time>
      </trkpt>
      <trkpt lat="43.81057" lon="7.09655">
        <ele>784</ele>
        <time>2009-07-09T18:43:02Z</time>
      </trkpt>
      <trkpt lat="43.81075" lon="7.0971">
        <ele>786</ele>
        <time>2009-07-09T18:43:16Z</time>
      </trkpt>
      <trkpt lat="43.81063" lon="7.09758">
        <ele>788</ele>
        <time>2009-07-09T18:43:27Z</time>
      </trkpt>
      <trkpt lat="43.81068" lon="7.09805">
        <ele>790</ele>
        <time>2009-07-09T18:43:38Z</time>
      </trkpt>
      <trkpt lat="43.81042" lon="7.09845">
        <ele>793</ele>
        <time>2009-07-09T18:43:53Z</time>
      </trkpt>
      <trkpt lat="43.80993" lon="7.09855">
        <ele>796</ele>
        <time>2009-07-09T18:44:08Z</time>
      </trkpt>
      <trkpt lat="43.80937" lon="7.09865">
        <ele>799</ele>
        <time>2009-07-09T18:44:25Z</time>
      </trkpt>
      <trkpt lat="43.80892" lon="7.09872">
        <ele>801</ele>
        <time>2009-07-09T18:44:39Z</time>
      </trkpt>
      <trkpt lat="43.80852" lon="7.09882">
        <ele>803</ele>
        <time>2009-07-09T18:44:53Z</time>
      </trkpt>
      <trkpt lat="43.808" lon="7.09872">
        <ele>806</ele>
        <time>2009-07-09T18:45:10Z</time>
      </trkpt>
      <trkpt lat="43.80758" lon="7.0986">
        <ele>809</ele>
        <time>2009-07-09T18:45:24Z</time>
      </trkpt>
      <trkpt lat="43.8071" lon="7.09838">
        <ele>812</ele>
        <time>2009-07-09T18:45:40Z</time>
      </trkpt>
      <trkpt lat="43.80665" lon="7.09823">
        <ele>814</ele>
        <time>2009-07-09T18:45:55Z</time>
      </trkpt>
      <trkpt lat="43.80623" lon="7.09785">
        <ele>817</ele>
        <time>2009-07-09T18:46:10Z</time>
      </trkpt>
      <trkpt lat="43.80583" lon="7.09775">
        <ele>819</ele>
        <time>2009-07-09T18:46:23Z</time>
      </trkpt>
      <trkpt lat="43.80548" lon="7.09797">
        <ele>822</ele>
        <time>2009-07-09T18:46:36Z</time>
      </trkpt>
      <trkpt lat="43.8053" lon="7.09832">
        <ele>823</ele>
        <time>2009-07-09T18:46:45Z</time>
      </trkpt>
      <trkpt lat="43.80523" lon="7.0989">
        <ele>825</ele>
        <time>2009-07-09T18:46:57Z</time>
      </trkpt>
      <trkpt lat="43.80518" lon="7.09938">
        <ele>827</ele>
        <time>2009-07-09T18:47:08Z</time>
      </trkpt>
      <trkpt lat="43.80487" lon="7.0999">
        <ele>830</ele>
        <time>2009-07-09T18:47:23Z</time>
      </trkpt>
      <trkpt lat="43.80438" lon="7.10023">
        <ele>833</ele>
        <time>2009-07-09T18:47:40Z</time>
      </trkpt>
      <trkpt lat="43.8039" lon="7.10067">
        <ele>836</ele>
        <time>2009-07-09T18:47:57Z</time>
      </trkpt>
      <trkpt lat="43.80337" lon="7.10107">
        <ele>838</ele>
        <time>2009-07-09T18:48:15Z</time>
      </trkpt>
      <trkpt lat="43.80287" lon="7.1014">
        <ele>841</ele>
        <time>2009-07-09T18:48:31Z</time>
      </trkpt>
      <trkpt lat="43.80282" lon="7.10142">
        <ele>841</ele>
        <time>2009-07-09T18:48:33Z</time>
      </trkpt>
      <trkpt lat="43.80287" lon="7.10132">
        <ele>842</ele>
        <time>2009-07-09T18:48:39Z</time>
      </trkpt>
      <trkpt lat="43.8029" lon="7.1013">
        <ele>842</ele>
        <time>2009-07-09T18:48:40Z</time>
      </trkpt>
      <trkpt lat="43.8033" lon="7.10095">
        <ele>845</ele>
        <time>2009-07-09T18:48:53Z</time>
      </trkpt>
      <trkpt lat="43.80372" lon="7.10055">
        <ele>847</ele>
        <time>2009-07-09T18:49:08Z</time>
      </trkpt>
      <trkpt lat="43.80403" lon="7.10017">
        <ele>850</ele>
        <time>2009-07-09T18:49:22Z</time>
      </trkpt>
      <trkpt lat="43.80445" lon="7.09965">
        <ele>853</ele>
        <time>2009-07-09T18:49:37Z</time>
      </trkpt>
      <trkpt lat="43.80478" lon="7.0992">
        <ele>855</ele>
        <time>2009-07-09T18:49:51Z</time>
      </trkpt>
      <trkpt lat="43.80482" lon="7.09868">
        <ele>857</ele>
        <time>2009-07-09T18:50:02Z</time>
      </trkpt>
      <trkpt lat="43.80483" lon="7.09807">
        <ele>860</ele>
        <time>2009-07-09T18:50:15Z</time>
      </trkpt>
      <trkpt lat="43.8048" lon="7.0973">
        <ele>863</ele>
        <time>2009-07-09T18:50:32Z</time>
      </trkpt>
      <trkpt lat="43.805" lon="7.09682">
        <ele>865</ele>
        <time>2009-07-09T18:50:45Z</time>
      </trkpt>
      <trkpt lat="43.80535" lon="7.09653">
        <ele>867</ele>
        <time>2009-07-09T18:50:56Z</time>
      </trkpt>
      <trkpt lat="43.80588" lon="7.09628">
        <ele>870</ele>
        <time>2009-07-09T18:51:11Z</time>
      </trkpt>
      <trkpt lat="43.80637" lon="7.09615">
        <ele>872</ele>
        <time>2009-07-09T18:51:25Z</time>
      </trkpt>
      <trkpt lat="43.80695" lon="7.09627">
        <ele>875</ele>
        <time>2009-07-09T18:51:41Z</time>
      </trkpt>
      <trkpt lat="43.80733" lon="7.0963">
        <ele>877</ele>
        <time>2009-07-09T18:51:52Z</time>
      </trkpt>
      <trkpt lat="43.80783" lon="7.09637">
        <ele>880</ele>
        <time>2009-07-09T18:52:06Z</time>
      </trkpt>
      <trkpt lat="43.80807" lon="7.09658">
        <ele>880</ele>
        <time>2009-07-09T18:52:19Z</time>
      </trkpt>
      <trkpt lat="43.80812" lon="7.0967">
        <ele>880</ele>
        <time>2009-07-09T18:52:34Z</time>
      </trkpt>
      <trkpt lat="43.80812" lon="7.0967">
        <ele>880</ele>
        <time>2009-07-09T18:53:11Z</time>
      </trkpt>
    </trkseg>
  </trk>
</gpx>